GFSSE_con_3kmhel_000.txt.gz
Helicity
-47 -39 -40 33 40 61 74 65 46 38 39 27 29 57 75 83 77 47 28 20 36 26 4 19 21 37 46 35 40 39 41 46 51 24 15 16 23 27 25 31 16 18 13
21 -29 -58 7 60 66 73 61 53 51 51 34 29 64 54 32 39 22 18 21 11 16 18 16 6 12 17 28 37 32 34 27 25 26 40 47 48 39 31 17 19 30 16
38 -19 -80 -2 59 68 68 70 65 59 61 44 36 39 44 15 20 8 6 17 20 16 13 18 19 18 17 11 16 23 28 30 29 35 60 54 54 53 46 26 47 38 23
47 -2 -46 36 74 65 69 67 68 64 57 52 41 27 18 -8 6 2 8 26 26 22 20 25 22 30 33 20 23 21 27 34 50 56 54 53 55 55 56 37 33 34 26
33 12 -11 28 64 59 69 63 64 58 57 51 32 -4 -3 -1 11 22 12 37 36 32 26 27 28 27 33 34 32 37 45 49 49 54 49 46 47 41 51 41 30 35 32
30 28 17 36 30 47 78 62 53 49 45 35 20 -18 -18 -10 2 -1 3 39 43 30 21 20 24 26 33 29 24 17 17 24 37 45 40 36 43 22 17 23 15 20 18
39 21 26 36 24 59 67 56 48 40 28 19 10 -4 -33 -39 -34 8 9 29 26 17 5 8 11 13 17 16 11 6 2 21 31 38 37 35 34 13 13 11 9 5 14
61 34 23 35 34 66 64 53 42 24 9 0 3 -3 -30 -77 -43 -25 14 28 24 4 -4 -5 -3 -3 -4 -3 3 5 16 18 31 42 40 48 30 9 7 2 1 1 -3
61 58 35 43 45 67 68 59 42 22 10 8 -2 -10 -37 -62 -71 -31 -21 11 3 -6 -15 -18 -18 -8 -1 4 11 14 22 27 35 48 57 76 56 35 28 25 19 16 11
56 64 54 58 57 84 82 63 44 30 24 17 8 6 -10 -36 -50 -32 -10 -3 -3 -4 -8 -6 -2 -4 -1 7 11 19 24 24 26 32 47 67 48 46 35 37 31 26 24
60 50 63 64 66 88 87 61 48 48 32 56 32 23 12 0 -8 -9 -2 5 7 10 10 5 3 26 36 42 44 48 44 32 32 38 45 36 48 53 58 58 46 25 12
55 46 52 55 60 86 83 80 69 61 70 63 49 41 35 36 29 13 21 18 25 30 21 35 51 59 49 40 47 54 38 44 47 50 61 69 72 65 64 72 70 80 77
96 71 71 76 74 105 94 94 92 85 84 74 59 48 53 59 58 49 47 45 46 51 53 74 79 75 58 44 49 44 44 48 43 45 50 77 81 76 75 68 81 98 127
120 120 85 88 104 108 105 97 100 104 89 80 71 61 72 72 69 51 63 63 79 83 102 87 75 76 67 52 52 55 51 47 52 58 77 123 126 124 111 106 155 187 194
96 127 132 137 125 119 110 102 114 107 96 89 89 85 85 91 77 77 98 103 103 96 94 82 76 74 65 60 57 62 70 73 81 86 95 154 182 183 202 251 218 197 183
85 120 172 168 158 156 134 118 108 122 117 110 112 107 107 106 100 120 141 129 115 95 77 71 59 60 48 41 57 66 65 61 84 102 119 143 196 211 225 217 220 195 224
48 89 159 193 213 189 165 144 142 151 151 148 154 154 145 145 140 144 136 120 101 84 67 58 58 56 63 70 55 51 65 81 132 136 147 154 166 196 215 209 203 206 200
87 93 129 171 208 224 212 219 219 207 206 191 188 173 171 145 137 148 127 120 90 76 53 50 53 53 49 33 50 67 56 90 145 159 151 142 146 139 166 197 198 196 195
89 122 158 220 247 271 323 319 292 253 243 233 212 187 172 155 151 147 136 108 88 72 66 57 50 24 14 35 66 83 64 89 152 160 146 135 132 111 105 144 156 143 142
105 133 199 240 305 378 386 368 326 308 315 288 247 230 219 176 156 145 124 99 76 63 60 46 38 22 2 25 42 80 68 92 123 138 140 122 121 84 88 92 83 82 115
133 147 204 287 358 447 422 377 321 278 277 284 280 253 217 186 160 133 102 80 62 28 1 11 9 35 11 27 16 70 70 78 89 110 107 59 104 84 60 71 51 59 83
134 167 228 295 376 436 428 304 264 246 259 280 256 236 198 184 147 130 103 71 31 1 24 27 30 12 4 -2 -9 -6 36 68 132 89 89 101 78 79 65 81 78 95 99
116 179 244 315 387 433 393 391 347 321 320 284 240 239 198 171 160 132 96 56 41 19 7 8 11 21 16 7 19 -1 3 36 59 77 118 89 76 62 45 45 59 67 87
159 199 245 318 394 362 311 291 268 248 225 176 201 190 179 169 155 123 91 73 50 13 24 13 18 12 6 19 24 66 70 81 55 54 73 100 43 53 33 53 33 66 81
183 217 234 282 291 256 242 228 234 223 217 254 212 202 184 174 148 120 109 87 60 34 30 39 41 44 28 29 35 50 80 103 121 146 134 96 50 36 31 36 83 25 51
193 200 209 227 194 198 192 192 212 247 240 230 183 183 170 158 144 142 126 101 81 66 57 46 49 60 65 74 71 78 85 91 97 86 110 86 50 19 79 39 20 39 52

GFSSE_con_3kmhel_003.txt.gz
Helicity
-26 3 -36 17 34 35 49 46 38 33 31 19 19 35 24 29 30 23 17 -1 13 5 -2 7 15 30 56 57 55 49 45 40 42 27 15 21 37 48 43 42 28 8 5
21 -2 -31 20 25 40 47 41 35 34 30 17 17 43 35 27 18 9 1 -0 -8 -0 10 17 21 15 23 38 45 50 44 43 42 34 47 55 69 73 64 47 31 63 33
32 17 -24 -10 47 58 51 39 34 34 33 16 27 38 26 18 4 3 -8 7 11 13 26 25 33 24 22 22 31 30 36 38 41 52 67 62 66 81 88 64 58 77 55
20 19 -15 7 52 57 43 37 32 31 36 26 17 28 12 -10 10 4 1 27 18 28 33 30 43 52 56 48 46 41 46 54 66 73 62 68 61 68 80 76 50 65 56
21 15 -19 40 54 56 57 44 30 27 29 26 13 -6 -19 -4 2 14 13 24 39 33 36 42 45 51 59 60 56 58 56 57 62 62 58 54 45 40 42 41 35 38 46
86 47 6 28 52 57 57 51 33 26 24 14 -13 -52 -40 -23 -23 -4 18 52 40 29 30 37 37 44 47 45 45 42 44 46 42 43 46 40 35 33 22 19 21 27 22
79 38 -1 34 35 58 62 48 35 24 15 -0 -18 -53 -64 -25 -19 -8 20 46 29 20 5 10 13 18 17 19 21 25 27 24 25 29 32 32 26 22 17 15 11 9 -1
71 52 12 19 24 56 51 50 35 23 14 -4 -28 -53 -72 -61 -35 -5 28 35 26 5 -7 -0 -6 2 6 9 15 23 29 25 24 25 32 38 35 31 17 20 20 10 4
68 78 27 19 26 38 57 68 39 24 19 7 -15 -37 -50 -67 -54 -7 8 16 8 -8 -12 -13 -10 -6 4 18 27 32 34 36 23 27 28 38 46 38 38 29 17 14 7
84 74 44 32 36 37 56 73 48 28 32 31 14 7 -16 -34 -29 -9 10 12 10 2 -1 1 3 24 45 52 45 41 35 32 35 26 35 41 32 27 34 42 40 32 13
79 73 56 43 49 48 70 60 53 39 40 62 53 42 15 -4 -6 6 19 29 25 22 19 29 42 58 60 61 61 50 38 37 44 49 49 60 56 50 48 45 47 45 54
62 41 51 53 48 55 76 60 56 55 67 65 55 45 33 33 26 30 38 44 37 43 52 74 76 66 56 40 49 57 47 52 53 53 56 73 67 62 56 56 61 68 75
57 61 56 73 74 56 75 85 77 61 77 72 67 64 58 53 51 53 50 55 50 70 62 66 63 59 65 58 52 53 51 48 42 45 69 92 93 88 72 78 113 159 159
65 67 50 84 96 60 85 93 86 71 75 76 68 76 67 64 61 74 78 85 82 76 77 79 66 62 61 57 56 58 60 52 57 66 84 129 119 106 184 213 205 191 155
57 66 73 77 102 88 90 98 86 72 74 79 75 80 82 70 85 101 111 105 89 86 84 74 70 66 66 66 67 64 68 50 51 61 75 131 155 203 206 214 190 152 213
59 73 81 92 111 112 106 95 83 88 94 88 85 84 84 97 123 134 142 124 104 85 73 69 66 57 56 55 64 65 51 42 65 76 80 99 150 172 173 169 167 187 172
52 43 54 93 126 129 115 104 106 106 119 104 105 111 141 156 161 149 138 122 102 85 71 61 51 51 62 61 60 52 59 65 88 109 104 112 118 161 173 170 169 162 158
67 51 38 64 116 137 156 167 144 146 161 153 156 168 179 182 159 160 150 129 88 69 52 46 52 45 46 44 51 55 49 63 111 123 118 114 117 118 135 171 176 165 160
56 44 57 52 80 154 221 234 223 216 224 223 220 220 195 179 175 162 134 99 72 61 57 46 39 30 35 50 53 46 48 74 132 137 150 130 126 138 125 132 141 142 144
55 57 76 101 119 215 333 330 336 308 312 285 261 254 230 177 175 151 124 96 71 68 60 43 36 16 6 32 38 45 61 74 86 105 113 102 116 130 109 92 94 81 92
106 114 94 138 189 311 377 360 337 308 301 292 303 258 234 188 177 150 119 92 77 68 44 22 -8 11 18 33 38 75 60 71 79 80 73 125 118 117 90 79 79 70 66
90 115 107 120 189 267 353 361 330 321 311 309 303 263 238 198 181 145 104 79 65 33 23 23 19 -4 -0 11 2 -16 33 46 67 42 99 91 125 115 118 102 95 87 82
97 119 124 147 196 274 393 481 486 440 372 329 297 273 220 204 170 140 112 89 64 30 19 14 4 16 27 12 17 -18 -22 18 51 61 73 112 85 64 59 34 21 32 54
115 140 124 152 196 302 383 372 352 292 244 232 247 232 240 188 170 145 120 91 68 41 24 3 -11 -2 -4 29 -1 24 14 22 -12 -20 23 61 58 59 15 -13 11 1 29
158 179 161 162 215 257 286 287 352 295 244 301 290 276 224 199 174 144 116 98 85 54 31 15 4 9 9 6 12 16 38 51 63 52 65 65 59 -0 -8 -5 -9 1 11
197 190 172 191 198 232 251 257 294 280 279 306 266 238 193 188 168 144 124 112 90 64 43 29 23 25 26 24 20 28 23 9 22 50 74 64 59 -1 41 -0 23 22 22

GFSSE_con_3kmhel_006.txt.gz
Helicity
25 44 24 21 27 21 29 35 42 36 33 30 35 41 34 39 38 25 4 5 7 -6 1 3 24 38 58 67 62 37 32 29 29 29 30 27 49 65 63 63 60 37 57
43 41 14 17 31 29 31 33 34 31 27 20 47 73 73 54 36 41 20 2 3 10 16 16 22 19 24 38 50 51 48 47 37 42 49 37 57 76 77 71 62 55 79
33 25 29 16 31 40 36 33 28 25 24 45 51 50 40 39 26 20 7 12 19 26 28 32 36 30 25 39 38 31 39 44 50 54 51 48 60 68 81 74 64 67 71
28 18 26 28 61 47 34 27 23 23 21 32 43 23 14 38 14 13 17 25 30 33 38 41 45 49 51 50 47 43 47 50 52 50 46 60 62 76 75 74 45 44 56
16 36 54 72 55 57 31 30 22 20 18 14 10 0 2 7 17 18 25 32 43 38 36 45 45 48 52 53 60 54 60 44 49 33 61 62 60 68 54 42 38 39 40
4 33 102 115 80 60 41 36 25 18 7 1 -18 -41 -27 -5 -7 5 8 50 37 26 23 27 24 34 33 41 39 44 47 57 30 38 36 36 23 49 36 35 23 19 29
83 56 88 85 65 46 47 36 31 30 1 -18 -47 -54 -28 -17 -4 -24 4 36 21 12 8 16 24 28 27 28 24 35 36 29 26 27 27 27 26 31 25 22 15 12 7
74 56 79 68 50 43 45 46 43 34 10 -17 -40 -53 -33 -47 -32 -1 22 18 8 7 16 19 22 19 18 25 38 44 42 35 16 28 28 25 48 24 22 18 11 12 8
47 38 55 63 40 46 48 47 61 39 22 -1 -22 -42 -25 -30 -9 11 5 4 -4 11 15 18 15 18 37 44 45 42 35 25 13 36 23 26 66 25 21 28 19 11 6
72 75 68 68 55 41 51 66 60 33 40 33 21 9 -19 -27 -12 13 5 35 30 28 34 41 50 44 54 55 53 42 23 -6 40 30 35 57 42 29 29 36 45 44 41
77 95 93 79 67 56 57 72 62 42 48 64 56 38 -6 -16 -8 5 37 37 46 60 57 62 61 53 29 39 43 30 -5 38 37 49 55 82 55 51 48 49 53 54 54
65 71 79 80 62 55 59 78 58 56 39 41 40 39 20 19 29 43 52 63 62 62 72 66 63 36 22 36 37 29 49 47 51 53 69 82 71 71 68 66 84 109 116
52 66 65 64 66 52 54 72 65 63 57 55 54 53 62 57 57 56 58 54 49 54 44 42 47 55 53 51 44 45 48 42 44 47 93 95 97 87 103 156 175 158 128
57 51 47 54 84 61 52 53 56 68 60 60 55 66 70 80 91 87 90 86 76 62 60 64 57 58 56 52 46 44 44 44 51 56 84 92 119 149 164 173 136 140 195
73 38 36 39 46 70 56 54 65 63 56 57 64 62 87 104 114 131 112 100 87 74 65 64 60 60 58 50 40 38 46 42 34 44 66 104 128 139 141 143 148 163 161
59 44 41 43 46 58 66 53 61 68 63 64 76 80 99 121 142 153 141 125 98 79 65 59 55 49 40 34 35 44 44 36 43 53 63 79 120 139 138 141 150 151 158
71 57 48 40 64 72 80 64 66 82 73 73 77 93 127 134 155 157 142 117 104 75 60 48 34 28 27 31 39 38 36 38 45 65 76 87 88 123 148 157 158 154 155
73 69 62 52 41 68 88 100 103 102 88 87 109 127 138 152 166 167 150 131 105 76 50 34 27 24 25 31 37 36 36 41 66 90 103 110 112 109 106 152 156 141 139
81 82 64 44 27 42 74 159 129 120 151 141 153 151 169 176 161 154 141 124 95 66 43 24 22 26 30 40 41 37 41 46 72 89 105 104 103 110 111 116 128 106 125
105 92 85 69 63 75 176 198 260 231 227 235 214 197 209 210 170 165 147 115 78 46 32 15 19 20 21 39 39 38 47 56 65 80 92 83 101 104 111 110 100 84 79
140 127 102 82 100 173 248 269 289 253 276 289 277 253 265 236 187 164 137 107 71 55 35 25 5 5 18 41 50 52 61 71 64 86 107 68 105 101 102 107 93 89 92
162 135 119 111 117 159 206 220 278 273 293 276 360 355 319 253 188 161 124 93 67 38 28 17 7 -3 17 39 44 59 89 76 110 63 102 86 125 102 115 112 110 101 95
163 142 129 116 114 136 187 304 332 382 356 396 431 431 319 222 191 155 118 86 57 33 12 5 6 13 13 34 51 35 24 74 81 85 79 87 116 105 93 74 57 57 61
129 133 124 125 113 159 200 295 266 354 381 293 381 333 276 228 178 143 109 74 60 31 16 6 1 4 0 27 14 41 37 50 34 34 32 15 83 63 60 66 56 56 65
109 117 141 120 124 161 195 187 241 280 285 359 393 345 285 205 162 135 103 82 64 39 25 9 -3 3 9 20 38 43 40 39 32 38 46 49 61 46 42 49 15 20 35
155 143 145 114 119 117 170 167 238 338 362 448 367 325 238 187 162 140 113 93 67 45 23 13 12 15 25 38 43 46 46 49 49 42 39 45 48 34 64 41 24 34 61

GFSSE_con_3kmhel_009.txt.gz
Helicity
59 69 40 61 54 35 17 20 21 15 17 36 60 59 62 92 77 54 41 31 12 6 8 12 57 67 83 95 100 58 39 36 34 32 22 13 29 58 66 77 65 34 86
69 62 51 69 47 28 18 20 21 16 13 20 65 97 90 82 75 61 26 18 16 17 21 34 50 48 48 47 40 38 40 43 47 38 35 20 37 58 72 68 64 66 75
68 71 45 65 44 43 36 27 23 17 16 51 56 69 89 83 67 47 32 29 32 34 32 42 58 47 45 53 45 41 39 40 41 37 19 22 50 66 77 78 68 54 67
49 60 57 64 73 66 52 35 24 23 22 29 27 45 76 79 63 41 35 30 34 35 36 44 50 49 53 58 55 40 31 29 34 13 25 53 43 68 59 65 73 54 48
30 37 81 83 95 89 55 40 18 22 12 6 8 14 40 58 49 27 34 36 33 32 40 40 39 37 43 43 45 42 53 44 28 9 43 48 34 67 49 41 38 37 49
23 28 122 108 99 83 65 55 22 11 4 -12 -14 -16 -2 8 6 4 26 38 30 26 26 26 20 22 36 32 25 32 31 31 5 26 34 40 20 62 44 38 28 24 17
61 132 76 112 91 68 57 46 38 18 2 -28 -42 -39 -23 -9 -0 3 24 28 16 12 11 13 18 26 24 14 31 35 26 15 4 13 30 39 56 50 33 25 24 17 16
75 101 114 92 93 72 62 47 42 37 8 -17 -39 -39 -30 -29 -26 5 34 26 12 7 12 11 16 12 22 41 38 27 21 15 13 20 44 24 66 37 23 25 23 24 19
52 109 104 85 63 79 81 55 50 47 26 8 -5 -22 -17 -14 2 22 27 21 7 13 17 26 42 47 49 48 40 31 18 -1 7 44 26 54 69 48 36 35 41 51 48
76 74 93 60 65 88 105 74 71 54 42 38 32 27 -9 -11 5 35 49 47 31 34 46 49 46 43 39 38 37 24 4 -15 21 30 46 71 74 60 52 57 66 61 53
64 74 81 77 89 99 109 98 76 65 50 65 54 27 -10 -24 -1 14 69 55 57 51 54 48 43 29 11 22 25 16 -0 54 47 59 63 91 74 61 58 62 63 66 84
46 51 64 81 92 119 107 104 67 61 45 44 44 42 11 25 42 80 63 57 60 55 45 37 20 -1 18 42 40 21 44 48 44 56 97 107 87 86 88 139 154 115 99
62 61 72 83 103 135 113 99 88 62 84 42 57 52 50 57 58 40 56 39 50 22 26 5 22 52 39 44 47 48 47 38 43 66 136 116 106 121 154 159 114 134 163
83 69 73 66 83 72 91 109 87 65 93 48 61 57 71 75 82 85 110 116 96 60 64 65 55 48 34 42 47 52 57 53 56 76 114 107 107 127 128 116 149 142 141
101 81 70 52 71 69 83 106 130 39 86 63 69 63 64 93 94 154 133 115 114 103 88 69 59 45 37 38 38 45 52 60 59 62 89 111 115 119 126 135 131 131 144
77 76 73 56 57 58 53 94 115 23 81 99 78 77 81 87 153 140 145 146 137 124 97 73 58 40 32 32 32 47 56 55 56 62 86 76 96 114 122 126 124 126 131
78 71 82 71 70 65 57 58 89 30 91 129 77 83 101 182 140 143 156 154 139 116 94 70 49 26 25 33 43 49 53 55 48 58 79 89 65 92 102 120 120 124 131
86 87 82 85 75 89 82 78 77 74 132 106 122 124 157 151 152 167 171 166 129 112 86 64 44 24 28 40 47 49 49 48 55 78 90 95 99 95 82 107 111 106 123
93 111 121 112 81 102 88 84 85 182 139 94 104 162 181 168 162 182 167 154 126 114 83 53 39 36 31 32 33 41 58 47 63 76 83 83 94 92 90 102 98 84 112
91 106 111 130 104 98 95 84 162 208 233 287 242 225 192 181 154 179 171 161 135 98 66 43 38 24 20 28 32 46 60 60 80 67 86 84 111 90 101 93 93 96 84
97 149 138 156 108 134 199 242 240 299 295 278 266 272 243 247 243 194 174 162 130 92 58 40 16 15 21 35 34 59 61 78 73 86 103 110 106 106 111 118 93 92 109
218 187 190 142 136 149 266 258 343 405 344 261 276 288 314 337 278 215 169 153 110 74 55 41 21 -5 12 20 23 22 80 66 77 104 106 122 94 120 123 103 101 105 108
151 175 193 172 155 212 235 339 393 399 443 378 318 348 383 395 310 251 177 142 106 72 48 30 11 12 5 18 32 33 51 109 88 90 100 120 94 116 104 92 93 105 104
125 197 220 223 227 180 228 284 331 378 393 320 382 434 402 380 334 235 192 141 101 61 43 18 12 2 -11 13 4 52 68 97 91 92 114 100 114 79 88 96 101 83 77
119 186 192 196 223 214 237 192 281 270 324 393 441 470 430 423 286 215 184 136 96 66 46 26 8 5 5 14 33 48 55 54 54 82 84 79 94 88 77 55 65 41 50
120 192 223 174 204 224 189 203 230 231 362 447 479 489 442 402 283 228 167 129 92 68 47 32 19 9 16 28 44 60 74 91 111 117 104 87 80 75 89 61 55 12 61

GFSSE_con_3kmhel_012.txt.gz
Helicity
82 69 59 84 93 56 38 24 18 19 31 47 56 71 88 99 112 117 95 62 29 18 22 35 70 80 95 110 95 61 43 26 45 31 23 17 31 55 62 78 61 66 65
119 76 63 83 78 57 49 36 16 3 12 40 59 66 82 78 79 76 51 38 42 38 39 46 61 71 64 60 36 42 43 49 37 30 20 14 20 43 54 62 57 58 67
101 97 67 74 67 57 58 41 21 3 13 35 48 86 104 98 67 45 39 46 48 43 42 48 59 63 63 54 44 31 30 29 23 8 8 17 10 49 50 55 56 40 44
105 70 52 73 80 57 57 43 32 27 23 27 31 57 80 71 57 50 41 41 38 34 36 40 42 46 51 51 42 38 33 30 14 9 32 39 61 55 45 46 43 43 39
103 15 57 71 86 72 65 40 34 27 9 12 19 24 42 39 41 44 40 38 33 28 23 24 28 32 37 36 30 29 38 25 1 10 20 49 30 52 47 38 33 26 26
61 123 94 76 91 85 62 42 36 30 8 3 8 4 -1 10 14 32 35 29 23 21 19 19 21 25 28 19 21 24 19 10 1 10 29 14 55 53 38 27 22 23 22
122 181 97 84 98 89 71 48 40 31 14 3 -7 1 -2 -8 -16 8 45 23 12 6 8 11 19 17 12 15 21 14 9 1 -8 3 30 57 49 47 30 20 25 22 27
182 171 116 103 99 80 65 71 48 38 16 -3 -8 -13 -23 -34 -52 16 23 16 4 4 2 6 10 17 21 20 18 13 9 4 13 36 59 68 71 46 34 34 41 45 54
153 151 96 121 105 97 95 77 79 56 25 8 7 9 -4 -15 -7 25 31 18 17 14 14 22 14 18 18 20 20 16 6 6 40 39 93 49 68 60 47 46 52 59 66
128 128 80 133 139 117 104 91 90 81 43 29 28 52 17 7 24 44 66 53 35 31 24 22 18 16 12 10 15 13 7 23 29 70 67 67 87 65 58 60 61 75 74
93 88 83 79 109 104 120 104 106 100 74 62 42 45 32 6 14 54 65 67 57 42 33 27 12 -1 6 5 3 18 43 51 68 78 72 104 94 80 72 96 120 108 110
77 91 107 28 89 126 136 138 117 116 99 67 38 26 23 30 52 72 63 62 52 46 36 17 10 24 37 24 16 46 43 54 72 91 88 112 100 106 165 171 127 160 151
78 89 92 154 199 161 172 129 115 112 92 65 55 38 40 126 119 74 60 48 28 40 32 33 23 47 37 36 36 47 60 67 74 103 106 124 129 155 135 106 145 124 127
88 94 126 135 232 203 209 122 97 106 93 70 73 65 95 89 79 62 71 63 65 67 92 97 79 63 59 60 48 47 61 72 95 99 99 108 117 119 118 121 109 115 121
163 144 191 108 198 208 194 138 112 66 125 60 99 111 99 91 80 123 172 134 138 147 135 119 104 79 65 54 50 50 57 73 101 98 65 97 108 110 108 106 104 107 105
124 166 205 132 159 165 182 158 158 75 98 50 122 112 95 85 147 238 205 178 160 133 135 127 98 82 66 54 48 51 65 84 93 116 66 69 89 91 92 98 102 104 103
85 147 184 182 209 134 142 158 168 70 74 153 142 107 72 204 226 171 174 174 145 147 150 141 112 88 75 62 60 66 66 79 76 87 92 49 64 76 77 91 92 94 96
104 117 151 187 219 173 111 108 151 49 150 206 152 131 192 226 219 187 171 177 161 159 134 129 105 79 65 60 52 55 65 68 67 113 113 103 79 64 72 88 92 93 90
86 93 146 196 215 242 178 121 135 114 200 195 185 207 257 278 250 237 234 199 177 184 158 116 90 60 50 46 44 43 59 55 59 98 88 88 90 94 86 85 104 104 98
143 112 160 207 227 290 268 169 138 217 244 205 232 292 372 267 237 230 239 241 207 180 140 101 74 55 39 35 19 23 48 51 93 86 115 119 95 89 85 106 79 83 98
150 144 182 245 262 376 331 236 198 268 348 399 427 411 336 256 224 280 259 250 221 189 136 94 50 58 50 37 17 21 29 52 71 76 112 129 127 126 120 90 74 60 69
153 179 181 242 269 300 340 240 269 351 385 463 464 397 313 297 345 321 305 271 228 186 141 95 73 35 19 21 8 1 31 50 79 78 109 144 108 122 108 84 67 72 97
114 182 223 231 286 274 377 394 500 528 548 498 457 421 369 370 387 336 329 286 223 165 114 78 59 44 20 5 19 7 32 40 54 106 107 149 135 121 98 79 72 99 96
182 131 226 259 275 368 493 530 451 453 523 478 467 431 386 413 418 384 366 299 209 158 108 65 46 31 21 14 9 27 44 68 77 93 141 118 129 110 88 77 84 92 82
136 205 162 201 261 468 524 464 421 465 505 526 463 420 419 452 442 389 368 316 228 155 99 69 52 45 26 19 23 28 44 58 77 113 98 98 79 87 91 88 70 64 62
109 134 205 227 282 410 429 364 374 408 483 498 468 448 463 476 453 408 366 268 236 158 102 71 56 51 37 32 34 44 54 66 87 128 140 107 94 80 93 80 72 52 65

GFSSE_con_3kmhel_015.txt.gz
Helicity
41 50 59 68 73 64 62 60 53 42 46 63 83 102 110 121 120 104 80 53 39 34 36 49 78 92 82 74 48 38 45 42 48 38 34 32 44 49 52 67 68 44 51
84 58 83 69 77 59 57 61 47 35 32 42 65 83 90 96 91 78 62 50 46 42 39 44 68 69 46 39 25 41 42 35 28 30 28 26 17 45 51 58 58 60 60
112 64 80 67 78 66 58 56 44 35 36 39 58 69 86 74 57 53 49 39 37 29 27 31 46 54 41 41 36 36 35 31 27 29 26 22 11 52 54 55 51 37 39
136 72 69 71 75 68 64 59 41 47 43 27 47 72 83 76 48 35 30 25 19 17 21 29 33 37 35 33 29 33 20 17 20 28 34 -6 22 49 49 42 38 43 29
117 66 60 74 69 67 65 60 58 47 42 30 27 26 36 45 35 33 26 21 19 19 22 25 27 24 22 22 22 23 14 1 7 10 6 37 43 43 45 35 28 24 17
83 73 60 72 71 77 56 59 51 41 42 24 6 -6 -4 13 21 22 19 14 12 11 13 16 10 10 11 12 17 21 17 3 13 26 11 48 46 42 37 26 24 26 24
97 82 57 51 78 81 45 56 60 37 32 18 4 -12 -19 -23 -15 6 10 6 2 1 3 9 6 1 4 13 14 13 7 9 24 34 53 58 46 48 33 28 28 32 30
135 79 49 63 85 77 52 52 63 54 41 19 13 -1 -18 -39 -34 11 1 -2 -5 -4 -4 2 3 11 12 12 9 7 6 24 38 62 76 71 54 48 42 35 40 53 58
192 122 95 80 80 79 78 58 59 60 61 30 21 15 4 -34 -7 17 9 7 13 10 18 17 13 8 6 4 4 8 15 37 63 63 80 67 68 62 58 53 56 64 66
165 132 116 107 120 116 96 76 72 76 72 65 40 26 25 23 30 30 18 17 15 23 22 19 12 7 8 7 17 41 47 83 75 74 72 70 88 76 76 76 83 90 102
145 129 137 140 152 140 121 85 86 94 90 90 81 41 25 29 66 64 46 36 28 23 23 18 13 15 6 3 19 56 57 58 75 78 68 79 81 83 149 141 111 153 153
145 135 134 136 148 154 134 129 104 98 103 104 87 62 27 27 53 71 64 51 42 32 23 19 24 37 40 33 37 64 58 80 81 89 83 108 129 148 145 140 153 132 120
150 135 132 127 117 139 151 162 136 112 115 91 76 61 69 39 52 72 65 53 44 44 40 38 41 48 60 58 53 58 70 87 80 96 90 110 138 168 104 115 111 115 105
85 137 124 147 176 164 158 175 150 128 104 97 68 72 105 101 107 86 66 70 56 47 78 80 74 77 76 71 74 69 75 94 80 90 94 120 127 132 121 103 101 102 95
104 91 117 213 218 247 229 179 143 131 100 69 91 80 119 105 102 124 76 103 104 117 116 110 95 93 93 86 91 82 81 101 85 88 69 106 113 121 113 107 101 105 99
112 156 137 236 246 307 240 186 197 174 105 86 106 113 129 109 148 181 184 196 180 160 137 122 103 105 110 94 107 97 81 98 101 84 73 79 98 103 106 113 108 104 102
119 167 165 221 258 310 245 195 209 183 127 82 107 138 123 156 204 225 234 212 184 174 169 154 140 118 118 92 92 99 84 86 112 90 83 77 82 100 105 112 111 98 100
171 157 194 219 260 313 257 213 209 149 141 109 135 149 163 185 212 217 226 210 195 175 166 180 153 132 105 91 76 72 68 75 109 99 67 59 49 57 78 95 105 109 103
148 189 208 269 252 236 304 235 202 160 112 153 205 235 241 260 236 272 246 219 205 208 193 176 159 113 98 81 63 60 45 67 76 93 101 83 77 63 70 107 106 115 108
91 145 124 311 304 261 248 272 262 203 156 214 258 310 320 285 269 317 288 255 231 242 221 176 147 122 89 69 51 53 25 45 54 92 96 79 87 106 80 78 73 61 80
94 96 103 216 338 420 373 272 276 244 259 273 312 377 435 346 324 344 309 276 228 240 206 151 131 123 123 76 51 54 35 33 34 55 84 102 108 93 88 68 39 41 43
105 93 84 126 367 421 428 340 305 349 365 344 387 392 383 364 382 350 301 273 234 254 229 170 120 100 91 91 56 45 53 35 36 67 110 138 145 127 121 92 56 34 45
91 119 109 105 287 424 412 514 548 533 520 437 410 429 415 417 392 347 326 303 267 256 212 161 113 93 75 70 68 37 52 37 39 75 140 185 179 152 111 85 55 56 68
44 126 145 122 203 340 463 503 506 463 486 456 489 469 466 426 435 390 364 315 279 265 233 151 104 79 66 63 50 57 53 51 52 60 102 138 139 127 76 67 90 83 88
134 106 171 130 165 284 377 457 489 465 543 548 591 548 503 476 446 395 365 341 299 257 209 179 122 101 72 59 47 42 64 76 98 108 89 117 113 101 103 96 96 105 103
128 150 114 135 172 268 375 447 462 521 574 561 557 546 575 534 495 417 371 356 274 318 195 187 127 100 78 68 56 57 57 69 85 118 118 110 93 76 87 86 88 88 75

GFSSE_con_3kmhel_018.txt.gz
Helicity
40 16 55 59 63 66 58 68 75 79 71 77 99 111 133 129 99 95 82 74 62 44 48 71 88 48 50 36 34 46 40 34 41 59 79 85 83 69 69 85 61 30 39
41 33 58 59 55 61 55 60 65 72 74 73 81 102 109 95 84 70 60 52 39 31 31 54 63 35 42 36 25 24 24 26 33 43 44 38 41 59 62 56 65 66 57
91 47 52 47 47 56 54 55 66 63 60 69 55 55 76 60 50 50 43 38 28 18 14 25 37 31 23 24 27 26 32 44 39 29 28 26 30 58 61 60 58 50 47
112 84 54 54 47 48 50 62 72 62 67 62 65 80 61 44 38 31 24 18 15 14 12 8 13 19 20 24 34 34 27 26 34 28 25 15 23 52 54 48 43 46 27
123 97 56 52 49 45 53 55 80 61 53 66 77 82 60 33 26 19 13 9 7 6 7 7 8 15 20 30 28 19 16 18 34 14 23 14 17 35 40 40 29 25 17
125 99 66 54 54 46 52 53 66 63 51 47 37 31 32 21 13 6 4 -5 -13 -17 -17 -12 -1 7 11 15 16 20 21 28 26 17 22 6 25 31 32 27 32 28 25
126 106 68 58 49 53 56 41 51 58 48 34 13 1 5 2 2 -3 -7 -15 -23 -28 -26 -8 -8 -2 5 10 16 25 30 48 34 40 49 40 24 32 24 16 29 36 24
133 90 50 48 52 57 52 43 44 58 53 42 10 -2 -9 -22 -6 -11 -12 -17 -23 -22 -15 -7 0 13 11 12 17 25 39 59 48 64 63 51 40 39 38 44 48 51 52
106 86 41 32 62 57 57 55 53 59 63 46 43 12 -19 -24 -8 2 -8 -14 -13 -11 5 12 15 16 14 21 28 36 49 55 62 68 67 64 54 55 51 56 55 61 75
107 90 80 71 87 75 68 68 75 61 64 58 48 39 -4 -33 21 36 10 -8 -5 -3 4 11 14 21 22 31 51 52 77 87 80 79 74 66 71 74 74 70 78 94 127
154 115 108 124 122 112 93 73 74 83 82 83 74 53 50 25 46 59 36 24 16 11 6 13 17 16 15 26 50 73 83 65 86 85 74 58 78 130 137 128 149 149 171
157 152 107 128 144 155 125 106 92 88 97 96 81 70 65 64 61 54 48 56 45 37 24 28 35 44 46 41 46 77 79 81 96 104 98 133 144 160 138 158 147 151 141
128 184 159 122 169 171 165 142 120 112 116 108 95 90 81 73 86 83 72 57 57 65 59 65 69 58 58 50 58 74 88 92 109 115 117 142 153 173 139 128 129 124 108
170 162 181 167 175 160 168 164 157 148 116 117 99 107 119 95 95 98 96 83 76 82 83 89 87 86 86 78 79 88 96 96 106 114 114 140 146 163 124 102 98 97 92
149 152 195 172 157 187 199 151 150 159 133 101 111 110 117 118 113 119 99 106 97 89 103 118 110 102 101 99 101 102 105 104 114 109 100 137 135 132 116 107 99 93 89
128 169 206 205 188 232 194 185 182 154 116 129 124 128 116 133 148 143 143 132 129 114 117 126 123 119 116 102 114 113 110 97 96 107 105 110 125 119 113 105 95 95 97
127 132 238 211 222 252 241 249 222 178 141 150 123 117 123 151 164 166 180 185 168 148 160 154 147 133 131 113 115 114 105 95 92 97 86 89 99 115 106 103 98 106 108
152 139 231 264 272 250 265 287 278 228 194 171 138 114 125 173 199 226 245 212 184 183 168 160 150 162 145 128 107 97 92 91 93 74 66 65 67 79 100 108 109 111 110
120 141 158 292 258 271 295 310 299 230 247 159 141 114 180 195 221 254 242 223 208 210 191 167 180 158 145 123 102 96 83 73 75 73 60 61 63 71 80 97 106 103 100
137 99 130 189 285 290 299 312 319 242 257 192 162 174 242 245 275 289 269 265 245 236 202 196 191 183 135 115 113 105 84 68 67 63 61 71 78 85 70 82 84 73 93
131 110 120 137 259 348 354 336 287 253 306 246 199 247 304 320 326 344 319 293 260 225 180 196 199 165 170 119 122 114 94 79 75 73 92 102 120 120 114 109 88 65 61
100 117 112 153 176 316 376 353 369 339 368 308 323 316 310 333 371 368 325 309 280 252 181 171 170 159 149 136 114 118 99 77 77 99 117 134 170 161 155 128 89 73 64
67 82 87 104 111 193 274 444 505 517 499 456 375 336 324 373 371 391 360 351 300 244 171 153 152 155 136 136 128 100 111 77 80 93 147 176 188 172 139 109 116 100 91
28 46 63 91 128 158 248 389 444 400 436 396 407 451 390 370 389 400 417 379 317 267 218 190 173 149 136 110 109 118 116 97 84 89 110 135 158 166 114 113 118 141 146
116 100 80 75 90 170 275 304 397 419 411 527 544 507 446 431 427 430 440 396 348 310 257 228 211 163 138 107 94 91 103 117 117 121 108 130 158 133 119 132 142 157 161
83 95 122 130 145 146 235 294 315 406 521 543 538 536 498 486 477 459 457 388 356 325 285 244 242 167 162 135 105 98 89 91 94 121 124 117 121 109 130 131 150 159 119

GFSSE_con_3kmhel_021.txt.gz
Helicity
23 -10 52 40 42 49 69 55 60 72 93 112 111 125 137 125 112 105 97 77 59 54 47 44 24 15 14 24 33 42 38 32 53 74 79 77 75 74 73 70 56 32 36
44 26 43 32 33 40 65 52 58 72 80 96 106 114 116 87 75 66 58 52 39 29 27 41 51 53 47 29 20 19 20 36 51 58 56 57 55 64 65 65 80 63 58
74 45 45 35 25 30 40 37 54 68 78 96 113 111 86 59 45 40 32 24 21 13 10 19 24 24 22 15 13 20 33 42 39 34 34 32 38 56 58 60 57 47 51
74 72 55 42 32 33 28 25 38 56 64 65 60 66 55 43 30 20 19 19 16 8 2 3 10 12 14 20 25 28 36 30 29 31 27 27 31 59 58 49 40 37 21
90 90 70 51 31 36 32 31 30 37 31 49 82 67 46 29 25 22 17 13 11 8 5 2 4 10 16 20 23 26 28 23 28 23 31 23 23 42 48 40 31 25 15
109 114 80 57 34 36 32 39 34 45 66 78 84 63 44 25 17 13 10 2 -5 -9 -9 -9 -5 0 5 12 16 19 16 20 16 23 29 14 20 30 35 23 31 25 13
141 126 87 62 40 31 41 44 35 35 49 67 56 35 24 21 11 5 -3 -16 -25 -34 -34 -19 -14 -9 2 6 9 19 25 31 26 44 45 27 14 33 29 25 43 49 39
136 124 85 61 49 41 38 43 38 29 40 44 33 18 11 15 11 3 -8 -17 -27 -32 -15 -9 -9 7 8 14 15 23 28 38 45 58 56 40 29 47 43 45 49 56 74
106 117 94 60 46 50 51 56 56 37 32 34 27 15 20 16 16 9 1 -12 -19 -32 -14 -1 14 13 26 33 33 41 41 44 55 50 57 51 44 55 57 49 52 67 94
84 72 69 61 50 61 73 67 68 56 48 38 43 38 14 -4 15 23 15 -4 -8 -14 3 4 11 19 33 42 43 54 57 70 60 63 62 50 56 62 67 67 80 127 165
95 92 86 77 70 83 84 67 81 82 68 48 60 52 29 0 8 45 18 17 20 16 12 19 21 30 41 56 66 62 62 46 60 68 61 33 69 110 134 149 162 181 211
98 97 113 112 99 90 91 102 98 91 85 73 65 60 46 41 79 77 48 39 35 28 37 48 66 69 65 56 52 64 47 60 71 75 80 123 125 148 131 156 154 131 130
112 114 112 141 125 116 120 129 128 111 102 90 87 84 72 85 102 100 85 68 56 63 61 77 81 72 76 68 65 64 63 73 82 99 116 123 155 148 147 142 158 147 120
134 121 122 149 165 152 150 157 149 132 116 109 101 100 109 109 118 119 108 91 84 82 91 86 84 85 85 86 82 89 85 83 89 104 123 148 169 175 125 105 117 107 93
165 145 119 160 182 193 181 178 162 143 155 116 118 122 129 126 126 125 115 113 106 110 106 115 103 93 91 91 93 94 100 101 107 108 116 152 148 139 118 104 102 99 93
185 144 175 178 187 208 192 195 187 156 113 129 133 145 138 138 138 135 137 125 119 120 125 120 106 102 104 101 120 116 105 97 104 107 102 114 134 122 108 96 102 102 98
193 185 168 174 198 216 213 212 189 190 127 146 148 157 163 148 139 156 157 143 125 141 148 146 141 125 123 119 132 128 115 104 100 98 95 101 110 118 111 117 110 112 113
214 227 215 225 209 214 232 252 215 202 179 170 135 158 176 165 168 190 190 160 162 164 145 143 135 138 132 128 125 128 115 94 92 86 80 77 84 90 104 114 115 115 116
161 171 188 190 231 238 265 258 236 241 229 197 154 163 195 176 196 192 181 179 200 179 153 142 141 128 126 131 136 133 116 98 80 73 69 65 70 85 90 103 113 119 121
135 129 146 157 177 263 309 276 235 259 258 218 188 212 210 191 214 213 221 237 225 212 186 175 159 169 140 135 153 155 133 109 86 70 64 77 98 114 114 107 101 98 124
119 180 166 188 143 241 323 324 272 251 284 210 207 270 232 222 244 227 256 263 235 217 204 195 198 173 169 141 163 154 149 122 103 92 95 114 136 143 141 121 105 96 87
150 189 169 193 166 220 294 331 405 308 276 259 255 290 288 257 284 309 303 260 241 252 242 210 178 180 169 133 147 160 132 107 109 116 125 142 164 172 164 147 144 117 97
79 96 124 150 166 175 196 320 443 505 489 436 342 317 295 278 325 343 307 298 284 280 252 214 179 166 175 152 120 135 146 104 118 121 145 162 185 182 162 154 146 137 134
81 95 91 105 126 162 184 302 377 447 441 389 360 351 363 317 349 358 347 323 323 302 257 247 182 172 189 178 169 151 147 127 118 110 126 138 159 164 160 155 147 171 198
113 118 107 90 69 78 151 231 272 303 332 455 506 457 391 403 329 365 381 372 374 339 275 271 247 188 181 199 184 164 154 154 149 146 132 119 131 145 153 172 185 208 228
80 79 79 94 127 118 127 176 220 230 339 437 521 503 465 430 403 404 394 399 425 406 329 288 280 231 232 247 203 196 156 126 115 134 144 128 127 147 172 170 219 211 211

GFSSE_con_3kmhel_024.txt.gz
Helicity
9 4 39 22 25 14 34 42 42 53 77 112 126 134 120 109 95 86 84 81 64 55 30 15 1 12 16 20 36 36 36 30 31 57 71 79 74 68 76 75 64 30 35
59 38 49 23 25 16 20 24 38 44 64 91 98 103 89 76 64 60 60 40 25 18 21 24 21 34 34 20 10 16 22 39 51 63 66 66 62 71 65 70 71 53 57
104 55 55 31 31 21 7 20 28 42 59 68 95 99 69 57 49 43 28 18 10 9 19 25 19 24 21 10 8 13 23 29 31 35 48 47 53 63 58 60 59 51 49
77 75 53 37 29 30 17 11 20 28 51 73 81 81 55 44 31 27 23 18 13 11 20 12 5 3 6 9 14 15 17 22 25 36 27 37 35 55 52 49 45 41 28
92 80 45 56 36 27 26 24 22 34 40 40 48 43 42 32 27 23 22 18 11 3 -1 -2 6 9 10 10 10 6 11 16 19 20 18 19 22 37 49 49 45 36 26
105 95 65 58 35 24 28 30 18 17 25 37 62 41 28 29 26 21 18 11 3 -5 -11 -10 -2 0 3 8 6 6 8 9 12 16 11 -2 13 22 40 35 46 45 23
109 106 89 56 34 32 19 41 26 25 36 72 61 47 22 24 27 20 10 -6 -14 -22 -19 -10 -3 4 6 5 5 9 16 16 17 27 24 9 5 32 39 43 54 62 75
104 110 81 58 39 29 36 46 38 26 27 46 45 32 35 23 15 15 10 -5 -14 -12 -4 -5 -1 8 10 13 13 15 24 36 35 36 28 17 15 33 39 42 53 64 85
104 109 85 62 47 42 49 48 49 42 24 10 24 28 21 24 19 13 4 -1 -15 -16 -11 -4 15 10 15 20 31 37 42 51 38 28 28 21 24 37 39 41 56 80 115
84 74 67 61 66 56 55 55 61 52 42 20 3 18 25 30 28 15 6 -3 -9 -1 17 17 23 27 25 32 42 48 56 57 39 35 29 18 33 54 59 83 128 139 172
80 74 73 72 73 66 63 68 71 67 57 40 26 34 34 19 15 36 22 9 8 22 21 23 33 41 46 54 53 57 58 39 43 45 40 9 73 99 117 133 164 195 189
51 50 72 77 77 70 74 79 86 95 85 71 64 56 41 21 25 58 48 43 39 40 38 46 63 67 58 45 40 57 44 49 57 63 68 96 121 127 141 142 145 136 130
50 71 78 90 101 97 103 96 93 100 99 93 84 74 65 61 69 93 80 68 69 73 73 82 75 65 60 51 53 57 59 65 68 81 90 130 119 148 129 128 135 138 131
101 92 106 120 119 115 131 125 109 105 101 111 106 110 109 103 108 116 107 99 92 85 94 89 85 83 79 71 67 71 73 74 77 88 116 152 158 155 111 99 114 111 98
103 120 137 151 153 148 156 149 140 123 115 94 116 135 145 138 130 135 130 126 107 103 101 99 98 94 87 81 77 83 86 89 94 96 118 158 142 128 106 97 97 91 84
147 143 175 160 179 183 180 172 163 145 117 122 130 130 137 153 160 157 162 150 131 111 112 110 99 101 94 82 96 95 90 90 97 103 105 116 121 107 101 101 97 92 91
122 128 191 176 188 203 197 210 201 174 155 133 133 135 144 165 163 164 170 164 144 141 143 144 135 120 108 101 118 110 101 93 92 104 98 102 112 109 105 100 99 104 93
157 143 137 178 186 203 219 245 233 215 187 155 156 148 150 185 177 178 190 169 163 168 172 162 135 133 120 109 114 120 108 93 93 101 88 85 88 101 110 107 101 98 106
131 173 168 177 210 217 224 235 236 230 215 195 194 162 156 182 175 188 187 185 205 198 182 169 147 124 123 132 135 133 114 95 88 90 91 90 90 99 103 111 114 115 106
154 174 194 203 176 205 255 244 246 230 202 224 201 202 190 174 191 202 207 224 233 223 195 172 161 166 144 143 174 164 134 118 105 91 91 94 105 114 110 106 99 97 105
152 157 186 223 218 238 266 264 232 234 231 251 235 231 244 200 220 229 223 232 234 220 186 204 200 181 179 157 191 170 160 133 122 101 97 106 125 132 129 122 113 103 94
111 126 126 136 185 257 276 260 311 252 246 250 263 258 279 258 233 273 254 223 224 233 228 208 213 208 185 144 156 173 142 136 121 118 117 126 139 150 149 140 126 119 114
72 105 146 145 142 207 244 277 397 361 341 360 334 289 302 294 274 282 286 264 256 235 229 207 202 226 210 154 135 158 165 132 144 126 127 130 150 164 158 154 141 136 136
87 137 139 155 148 144 184 246 227 290 316 330 342 316 376 336 298 308 334 267 291 244 252 251 247 231 234 196 197 157 177 166 163 150 123 125 141 159 170 162 155 162 179
110 66 94 137 155 139 151 196 220 208 252 304 333 342 382 388 354 340 351 325 327 340 288 307 293 237 248 231 233 227 215 227 214 192 157 118 127 131 152 171 164 190 220
121 123 102 59 67 93 133 156 192 196 222 307 347 347 397 419 412 352 350 372 377 321 338 345 334 291 274 266 254 238 259 247 200 209 201 164 146 149 158 176 181 212 251

GFSSE_con_3kmhel_027.txt.gz
Helicity
26 17 12 21 8 6 6 14 21 43 40 75 102 96 86 81 76 79 78 58 24 1 4 -10 -0 12 17 22 25 32 23 27 42 61 74 73 60 59 63 72 56 36 30
51 32 42 25 12 -3 -13 1 17 34 67 89 102 105 75 65 56 56 50 34 10 -13 -1 -0 28 25 20 -2 -0 10 22 30 45 57 58 59 58 57 61 66 52 48 53
67 46 39 34 17 13 -6 -2 10 20 57 67 79 78 57 46 44 41 26 14 10 20 41 44 57 24 9 9 6 11 17 25 30 37 47 48 52 56 56 52 46 37 35
83 58 47 39 27 13 -5 -17 2 13 39 45 69 61 41 28 27 21 14 15 24 36 30 34 11 9 10 11 11 15 20 27 30 25 31 38 43 51 46 37 33 26 28
70 58 50 39 22 13 10 -6 4 8 43 54 33 17 16 11 15 13 10 2 1 1 7 4 1 7 7 5 7 11 14 19 20 17 24 28 28 32 34 37 38 33 27
63 64 44 52 42 16 18 14 17 14 20 33 32 24 2 1 9 8 5 -0 -11 -12 -9 -9 -6 1 1 -0 2 4 8 10 12 15 12 16 16 20 27 39 51 41 39
61 62 67 68 36 23 22 28 25 14 4 46 42 35 18 5 5 3 -2 -7 -9 -9 -6 -4 -0 5 1 -0 2 6 13 19 17 19 18 14 9 20 38 44 56 57 85
61 58 72 64 37 29 20 28 24 4 22 42 40 33 24 20 9 -3 -8 -13 -19 -6 -5 -8 11 10 6 7 12 18 28 27 21 23 16 11 6 23 33 45 62 84 112
64 62 57 46 41 22 47 38 34 39 57 55 36 33 35 29 24 11 -0 -8 -13 -4 -6 16 12 15 15 20 27 32 39 38 27 20 18 18 15 24 33 50 71 128 137
57 56 48 41 43 35 34 48 44 45 55 50 44 42 43 42 34 28 12 -2 -6 12 29 16 24 27 27 31 35 45 47 40 32 28 23 19 9 53 94 108 131 151 178
51 37 47 51 47 46 39 34 48 51 50 61 53 35 44 35 35 42 34 26 29 40 36 31 34 44 48 50 47 45 38 31 36 35 28 4 73 107 124 140 171 160 113
44 31 45 50 47 51 46 39 44 53 53 56 69 74 63 49 42 47 51 52 63 67 59 65 56 53 40 29 31 41 40 46 52 59 62 88 111 128 121 130 123 118 113
27 44 34 42 45 52 49 59 60 66 72 71 73 80 81 70 56 62 69 70 75 91 87 76 63 55 49 40 39 41 48 55 61 68 82 98 97 121 141 122 103 104 99
46 58 49 50 57 68 81 75 70 74 68 76 79 80 96 93 84 80 90 97 96 93 95 87 81 75 68 61 55 52 57 61 67 80 99 149 141 135 102 90 88 92 91
53 48 65 77 80 90 83 93 85 78 70 66 82 81 91 96 97 103 120 121 116 111 103 110 101 91 81 71 67 64 67 81 88 92 92 145 133 104 85 80 75 78 73
78 71 85 102 109 115 115 119 112 105 86 79 78 83 86 97 99 107 125 128 127 120 117 114 112 110 101 80 77 74 80 90 93 99 99 103 113 92 77 69 74 77 69
80 80 110 123 128 123 141 148 144 138 125 103 92 80 96 97 101 111 124 133 133 138 136 148 147 130 122 105 92 86 91 103 103 105 108 106 109 102 101 78 83 68 67
133 123 98 104 126 140 138 160 182 158 155 120 124 111 101 102 110 124 143 139 144 160 160 158 159 153 130 106 104 102 103 108 110 106 107 108 110 108 104 95 83 82 83
126 128 126 112 117 131 135 162 195 175 170 174 165 145 119 120 122 140 152 145 164 177 171 174 179 151 125 117 122 128 129 120 112 109 109 110 102 99 94 103 100 100 91
137 144 140 169 149 155 178 174 197 178 155 176 186 173 157 154 153 157 147 151 194 195 189 183 172 171 140 131 151 160 152 134 119 114 105 100 97 95 93 90 84 85 95
135 139 136 161 174 210 233 255 236 226 193 186 181 154 171 181 183 181 176 161 212 214 187 177 216 184 186 165 189 171 163 148 134 123 111 105 101 102 104 102 92 86 80
144 152 159 154 147 194 259 264 276 236 214 202 202 181 170 187 225 230 218 200 215 235 201 210 240 237 209 151 173 183 143 136 130 135 127 116 116 126 123 120 110 97 98
153 137 121 124 137 144 166 245 321 319 286 256 269 212 213 236 252 254 284 274 239 255 231 218 237 255 260 169 168 183 169 130 168 157 140 135 135 141 145 137 124 119 110
256 178 115 115 166 161 152 172 208 248 249 267 260 234 241 254 284 277 294 315 254 269 224 223 251 259 318 255 209 158 178 170 157 150 155 154 146 144 152 155 144 138 134
178 171 153 106 112 154 149 169 196 172 172 196 230 216 234 257 266 291 316 361 332 300 268 220 261 276 291 319 305 273 221 202 187 207 192 182 168 154 162 160 150 148 149
165 160 146 159 145 121 134 128 139 171 170 203 207 200 232 281 308 308 330 368 350 318 311 303 237 252 304 296 309 308 314 283 244 247 236 206 173 175 175 172 169 159 164

GFSSE_con_3kmhel_030.txt.gz
Helicity
49 47 30 4 0 -2 -13 -3 12 13 23 56 72 79 82 73 67 65 45 23 9 -1 -17 -2 13 15 21 22 12 13 31 35 41 52 54 54 45 31 39 36 5 44 32
57 55 40 16 -4 1 -2 -19 5 6 43 71 84 77 66 50 47 46 22 9 -5 -13 -21 17 32 27 11 7 8 3 -4 6 22 29 8 4 39 45 49 49 59 56 47
82 65 35 26 1 2 -6 -16 0 22 55 53 67 59 58 31 27 22 5 9 23 27 54 56 38 22 11 13 12 12 14 14 21 23 4 34 42 43 45 48 45 38 37
76 53 30 44 18 7 -8 -27 1 26 26 34 38 31 25 20 17 10 8 19 32 42 45 44 28 14 18 21 21 24 24 24 20 1 26 38 36 41 38 38 36 29 22
61 43 58 44 29 13 -12 -19 3 22 29 54 38 18 9 5 3 4 17 16 23 20 20 15 5 14 14 14 12 12 13 15 5 -7 26 29 25 39 40 41 37 27 16
53 48 72 47 33 10 -11 -8 4 30 40 46 35 24 8 2 -7 -8 -16 -15 -15 -10 -6 -2 7 8 5 2 1 2 2 4 -21 15 20 23 34 43 43 63 70 54 47
48 62 50 55 46 25 3 9 -1 34 40 35 26 21 11 5 -4 -7 -15 -20 -21 -16 -7 -1 4 2 1 1 2 4 6 -5 -2 15 23 27 42 45 50 51 55 76 93
50 50 64 64 52 27 13 10 15 21 43 49 32 36 33 27 15 3 -8 -18 -19 -12 -13 -5 2 0 -2 0 7 16 16 -4 5 23 25 28 37 29 37 53 63 104 129
51 51 48 45 47 35 14 8 0 2 42 72 45 39 42 42 32 19 1 -10 -4 -6 -12 16 8 7 10 11 12 20 21 1 12 26 22 17 32 16 36 50 92 133 137
36 43 43 46 42 35 31 25 32 30 66 73 67 56 57 52 42 35 18 8 1 5 40 29 30 28 29 29 29 26 22 -3 23 20 20 33 18 71 74 97 122 144 130
26 30 42 48 48 38 36 40 37 44 47 53 63 73 73 40 40 51 48 43 43 60 50 48 48 47 47 46 40 28 -7 16 20 23 23 30 76 96 120 147 146 128 110
20 29 39 41 49 51 50 40 22 33 34 33 39 59 41 52 46 43 62 60 71 73 67 69 61 50 10 28 35 17 21 31 33 38 69 87 121 121 118 124 123 108 89
34 37 37 33 37 48 51 46 35 35 43 47 39 50 37 56 73 65 63 63 62 53 61 59 58 43 47 43 41 38 40 38 47 53 99 84 110 123 106 96 92 85 76
52 43 40 40 40 33 46 43 47 52 58 64 54 44 58 64 65 73 71 68 68 65 65 63 66 69 67 57 54 52 47 49 54 58 100 138 162 115 95 85 85 78 70
75 49 41 45 53 49 44 60 56 57 59 56 58 50 57 65 65 63 68 85 85 78 81 81 78 81 76 74 66 60 56 60 67 77 106 147 134 103 88 79 72 61 57
82 65 54 50 60 68 57 59 61 70 62 59 60 60 55 67 74 66 87 96 100 87 93 95 91 93 96 83 79 72 67 72 81 88 94 104 128 101 86 68 63 60 50
108 98 69 65 64 65 80 70 79 88 91 75 75 65 58 54 65 75 83 105 124 98 98 114 123 116 117 102 92 82 73 76 87 96 91 86 89 106 91 75 75 59 59
110 107 99 83 76 87 111 117 128 99 91 89 87 79 65 67 64 83 93 116 103 119 134 137 139 137 128 113 105 98 90 91 99 109 99 91 77 81 99 94 80 78 72
108 111 97 95 87 88 87 141 165 114 93 82 90 98 91 83 77 90 99 98 100 140 157 156 148 145 143 130 117 107 104 103 110 124 113 105 91 80 83 112 113 102 86
110 117 137 135 118 104 109 133 175 168 134 110 115 111 103 117 113 112 121 115 116 156 180 174 159 167 157 145 134 117 120 119 125 123 117 112 94 89 82 82 87 95 102
159 144 150 162 147 151 178 186 196 206 202 191 162 125 126 109 112 131 173 143 148 173 176 160 175 192 206 167 168 148 137 137 130 133 126 114 110 100 94 91 90 85 88
151 166 168 164 166 180 184 199 222 222 219 207 182 161 137 118 124 161 171 169 167 173 181 187 234 229 208 185 173 168 158 148 141 130 132 123 111 116 107 104 104 106 103
214 192 160 146 137 150 161 185 209 220 232 238 241 200 171 139 143 177 183 214 220 218 237 247 244 227 236 187 194 225 199 154 162 154 139 140 130 129 123 127 124 126 125
228 209 217 192 152 126 135 177 164 179 177 190 191 189 188 171 166 186 195 194 227 282 267 277 279 237 262 271 248 215 244 235 166 158 147 148 148 137 140 148 145 145 141
163 149 145 152 141 114 117 200 219 172 133 107 113 109 107 135 192 197 234 219 250 281 238 260 290 242 264 266 333 311 226 215 219 222 183 158 151 152 152 153 160 168 163
147 148 148 144 138 129 97 101 151 159 148 151 138 129 118 126 143 154 183 220 245 263 281 307 304 262 275 260 254 320 337 326 263 262 265 235 163 162 201 190 186 178 168

GFSSE_con_3kmhel_033.txt.gz
Helicity
59 71 38 19 -6 -16 -22 -4 1 6 16 34 66 75 80 61 45 32 19 13 1 -7 -2 -1 16 29 22 22 22 16 25 43 43 41 44 40 26 29 40 43 23 49 36
82 77 43 19 10 -7 -22 -8 -8 -8 13 55 56 63 56 46 29 18 7 -5 -23 -17 4 22 24 13 11 11 7 2 4 14 9 -12 -29 -13 31 38 48 54 89 47 46
81 89 47 37 16 13 -8 -35 -4 2 38 53 58 74 56 34 23 12 4 7 14 22 29 49 28 16 13 13 14 13 13 12 -6 -28 -44 17 34 44 45 42 37 37 46
105 63 55 56 28 16 1 -18 -3 20 35 47 43 37 28 23 15 11 14 32 43 55 59 40 24 21 18 18 18 19 19 12 -5 -1 19 30 34 42 43 43 35 25 22
96 52 77 60 41 15 -2 -17 -8 15 24 34 30 27 16 14 11 20 31 42 43 35 29 25 19 17 19 17 15 17 16 7 -14 4 34 36 36 36 38 46 25 33 33
77 78 86 73 66 42 10 -25 -1 8 23 39 22 13 13 9 9 15 7 15 15 13 15 12 13 15 10 8 6 5 3 -20 -34 17 20 23 51 35 46 58 77 81 88
75 100 57 71 56 34 19 4 0 24 41 33 17 14 13 10 6 -1 -5 -5 -5 -1 7 13 14 11 8 8 8 5 -4 -21 -19 16 31 36 45 41 43 55 69 91 118
65 75 88 78 77 53 38 16 18 28 34 43 17 10 17 18 12 4 -1 -7 -5 -3 -3 8 3 3 4 6 13 15 3 -24 6 29 30 41 36 38 48 59 81 112 112
46 56 63 55 69 69 46 24 13 32 49 58 44 14 19 28 27 24 15 4 -1 0 2 14 8 9 10 11 14 15 7 -12 14 35 25 38 37 28 48 60 104 115 101
48 42 49 57 55 55 54 43 15 5 54 69 56 53 54 41 34 35 28 26 21 14 37 30 20 23 25 26 23 15 1 -11 28 23 29 47 67 59 68 97 114 115 101
47 25 43 56 57 47 51 56 42 39 61 63 65 63 56 29 38 56 54 71 23 59 47 42 37 36 35 32 25 12 -8 15 26 29 57 63 91 120 137 157 147 128 103
43 29 42 47 59 62 66 68 29 44 43 42 43 50 26 28 42 46 87 88 85 81 65 59 51 40 13 32 33 14 8 27 29 37 108 102 104 116 125 124 122 109 87
44 45 34 40 52 61 68 62 38 37 28 29 48 40 26 50 79 61 73 81 76 67 59 62 57 37 37 46 46 33 43 35 41 55 126 118 120 112 101 94 85 77 68
59 55 63 50 55 55 57 52 45 41 40 43 43 51 58 105 106 59 74 58 55 80 62 65 59 69 70 60 55 52 51 46 45 66 127 153 163 113 88 84 85 79 73
91 80 68 58 50 58 48 59 50 56 62 48 55 59 67 110 117 89 66 82 74 81 75 78 75 87 80 85 78 65 60 57 58 78 147 164 166 117 90 82 76 66 63
97 99 80 79 59 54 49 56 65 64 68 63 64 64 48 89 96 87 119 115 105 83 79 88 87 98 101 106 98 84 78 79 77 84 142 140 142 114 96 79 70 63 56
85 71 65 84 81 58 56 51 76 67 84 82 75 73 69 76 95 105 105 139 120 137 102 93 98 123 129 120 119 111 101 90 92 92 130 131 125 132 94 82 86 71 72
154 149 126 129 85 82 68 77 68 89 101 87 90 101 86 76 84 101 97 170 154 135 132 124 131 144 148 144 149 144 126 118 95 97 118 141 104 103 128 110 88 90 88
98 103 112 115 112 90 81 104 120 110 118 77 95 112 99 88 82 98 122 181 198 157 141 176 159 159 180 183 170 159 141 133 120 119 124 129 131 125 106 144 135 124 104
131 138 134 131 103 110 98 121 169 157 138 130 119 99 96 120 122 134 136 135 152 148 154 182 182 198 206 195 185 185 170 147 135 138 127 148 152 139 151 126 124 117 116
142 136 122 137 138 149 145 172 160 180 158 151 153 148 150 149 149 158 186 159 178 219 190 172 174 215 255 255 248 223 194 154 146 151 144 170 164 152 150 141 111 126 113
134 137 134 131 122 152 183 214 222 190 170 199 193 193 214 206 184 195 204 200 215 251 221 204 201 272 288 304 321 240 210 165 158 163 170 182 168 168 162 149 131 142 156
160 159 168 165 169 171 176 205 221 256 253 201 219 243 207 186 178 174 210 209 198 240 266 255 260 294 344 309 269 338 258 229 193 178 194 196 183 189 189 180 171 163 168
181 183 175 164 148 140 127 142 152 187 205 225 189 152 121 104 135 155 188 238 215 224 292 282 320 347 340 354 299 237 326 331 231 197 173 185 190 187 192 200 186 191 189
170 159 152 149 143 139 125 109 117 144 199 202 183 137 132 146 129 122 144 198 250 244 274 280 302 371 393 402 381 387 299 307 311 301 246 201 177 178 205 191 211 214 209
138 135 130 132 134 129 119 112 94 101 137 177 166 160 157 151 160 149 146 179 222 259 291 314 317 326 352 371 356 375 396 403 368 366 338 264 231 201 209 242 267 248 238

GFSSE_con_3kmhel_036.txt.gz
Helicity
55 47 49 27 17 10 3 5 8 13 26 43 55 61 50 41 38 29 20 6 3 1 8 18 34 17 10 19 26 39 46 52 43 29 34 34 32 44 50 104 30 40 47
94 56 39 33 18 -0 -11 -12 -11 -7 14 33 45 54 41 46 32 17 5 -10 -0 7 20 27 16 18 17 16 9 6 9 6 -5 -25 -27 12 31 43 49 63 54 31 43
73 87 42 43 25 -2 7 -18 -17 -16 30 47 62 53 38 34 19 12 15 17 20 28 46 34 23 22 21 21 22 23 22 8 6 -13 -32 -13 12 38 47 46 39 38 36
86 74 73 68 54 35 -2 -3 -15 10 28 44 42 35 20 17 12 17 40 51 60 63 46 30 21 20 21 23 23 23 14 2 22 26 13 -1 38 45 45 37 30 29 30
81 79 102 79 77 56 24 17 9 9 22 25 21 8 7 6 17 30 53 48 42 38 38 28 24 21 20 19 19 18 5 -0 12 29 46 61 16 32 45 53 33 38 54
50 195 116 100 84 55 49 26 12 8 25 26 8 3 3 2 14 14 20 24 23 19 22 24 23 17 13 11 9 4 -13 -13 -7 -3 19 47 39 37 48 69 81 93 108
193 147 118 90 68 59 63 54 32 20 36 39 10 9 9 9 8 -0 1 3 8 16 19 17 15 14 10 8 6 -2 -18 -13 -12 41 49 39 28 40 50 68 87 111 110
100 67 95 96 70 70 66 58 38 55 34 42 25 17 12 16 10 10 5 3 7 11 14 7 4 5 3 5 5 -3 -22 -12 3 36 34 36 31 44 63 80 112 113 108
77 77 81 83 89 82 77 67 51 46 44 52 37 37 35 25 20 25 20 17 17 15 28 15 9 9 9 9 6 -3 -15 8 28 27 58 23 33 47 68 110 114 103 87
57 48 40 66 73 61 58 52 70 47 67 58 45 51 58 48 35 31 29 20 30 29 42 34 28 24 24 21 14 2 -7 1 10 22 47 43 68 63 83 110 106 87 83
88 68 28 70 47 46 66 61 57 53 70 68 59 56 57 38 33 50 34 60 35 55 57 52 48 43 41 33 23 4 -5 10 23 51 63 82 111 125 137 143 144 115 107
93 44 63 71 39 40 69 90 63 58 83 67 62 54 27 13 42 48 83 77 77 79 73 66 60 53 41 42 37 20 34 24 43 99 92 109 127 130 136 133 123 99 95
46 77 113 91 66 54 119 79 54 78 65 59 56 72 11 12 79 142 107 91 95 78 74 81 63 48 36 53 63 57 67 62 56 129 118 144 119 121 112 111 103 88 79
52 38 49 108 98 90 103 80 41 70 58 63 69 77 36 39 162 110 119 88 88 82 63 76 73 46 59 78 74 72 88 68 92 161 133 143 159 128 104 95 90 86 87
101 69 69 41 85 89 94 87 77 77 108 52 57 99 70 106 159 154 138 127 90 123 74 94 86 90 97 76 87 92 94 83 100 184 172 194 183 136 104 91 82 82 86
89 117 104 83 37 70 97 77 92 97 117 95 76 80 91 151 169 174 134 147 132 156 112 130 121 124 112 117 108 101 106 108 119 176 185 175 182 152 122 100 88 81 75
92 109 115 111 104 71 60 78 117 74 99 121 100 95 99 65 170 154 137 151 173 167 136 141 155 155 168 169 138 139 139 124 145 197 184 166 169 161 137 115 109 85 73
138 155 119 111 111 106 93 108 78 109 91 122 129 132 128 127 131 174 210 206 210 190 185 176 203 204 202 203 188 170 181 170 160 161 209 178 150 169 167 142 125 100 95
139 163 189 190 140 95 98 76 134 115 147 145 132 136 141 183 168 177 174 211 230 251 234 179 199 269 235 209 187 199 214 203 174 178 200 202 144 175 189 215 159 153 113
185 136 150 167 137 159 162 138 179 175 101 161 184 188 148 189 203 225 204 211 294 277 256 207 225 276 247 209 217 242 233 215 187 197 207 203 218 205 215 232 223 196 142
265 262 254 256 235 236 179 207 277 235 181 161 130 129 187 186 227 234 247 233 337 306 273 231 265 278 246 272 317 305 284 212 204 197 216 204 224 231 251 225 200 191 162
162 196 204 167 167 163 179 194 201 217 219 194 182 150 141 233 238 293 253 262 266 339 304 275 320 360 304 345 376 367 269 259 212 223 227 219 237 241 266 235 190 192 176
162 171 174 181 202 203 217 227 220 216 272 269 229 174 146 149 190 266 273 285 277 252 335 338 362 381 358 348 389 339 273 269 249 232 229 238 262 286 269 265 220 205 213
108 140 162 165 156 147 149 165 159 159 160 194 237 186 155 139 122 120 167 247 292 269 269 333 403 428 468 391 413 283 353 332 281 233 208 206 247 268 279 285 262 241 246
134 147 147 147 151 143 108 119 126 125 127 133 162 189 200 162 134 150 124 124 231 272 253 279 380 393 465 469 461 467 373 397 373 357 285 250 238 256 289 298 270 273 270
123 126 121 123 126 136 131 99 88 95 103 110 110 143 172 184 203 198 157 151 124 156 208 277 294 362 416 452 450 431 429 438 421 421 365 372 291 254 301 309 287 270 286

GFSSE_con_3kmhel_039.txt.gz
Helicity
25 26 39 36 22 24 23 30 36 37 42 50 44 43 40 34 31 28 18 17 19 20 24 42 27 20 26 29 43 57 67 58 54 37 36 49 59 63 75 39 33 21 45
47 25 37 38 24 19 19 23 19 23 23 30 28 38 36 31 19 10 3 15 8 24 25 17 19 27 28 28 32 36 47 56 40 32 29 41 48 44 38 36 26 26 37
62 39 31 37 29 24 22 10 -0 9 22 27 49 36 25 18 6 5 9 26 28 44 32 22 25 24 20 16 22 36 48 44 33 30 39 4 15 38 33 27 31 34 36
86 50 28 50 55 49 33 5 -22 2 43 39 32 23 22 6 6 26 44 50 57 50 31 30 27 20 17 17 14 18 36 43 23 -23 -29 -4 14 30 31 28 29 27 32
90 78 37 66 83 57 35 10 -5 15 25 31 28 17 6 8 11 40 50 55 50 37 29 27 21 16 12 9 4 -3 11 16 24 24 57 9 10 28 46 38 41 48 66
110 121 96 97 95 87 54 31 24 22 18 11 11 12 11 17 18 24 29 30 31 30 28 22 14 10 6 -0 -8 -15 -1 11 7 10 24 32 29 36 59 70 86 98 109
120 139 124 88 91 90 76 41 51 45 36 13 9 15 10 18 15 13 13 13 16 21 21 15 10 7 4 -5 -14 -15 -2 12 20 26 23 25 22 44 58 84 104 105 119
139 133 114 86 69 88 97 75 66 67 50 27 10 18 20 17 11 13 13 16 18 17 13 10 10 10 7 3 -4 -10 4 6 16 34 30 26 26 52 66 103 111 103 96
95 103 110 89 75 90 102 76 85 67 60 54 27 31 31 30 30 23 19 19 18 19 13 8 7 11 16 12 6 6 21 26 32 28 25 18 23 51 85 106 102 85 86
34 51 89 98 90 82 80 90 67 95 82 70 48 53 51 39 36 43 36 30 32 40 28 20 19 20 20 15 8 8 19 17 45 57 30 38 57 63 91 104 96 81 84
50 26 33 48 61 64 69 81 84 91 83 77 65 56 55 37 41 45 42 51 52 67 53 49 43 41 38 32 23 20 29 26 50 62 50 79 101 116 127 137 131 95 86
44 28 30 21 19 44 56 81 69 83 83 85 70 60 51 42 42 49 58 65 52 76 71 65 62 57 57 50 47 43 40 44 75 85 71 108 134 147 142 138 130 98 85
91 119 89 20 11 52 61 58 76 83 75 79 82 64 48 46 50 74 91 96 107 96 83 80 69 55 53 61 65 71 65 81 98 101 105 125 119 132 134 130 119 99 90
72 70 104 97 23 97 89 67 66 92 76 69 80 66 55 53 87 101 105 110 124 120 106 87 79 61 55 62 76 92 82 109 131 134 127 146 143 135 121 112 107 102 97
58 54 66 104 107 101 132 83 76 74 82 68 82 66 55 69 120 133 116 125 111 110 112 97 87 83 79 80 91 102 100 107 147 158 157 168 168 152 132 116 104 102 96
69 71 20 55 80 117 127 101 83 75 77 84 98 95 78 83 121 141 155 148 129 134 91 101 109 109 107 119 105 104 111 113 146 170 189 180 175 157 133 123 112 107 97
88 83 75 31 60 118 114 105 91 99 125 110 98 122 122 125 130 150 167 189 170 162 130 120 120 143 146 144 132 128 128 133 175 173 186 195 174 152 136 123 119 107 101
111 130 104 104 90 77 119 100 104 105 120 123 132 112 107 148 178 195 190 190 191 175 161 174 192 188 168 171 171 140 139 147 181 183 198 208 185 168 138 129 129 116 105
112 89 110 132 119 90 79 91 95 107 119 96 131 153 125 136 174 218 212 202 224 221 214 209 203 236 252 235 202 183 164 174 171 240 224 217 193 183 168 140 188 137 134
246 271 213 146 133 117 114 67 76 98 121 148 149 129 133 157 165 213 228 259 265 264 237 284 289 266 249 288 245 204 188 190 204 221 261 242 229 205 192 203 228 204 173
277 296 281 255 253 204 210 178 155 132 146 143 149 145 167 173 150 208 253 279 313 303 274 286 341 277 262 323 319 270 246 209 210 210 237 283 270 244 237 242 252 247 211
206 216 216 212 206 211 225 231 227 216 206 206 169 157 173 192 192 230 217 269 277 335 326 339 369 349 318 360 368 352 292 274 244 229 261 282 317 328 282 259 256 238 222
195 152 152 167 165 145 149 175 221 256 246 228 209 176 132 124 132 166 218 228 254 309 320 321 349 367 374 446 417 382 293 259 225 230 237 281 305 359 354 298 256 233 224
107 156 181 197 207 194 153 118 109 123 145 142 139 147 129 122 98 88 147 187 238 249 276 312 299 359 424 391 494 403 422 328 243 204 207 220 269 275 319 338 291 265 249
136 156 172 187 186 183 182 157 149 138 117 108 110 129 106 119 131 126 118 146 171 184 191 237 322 354 392 393 453 479 459 446 368 325 240 246 265 265 291 282 295 310 311
137 146 145 157 157 170 159 165 170 151 138 136 124 118 121 136 131 127 168 172 142 144 129 168 181 220 275 327 445 457 477 430 362 374 337 284 274 302 322 347 308 358 385

GFSSE_con_3kmhel_042.txt.gz
Helicity
10 9 14 23 15 12 32 46 56 61 69 69 70 60 53 46 36 27 27 36 30 34 46 34 28 33 41 54 69 82 96 93 70 53 46 55 61 59 41 33 37 25 39
31 9 18 23 21 3 6 23 43 55 57 60 58 48 39 32 19 7 20 12 30 21 16 14 19 21 27 38 53 66 77 76 70 53 41 48 41 37 37 31 26 26 32
55 20 15 38 22 16 11 6 23 40 44 57 46 36 25 15 4 12 26 22 38 27 19 21 17 13 14 28 42 52 59 48 46 42 31 14 24 35 29 22 22 19 22
62 37 19 31 27 27 15 9 3 10 46 42 33 28 14 5 2 29 35 41 46 29 23 22 13 8 9 16 36 44 38 15 -11 -9 -0 6 9 18 23 18 16 22 15
69 53 44 41 18 20 15 18 18 16 6 5 20 14 6 12 25 54 54 51 37 27 22 17 9 4 2 6 16 23 24 7 8 13 -1 1 3 16 33 22 21 49 85
80 61 62 77 67 29 25 29 40 45 -0 -21 -1 13 15 31 44 44 37 29 24 19 18 12 5 -1 -7 -6 3 13 14 35 27 20 12 20 13 41 51 63 79 99 99
105 82 77 99 86 72 53 72 75 65 45 -13 -24 1 28 34 36 39 34 28 24 18 12 8 1 -8 -12 -13 -7 5 12 20 29 16 19 20 12 38 65 92 88 109 121
102 129 114 102 99 101 76 90 75 86 55 22 1 5 17 28 23 20 22 27 27 23 17 10 7 3 -3 -8 -4 5 7 37 26 23 23 18 18 41 75 93 100 98 90
110 102 108 111 88 104 98 81 88 96 70 51 31 25 26 23 33 27 18 18 17 17 12 11 11 9 2 -1 8 17 29 62 40 31 29 26 21 42 84 101 91 81 82
107 111 119 107 84 85 89 65 84 102 83 72 51 59 47 35 34 43 29 28 21 30 20 19 16 15 10 8 17 34 40 68 55 46 29 27 35 61 89 93 87 81 76
79 69 93 81 71 69 87 74 80 98 84 78 78 63 53 29 35 45 32 26 24 52 35 32 30 29 28 24 27 33 48 57 66 59 39 45 43 93 113 125 117 91 78
33 18 32 46 47 54 62 83 95 88 92 85 72 64 60 49 39 43 49 50 56 65 61 51 45 44 52 45 43 32 54 59 72 70 66 91 106 135 122 120 124 97 83
28 28 -5 7 28 51 59 62 83 80 85 78 77 69 65 59 47 48 49 59 59 75 72 71 69 69 64 67 68 63 62 73 81 75 79 98 121 151 120 130 144 113 90
78 31 13 8 23 13 55 53 61 90 87 83 64 64 78 76 59 49 58 67 81 96 93 91 86 80 76 75 70 71 75 91 89 97 87 103 98 109 117 107 109 107 92
90 77 65 56 53 21 49 57 64 86 93 81 77 63 81 76 75 75 61 82 96 106 102 102 96 91 89 87 99 95 85 103 105 119 111 109 128 123 113 106 99 89 84
56 67 78 77 94 125 84 66 72 86 79 92 84 59 78 95 99 104 100 93 95 116 105 101 96 99 101 115 109 107 100 118 114 129 128 129 142 138 120 114 96 92 91
47 39 59 103 120 145 122 93 86 82 92 100 90 96 85 103 117 132 151 138 138 138 128 123 97 97 102 111 110 116 129 123 133 139 148 160 157 151 130 104 105 96 94
96 68 59 80 114 138 147 144 123 95 100 85 108 117 114 123 147 164 175 178 198 198 178 178 164 146 121 170 155 126 136 147 142 153 171 179 181 180 141 108 115 103 100
74 99 110 97 89 94 112 125 119 108 128 115 124 130 142 152 155 170 174 180 244 218 215 214 204 223 206 189 213 180 164 165 166 178 186 194 193 190 180 133 136 133 110
160 147 126 105 109 115 121 108 97 105 98 125 130 136 134 129 157 195 204 201 239 238 227 263 247 263 245 235 235 217 207 176 185 199 220 220 225 220 203 176 177 198 158
258 283 263 219 207 157 161 150 133 106 97 100 127 139 143 172 168 173 183 191 247 269 246 257 275 272 268 298 324 255 253 207 194 227 247 254 257 251 242 217 223 251 224
244 225 228 247 237 213 187 181 191 174 144 123 115 127 131 144 151 167 170 192 215 250 254 264 305 306 279 360 356 362 293 250 252 256 309 302 288 315 288 276 262 261 256
219 225 219 224 211 192 199 219 225 232 231 214 187 152 130 123 132 152 155 173 184 211 240 256 281 307 235 275 348 338 287 246 240 210 210 284 301 327 315 330 305 280 257
170 180 185 186 206 230 228 210 197 177 177 176 168 163 140 123 120 127 136 153 179 203 203 235 240 239 291 240 287 277 371 370 295 243 225 183 221 246 288 328 315 303 264
178 171 171 189 213 216 207 195 170 164 137 137 140 133 124 114 105 109 127 121 163 208 188 174 195 219 260 223 324 299 305 427 446 321 248 278 235 205 228 260 294 311 303
167 173 199 205 202 186 166 166 166 168 162 152 146 140 137 114 112 102 106 127 129 164 151 161 138 170 194 199 214 239 305 293 243 367 329 280 151 125 177 238 280 335 354

GFSSE_con_3kmhel_045.txt.gz
Helicity
-73 -53 -5 -6 13 5 14 27 50 67 75 83 80 69 58 52 37 30 29 21 30 37 30 21 20 33 59 82 110 108 102 77 65 53 50 59 53 39 31 34 29 20 30
-1 -18 -3 3 4 -12 -10 -3 28 48 58 69 61 45 42 34 23 17 9 21 18 14 12 12 13 21 35 49 58 59 56 50 52 47 42 32 25 30 30 26 21 18 23
26 4 -18 11 7 6 -22 -9 12 34 53 67 50 38 31 18 14 20 19 32 23 14 10 2 -2 -0 15 32 45 45 43 49 43 31 22 7 7 25 20 16 11 13 13
49 20 -14 24 19 24 9 -6 -11 3 53 51 40 26 16 8 25 31 31 35 26 15 9 3 -1 2 13 33 42 24 15 1 -7 3 -2 1 -6 10 12 8 9 2 1
59 45 21 34 46 29 22 14 5 18 -5 11 26 16 6 7 39 31 50 40 20 13 8 2 -1 -2 6 14 18 5 -10 -12 2 2 -5 -7 -10 10 10 2 26 73 63
84 62 49 46 44 28 18 27 43 30 -5 -28 -14 -2 11 21 54 44 38 22 14 6 2 -5 -11 -11 -7 1 6 -0 -12 21 30 11 -2 -10 -1 31 44 67 74 83 94
101 71 69 56 48 36 24 37 50 42 26 -11 -29 -22 -0 24 31 15 16 8 2 -5 -10 -14 -18 -22 -18 -6 -5 -0 6 33 21 10 3 3 1 39 73 85 88 101 93
99 86 74 80 57 46 44 66 61 59 51 33 7 -4 -5 7 19 16 8 -2 -5 -6 -9 -14 -20 -23 -25 -16 -6 -8 3 43 22 11 3 1 -11 29 72 83 88 83 67
108 113 130 91 83 73 75 79 75 70 52 43 33 31 10 -5 17 26 30 25 15 3 -5 -12 -15 -15 -11 -9 4 14 21 34 34 23 19 20 -0 26 67 86 77 81 60
99 117 111 105 92 91 80 71 80 83 62 55 48 44 50 34 26 33 35 30 30 32 26 17 8 2 5 11 15 35 33 40 42 26 22 21 6 24 89 86 75 71 59
124 108 109 119 99 98 96 66 89 85 70 60 72 65 55 36 34 40 32 27 28 51 46 36 33 30 30 30 31 50 56 41 36 31 25 9 17 57 88 87 85 79 64
64 68 89 88 76 77 89 100 88 100 89 79 74 71 62 56 58 63 44 36 39 61 57 52 51 50 59 53 50 61 61 53 55 46 40 27 25 80 98 94 88 91 79
22 33 19 27 41 47 66 92 99 98 88 78 71 70 65 65 58 55 52 45 50 57 64 64 70 74 69 67 65 69 71 66 67 68 51 49 74 109 100 126 104 119 83
41 7 10 6 9 8 35 68 78 93 82 77 64 66 69 66 59 50 45 44 52 62 74 79 79 75 72 69 71 69 81 83 87 85 70 56 79 87 98 120 120 106 87
49 27 18 25 5 6 9 33 59 68 87 67 71 68 72 67 66 59 43 49 47 63 73 79 83 84 80 79 86 88 89 92 89 95 93 64 64 75 84 78 82 81 81
65 47 46 53 30 47 33 40 43 72 82 79 68 72 79 82 78 80 68 65 64 77 76 89 97 97 84 87 83 90 80 98 100 96 102 99 76 87 92 73 71 72 77
98 83 88 77 85 91 71 71 80 73 84 86 65 71 89 99 98 104 101 99 95 106 102 108 98 105 101 103 85 88 97 88 106 103 113 120 113 96 106 73 66 67 72
75 70 121 121 135 115 92 105 109 99 102 89 90 83 86 108 129 136 141 134 146 158 161 157 144 138 138 142 142 112 119 124 113 113 132 134 134 142 126 107 81 71 70
40 48 76 103 142 152 139 134 125 124 130 106 110 115 99 104 134 156 167 166 197 187 196 197 191 201 177 174 178 159 147 144 152 149 151 158 167 183 189 146 113 109 99
62 63 70 92 98 113 137 155 150 130 122 115 110 125 124 136 152 168 160 155 200 204 195 225 224 245 239 206 200 185 188 179 178 223 210 193 202 211 223 201 172 163 134
193 160 132 116 130 127 134 125 122 114 121 122 131 116 127 138 148 172 171 173 216 219 199 211 238 230 226 257 249 191 208 198 201 205 203 246 257 256 258 241 216 195 177
202 203 213 207 201 181 158 146 148 145 139 130 121 108 108 119 125 144 159 166 182 208 207 220 254 243 234 245 227 222 192 185 210 208 240 249 257 299 274 270 261 227 205
209 215 221 235 242 230 215 196 200 199 192 176 157 133 124 126 127 140 149 166 163 186 183 179 207 223 185 203 218 215 190 166 179 187 166 161 181 224 227 228 241 241 237
194 208 211 221 230 243 232 214 208 191 175 169 169 167 157 175 160 151 147 155 163 190 190 172 191 207 221 166 209 196 241 261 212 170 214 187 149 145 177 190 191 195 219
204 213 210 217 225 212 209 205 194 191 174 157 153 159 162 152 138 121 108 115 134 165 161 175 175 164 177 156 188 186 188 240 259 229 159 199 202 156 154 112 193 176 172
222 213 196 195 212 215 204 196 180 167 161 150 142 136 137 130 125 115 120 117 121 145 156 173 170 165 158 115 142 177 191 185 178 212 218 211 212 190 187 178 208 222 285

GFSSE_con_3kmhel_048.txt.gz
Helicity
-111 -85 -25 -18 -13 -2 14 28 45 55 54 54 56 51 47 35 31 21 17 23 23 18 14 8 3 26 52 72 90 83 84 65 52 41 41 48 33 28 28 22 13 6 7
-40 -65 -25 -27 -5 -12 -24 -4 13 32 31 41 34 33 28 16 15 1 13 13 11 6 5 5 6 16 25 36 46 50 38 30 26 26 22 12 10 19 17 15 12 7 26
18 -33 -40 -19 -12 -12 -28 -33 -21 10 26 28 26 28 18 11 11 9 17 13 4 -2 -9 -12 -8 -2 -0 12 20 22 22 21 22 12 6 -9 -8 11 11 7 1 1 10
18 -10 -33 -9 -8 -6 1 -14 -40 -32 9 16 17 13 8 11 16 15 19 8 -5 -11 -13 -17 -18 -10 -3 4 -0 -8 -13 -13 -4 -4 -14 -16 -21 5 9 6 1 -15 5
31 -4 -23 6 23 15 9 3 -11 -11 -45 -29 -7 -3 -3 8 7 14 18 8 -7 -10 -14 -19 -22 -16 -16 -23 -26 -35 -41 -24 -7 -17 -22 -25 -23 -3 -3 27 61 69 49
43 7 20 29 35 31 22 18 29 9 -38 -55 -40 -19 -24 9 16 15 8 -4 -12 -12 -13 -18 -17 -16 -21 -28 -33 -39 -21 -4 2 -18 -24 -28 -18 19 55 62 72 76 65
53 25 44 48 46 44 24 21 46 22 1 -20 -30 -29 -22 16 32 3 -9 -18 -18 -21 -23 -26 -24 -21 -19 -21 -30 -34 -4 5 -2 -11 -18 -21 -17 18 58 71 55 53 49
70 54 49 36 54 46 25 70 46 24 15 18 11 6 -6 -5 13 8 8 2 -6 -16 -24 -27 -24 -19 -17 -14 -9 -18 5 12 2 -3 -11 -15 -23 11 47 42 48 55 42
99 81 68 51 66 48 65 74 48 44 33 31 23 20 36 30 18 6 13 18 21 18 13 10 7 4 9 15 15 15 31 22 19 6 -4 -3 -20 5 40 48 46 51 34
104 91 87 97 82 70 65 76 59 54 48 48 44 40 44 32 17 29 19 18 34 31 29 28 26 28 35 40 50 44 40 39 33 19 14 10 -4 3 84 64 55 43 34
88 96 133 107 100 95 72 44 63 70 58 56 61 70 61 47 43 36 21 18 30 40 43 41 41 45 54 58 65 61 58 42 33 27 24 6 2 24 77 73 72 62 58
67 84 107 114 105 113 101 86 81 76 67 63 62 67 65 60 54 47 34 28 20 45 42 44 47 54 67 61 59 66 64 54 48 43 36 10 10 30 74 90 83 54 47
51 74 68 90 93 91 99 96 95 85 69 67 60 60 62 59 50 46 38 29 33 38 44 48 59 66 61 61 66 70 64 60 59 52 40 21 13 50 69 90 118 106 104
42 37 39 35 46 47 68 72 80 83 71 64 60 60 64 59 50 44 40 38 39 46 45 51 57 58 56 59 63 63 62 64 64 61 52 39 30 60 63 96 100 94 83
58 32 16 21 22 26 36 46 57 65 68 62 65 64 68 58 53 54 43 43 47 52 60 60 62 67 63 63 61 60 62 66 61 64 72 52 43 44 51 71 71 50 48
48 36 28 19 23 29 32 35 41 52 59 66 67 69 74 70 62 60 55 56 56 65 68 75 79 81 81 80 67 66 60 70 75 72 78 75 52 55 60 65 62 51 45
60 48 51 44 56 50 43 41 48 58 68 66 66 70 75 82 72 77 82 78 79 90 87 90 86 100 98 98 86 79 79 74 76 89 97 97 87 67 69 63 61 58 53
73 63 66 64 72 80 76 80 82 79 92 84 74 84 84 87 92 97 98 98 111 120 128 128 127 121 120 133 132 122 112 104 96 94 106 115 120 118 101 85 76 64 60
73 82 81 89 98 91 85 101 110 104 117 104 100 93 85 104 116 129 128 118 143 146 148 155 151 169 160 164 170 159 149 136 121 130 142 147 157 160 162 125 107 98 89
66 71 85 99 105 105 132 117 109 105 103 108 104 101 93 103 122 141 144 154 174 168 162 183 175 198 200 189 185 163 144 150 159 163 171 175 160 164 175 171 160 145 105
119 95 80 90 113 131 145 140 119 114 119 112 108 103 106 114 118 133 138 139 171 178 159 180 203 187 177 214 191 137 139 132 157 172 185 194 181 175 179 181 179 169 144
146 153 158 159 151 146 148 142 137 129 126 124 124 115 114 124 134 144 141 141 158 175 169 174 202 192 179 195 182 172 109 94 90 99 126 147 138 143 151 161 164 155 150
187 201 205 204 194 196 177 169 177 169 157 151 150 150 176 170 144 135 138 147 155 180 166 162 187 185 158 168 168 158 147 140 136 133 140 117 132 141 136 136 146 149 143
191 203 207 208 206 212 204 180 161 148 142 151 144 147 150 154 143 136 129 127 132 157 160 152 168 181 201 151 164 119 163 215 150 133 152 149 139 116 118 120 124 131 134
183 195 202 211 225 220 211 194 170 161 149 141 139 148 146 151 144 123 109 112 111 133 152 157 171 176 185 163 164 167 141 148 137 145 158 139 160 150 143 143 127 127 144
230 207 196 196 201 197 182 181 169 162 156 144 133 124 121 118 129 144 134 127 121 122 131 145 158 175 175 164 152 169 143 155 150 174 164 157 169 155 139 136 139 121 133

GFSSE_con_3kmhel_051.txt.gz
Helicity
-121 -77 -70 -47 -15 7 37 46 56 50 49 44 33 26 20 14 -6 4 9 5 -5 -11 -22 -15 26 33 43 64 62 49 34 20 22 28 25 10 14 20 14 5 -3 3 -0
-59 -62 -56 -57 -48 -31 -14 8 27 22 10 10 2 1 -7 -5 -4 -2 -1 -6 -13 -16 -17 -18 -8 5 17 21 19 10 8 10 13 10 2 -6 -7 7 7 1 -3 11 23
-9 -56 -55 -47 -47 -47 -50 -45 -34 -26 -6 -12 -22 -22 -25 -12 2 5 -4 -13 -17 -16 -16 -21 -21 -17 -4 -2 -4 -5 -5 -1 -4 -11 -18 -14 -8 -3 -2 -11 -14 -4 -0
-9 -45 -54 -37 -37 -42 -33 -52 -64 -48 -33 -41 -46 -41 -33 -15 -3 2 -5 -25 -27 -24 -25 -29 -31 -25 -22 -26 -28 -26 -24 -17 -19 -25 -26 -25 -19 -5 -9 14 6 3 9
3 -30 -39 -30 -25 -17 -13 -28 -53 -64 -76 -70 -61 -47 -27 -8 -4 4 -4 -23 -26 -25 -28 -34 -33 -31 -37 -38 -38 -39 -27 -15 -18 -26 -25 -24 -21 -12 21 41 54 53 41
31 -11 -10 -13 5 4 1 5 -6 -32 -65 -78 -80 -57 -30 3 5 7 -17 -24 -26 -27 -30 -32 -34 -34 -34 -34 -37 -30 -14 -5 -22 -26 -28 -31 -28 18 38 43 44 37 34
61 9 -5 35 23 15 12 21 22 -2 -32 -50 -59 -75 -18 17 15 1 -10 -18 -21 -24 -25 -24 -27 -31 -34 -31 -31 -21 -5 -5 -12 -14 -14 -18 -20 6 35 23 14 17 12
82 42 25 40 47 30 25 46 24 5 -8 -9 -27 -20 -12 -15 -7 -19 -7 -4 -3 -5 -3 -0 1 2 -4 -7 -10 1 17 9 1 -1 -2 -6 -19 -2 31 33 34 25 19
83 71 51 39 44 42 46 55 35 15 7 3 -1 -1 12 37 40 20 3 4 6 7 8 14 16 20 23 23 20 24 29 23 13 9 4 3 -7 9 51 44 35 33 21
102 93 69 41 54 54 59 63 35 46 27 26 28 31 35 43 29 18 17 16 20 23 23 24 28 35 40 40 45 49 45 38 28 20 18 14 -4 1 57 65 50 36 26
117 118 99 81 75 63 73 54 54 54 49 45 46 56 54 42 42 37 27 18 27 29 29 30 36 44 56 54 53 51 47 41 35 31 28 17 -2 -0 56 86 67 73 72
102 123 125 106 97 91 94 73 69 65 55 51 48 52 51 52 47 42 33 25 18 41 33 35 44 59 55 52 49 48 45 44 41 38 36 19 4 -0 55 89 76 84 79
42 70 79 98 100 96 101 95 81 73 65 53 52 50 53 53 49 43 39 34 32 33 31 34 43 48 55 59 59 56 50 47 47 43 37 23 14 10 75 94 92 107 97
53 66 77 80 83 84 90 85 84 75 62 54 47 46 51 48 44 43 42 37 32 33 32 38 45 54 56 57 58 56 57 54 52 53 48 31 23 40 62 95 87 82 69
47 48 53 52 46 52 56 62 58 53 50 49 47 40 44 48 47 44 40 38 38 41 46 55 56 56 56 56 59 63 62 58 52 55 54 46 33 33 46 49 67 53 47
24 29 30 28 23 29 34 34 42 43 44 43 42 43 43 48 51 50 43 41 47 55 59 59 63 65 65 66 61 67 65 70 65 62 58 50 40 39 39 41 46 56 48
31 33 35 34 31 30 30 35 36 36 36 39 44 41 44 53 52 50 51 51 56 65 62 70 75 81 84 87 76 75 83 79 75 68 67 67 58 52 49 41 38 46 51
45 49 43 43 35 32 37 46 48 48 47 47 55 56 51 51 52 58 63 62 65 73 83 88 92 91 94 100 92 89 96 89 72 66 80 88 87 80 72 60 50 42 49
38 58 55 45 34 37 55 65 59 56 65 62 66 63 54 58 58 67 68 67 76 88 102 112 110 115 111 108 110 98 104 105 91 85 76 94 90 95 92 84 68 59 69
39 39 46 55 56 64 79 81 82 70 56 53 61 64 60 67 63 70 70 70 92 106 105 114 112 119 120 115 120 111 104 98 97 95 84 95 96 101 95 89 86 89 76
77 64 50 59 64 84 102 104 96 91 89 79 77 65 65 70 71 81 89 89 95 98 91 100 117 118 131 141 153 124 114 84 97 81 90 96 100 96 96 95 99 105 105
91 96 98 83 95 96 113 119 118 105 95 99 94 83 86 84 90 106 107 107 103 109 106 110 122 149 152 162 169 164 111 84 93 72 67 87 89 94 98 103 103 108 104
112 114 131 145 160 165 139 142 138 133 121 119 136 144 161 158 149 133 119 118 108 132 137 127 142 144 166 178 145 158 148 133 111 111 94 99 82 82 93 112 107 91 71
136 159 178 196 203 204 180 161 146 136 128 135 134 133 138 153 157 147 134 127 117 126 128 122 140 144 170 182 178 130 148 176 138 130 136 125 104 112 134 111 109 114 96
156 179 194 204 221 216 201 173 151 145 140 130 127 132 138 148 146 150 143 125 112 124 113 111 128 151 166 183 198 203 167 160 137 139 130 127 142 106 130 139 130 111 95
165 173 178 180 188 182 175 172 157 142 136 132 130 128 133 130 132 136 143 126 116 112 113 116 119 142 157 184 187 206 192 169 155 149 139 112 109 91 89 91 93 94 92

GFSSE_con_3kmhel_054.txt.gz
Helicity
-77 -45 -64 -28 -21 4 16 20 24 31 24 18 13 3 -9 -12 -4 -2 -8 -15 -23 -38 -16 7 34 39 48 57 46 28 16 14 16 14 9 5 9 10 4 -4 5 35 18
-45 -50 -71 -55 -42 -18 -8 12 16 7 -5 -6 -10 -16 -16 -4 -5 -11 -16 -23 -23 -26 -21 3 11 16 25 22 9 4 10 12 8 -2 -28 4 -2 0 -7 -12 -6 12 14
-24 -47 -59 -63 -63 -59 -51 -17 -15 -21 -20 -41 -39 -35 -25 -5 -9 -14 -19 -20 -18 -22 -25 -16 -6 0 1 -2 -8 -5 0 -2 -11 -22 -40 -16 -2 -16 -24 -18 -10 -2 5
-12 -33 -53 -55 -63 -61 -53 -54 -37 -35 -49 -64 -62 -49 -35 -12 -13 -16 -24 -24 -22 -27 -29 -24 -17 -16 -20 -20 -22 -21 -13 -12 -22 -42 -20 -15 -8 -4 23 15 11 28 20
-13 -19 -30 -39 -43 -29 -56 -67 -78 -85 -80 -82 -78 -63 -41 -24 -15 -16 -25 -28 -28 -31 -34 -29 -26 -28 -27 -28 -28 -22 -15 -20 -34 -30 -22 -34 -19 9 24 39 35 28 24
-4 -15 -2 -28 -13 -21 -42 -50 -60 -79 -100 -104 -91 -81 -44 -28 -5 -17 -20 -24 -30 -33 -35 -34 -33 -37 -36 -35 -25 -14 -9 -23 -41 -15 -15 -6 -2 20 27 24 21 15 12
18 11 -4 -13 9 -7 -8 -12 -33 -47 -70 -94 -93 -99 -35 -16 -4 -26 -26 -26 -28 -30 -30 -28 -27 -27 -27 -26 -21 -6 -7 -23 -17 -6 -4 -3 5 19 24 25 22 22 20
52 40 30 32 24 22 14 10 1 -25 -40 -53 -74 -65 -40 -27 -21 -20 -13 -10 -12 -16 -17 -17 -16 -12 -10 -8 -3 9 4 -20 2 8 6 4 9 22 32 30 27 26 25
71 49 46 35 23 44 44 28 20 -3 -13 -19 -11 0 0 15 14 -6 -6 -1 3 2 5 6 8 7 9 13 21 28 22 5 11 22 16 22 27 25 48 44 44 40 24
79 62 66 50 37 30 36 49 15 38 21 10 23 39 48 42 22 16 5 10 18 18 21 21 24 26 29 29 36 40 34 24 36 31 32 42 19 16 50 64 76 58 43
78 74 73 72 56 50 62 60 52 52 52 45 46 53 35 17 21 27 42 36 35 34 32 32 35 39 42 48 46 41 24 46 45 43 37 49 14 10 37 61 69 75 72
87 91 83 79 68 65 92 79 63 50 45 44 43 42 39 40 39 32 47 38 35 42 47 44 46 47 27 40 53 51 43 48 48 46 45 39 18 13 32 80 77 72 68
67 93 97 102 98 78 81 93 84 51 54 54 54 51 54 50 47 38 47 48 45 49 42 41 47 39 43 45 49 46 53 55 54 58 66 49 32 30 50 86 85 87 86
37 57 85 98 95 97 76 69 69 61 52 52 50 48 50 50 49 45 45 48 45 43 43 41 47 49 52 50 50 46 53 56 58 63 69 66 37 38 61 85 92 86 73
58 57 61 68 76 87 72 57 63 57 49 44 43 39 41 49 50 44 43 43 42 48 49 54 58 59 56 59 56 54 58 62 62 64 56 87 49 32 35 49 56 67 51
79 53 59 66 66 69 61 51 50 48 45 37 33 34 37 47 54 59 56 48 48 53 59 62 66 70 70 69 65 66 71 74 69 74 71 66 76 47 37 36 41 44 53
70 42 32 49 52 53 45 47 40 41 39 42 39 34 37 45 54 58 60 61 61 63 64 67 66 71 74 73 68 73 80 73 76 73 77 71 72 79 56 39 34 35 43
61 38 31 42 37 39 43 45 43 43 43 45 46 48 45 42 45 54 58 62 69 74 75 76 81 82 80 85 87 81 93 85 82 81 88 77 77 81 91 76 55 45 40
53 45 42 39 31 31 39 44 47 50 50 55 53 54 50 49 47 56 60 61 64 75 82 88 92 95 97 96 98 94 98 104 95 99 83 80 79 84 91 105 106 82 70
67 48 51 43 39 39 44 48 61 57 52 57 65 68 68 70 68 71 67 62 72 82 87 94 95 99 95 101 119 118 110 109 106 103 94 95 88 76 80 94 104 93 91
70 59 43 34 39 61 70 69 65 71 78 83 82 73 73 75 78 79 82 79 82 88 89 95 105 113 117 129 161 129 115 113 102 98 102 91 90 90 95 100 111 114 113
90 71 64 58 60 54 62 72 80 90 89 88 99 86 86 84 85 92 86 89 92 106 94 100 111 141 158 160 187 186 125 125 93 84 88 96 93 110 105 99 100 110 119
125 111 96 92 85 94 94 111 114 117 109 103 100 109 125 128 122 113 105 112 114 136 140 128 129 139 178 185 169 184 166 128 176 118 94 95 110 112 96 90 107 109 113
136 129 133 134 137 135 123 117 104 108 110 133 135 131 128 130 130 130 130 131 124 123 121 116 126 133 160 173 197 162 158 167 144 141 111 91 91 101 106 102 108 118 132
119 124 127 132 156 172 174 176 155 143 145 139 132 128 127 128 139 149 161 148 129 125 107 99 100 113 140 156 194 223 194 195 169 165 130 93 93 81 97 116 106 96 113
131 150 135 143 163 170 172 170 161 144 136 123 124 125 131 139 149 153 158 139 127 123 119 117 120 123 131 148 186 208 234 190 178 175 131 116 107 75 77 91 99 100 107

GFSSE_con_3kmhel_057.txt.gz
Helicity
-5 19 -3 -6 -11 -13 -2 -9 -2 3 4 -7 -19 -31 -27 -13 -5 -10 -12 -21 -22 -10 18 39 50 53 60 55 31 22 17 17 11 6 10 4 6 5 2 15 21 20 12
4 -4 -28 -22 -21 -21 -8 -6 -11 -10 -6 -12 -28 -32 -20 -4 -7 -12 -15 -16 -15 1 22 31 30 42 36 20 16 17 11 5 -11 -10 -3 4 -2 -3 -2 4 15 12 12
-1 -15 -55 -54 -47 -35 -14 -15 -27 -12 -7 -26 -38 -50 -7 -12 -12 -13 -14 -13 -13 -8 5 18 14 9 7 6 5 4 -1 -11 -29 -48 -45 10 9 6 11 12 19 29 42
5 -30 -50 -63 -62 -50 -38 -25 -20 -22 -32 -44 -56 -61 -12 -20 -20 -23 -20 -21 -18 -18 -13 -8 -8 -11 -12 -14 -13 -8 -7 -21 -25 10 -25 -14 15 28 29 31 33 30 32
10 -29 -8 -41 -36 -36 -44 -54 -54 -57 -62 -61 -65 -65 -30 -18 -12 -21 -19 -21 -22 -24 -22 -22 -22 -23 -21 -17 -17 -13 -18 -32 -39 -27 3 -10 12 24 34 32 19 20 20
17 3 2 -33 -33 -23 -30 -57 -81 -99 -100 -78 -75 -72 -53 -4 -18 -26 -26 -26 -24 -24 -22 -22 -25 -28 -23 -19 -11 -10 -26 -50 -34 -10 -5 13 24 27 23 21 20 19 17
30 45 5 -15 -21 -24 -23 -33 -53 -74 -94 -100 -88 -72 -53 -15 -37 -34 -38 -34 -30 -27 -24 -23 -23 -25 -20 -17 -10 -8 -22 -37 -13 -0 7 17 30 38 31 31 32 30 28
47 31 25 10 -10 -20 -9 -15 -19 -35 -52 -68 -90 -70 -45 -14 -22 -19 -23 -19 -15 -11 -7 -5 -8 -7 -3 -0 6 7 -7 -23 5 21 23 38 41 52 46 49 46 34 30
57 47 52 34 19 9 10 3 4 -0 -13 -20 -9 8 5 15 2 -11 -15 -8 -3 4 6 10 13 17 18 24 29 26 13 -0 12 32 25 64 52 43 53 61 64 49 38
105 52 58 47 31 19 11 19 16 23 26 25 33 41 47 42 19 14 2 8 11 13 15 19 27 31 35 40 42 35 25 18 33 42 53 65 47 35 45 60 63 58 54
88 106 79 62 47 41 47 46 48 50 52 56 47 45 33 19 19 23 58 49 40 35 33 34 32 36 37 46 49 35 20 36 49 57 65 89 62 42 24 72 67 61 61
118 111 99 70 62 88 80 62 54 49 45 37 36 44 23 51 67 70 80 62 46 46 43 47 44 41 28 40 61 50 41 51 60 66 89 93 68 55 53 81 85 64 66
89 81 95 106 153 115 96 98 86 73 55 64 61 60 60 65 63 49 64 59 52 54 47 53 58 35 46 48 55 47 56 54 57 68 99 99 74 70 73 95 95 86 85
58 73 92 91 109 122 96 90 89 59 76 66 69 69 76 63 66 62 59 62 58 67 49 52 49 56 54 55 46 50 57 59 60 76 88 101 80 65 70 90 96 87 85
87 81 81 89 101 118 103 89 102 80 79 73 72 60 59 64 65 55 60 62 57 59 57 58 58 60 65 63 59 60 66 62 65 80 73 114 92 69 60 63 75 77 80
99 72 66 71 75 113 130 117 108 77 69 76 69 58 40 49 60 64 65 63 61 62 60 65 68 74 72 68 68 68 74 74 73 71 83 102 114 97 72 63 60 56 58
115 89 67 58 60 68 76 85 82 67 72 67 53 47 43 46 50 65 69 73 69 66 66 75 75 76 79 80 75 77 88 82 89 81 88 104 121 118 98 81 71 67 66
111 110 91 99 73 80 99 93 84 78 63 54 45 40 43 46 55 64 73 77 76 77 78 76 79 84 84 80 88 94 109 91 91 82 100 114 132 124 129 98 98 86 81
91 84 81 72 50 48 60 76 65 55 53 50 44 49 50 53 63 73 79 86 85 87 88 87 91 94 107 107 102 99 123 106 117 122 102 111 119 132 119 124 114 108 106
109 83 71 67 51 45 52 57 57 55 53 47 54 61 65 74 80 88 85 86 87 100 99 94 93 103 109 117 119 136 121 114 128 135 108 104 110 130 120 98 117 101 100
106 87 73 67 57 64 64 62 67 60 54 63 74 84 94 94 95 93 103 99 103 102 91 91 108 124 139 125 188 128 100 112 133 106 101 108 114 108 119 109 107 113 121
146 103 76 61 59 64 73 65 60 75 78 79 104 97 96 99 113 138 132 127 131 134 120 125 136 150 187 190 201 192 141 106 130 225 142 126 119 132 118 120 111 115 118
154 151 121 94 82 68 84 113 154 157 170 141 127 119 144 146 144 134 129 131 141 155 156 157 156 167 174 176 189 183 189 159 219 194 178 136 124 105 97 108 99 116 126
145 162 161 133 120 130 131 129 111 115 114 145 200 178 135 129 140 138 132 131 134 137 133 128 136 146 162 180 220 187 145 188 200 200 169 123 80 74 84 105 142 125 150
162 159 164 124 126 116 105 107 119 131 177 186 156 144 128 124 136 141 143 145 133 137 143 141 132 116 128 144 153 183 168 221 241 231 199 155 177 83 98 152 138 161 142
176 231 258 183 172 167 160 150 162 174 164 162 156 148 139 140 135 131 147 145 145 143 146 153 150 143 148 152 147 146 221 227 226 233 200 166 130 82 99 130 172 146 121

GFSSE_con_3kmhel_060.txt.gz
Helicity
60 69 37 9 12 1 2 4 -1 -10 2 -14 -15 -19 -7 -5 -7 -8 -9 -0 14 31 50 45 45 51 49 35 26 15 7 8 11 10 16 7 6 13 22 40 36 13 6
76 43 23 -6 -9 1 -1 -9 -16 -5 -7 -20 -20 -6 -1 -7 -11 -8 -4 6 21 35 44 39 48 38 26 19 10 -0 -10 -19 -11 5 -0 3 -5 9 11 23 32 34 35
51 18 -16 -26 -20 -7 -9 -17 -11 -7 -10 -30 -25 -12 -7 -8 -9 -11 -5 9 23 34 33 24 18 10 8 1 -1 -9 -25 -19 -27 -13 5 -40 -2 17 22 28 30 32 36
35 -26 -44 -52 -34 -18 -5 7 -0 -12 -25 -41 -39 -17 -16 -11 -14 -10 -10 -10 -9 -2 -0 1 -3 -7 -9 -10 -10 -18 -27 -15 -21 -39 -12 -4 13 23 25 20 17 21 26
14 -40 -42 -67 -44 -27 -22 -21 -22 -31 -40 -50 -48 -30 -15 -15 -15 -12 -14 -16 -19 -15 -14 -13 -11 -10 -11 -13 -14 -27 -34 -30 -15 -1 -6 1 7 14 26 26 21 21 24
-8 66 -3 -25 -34 -39 -49 -62 -60 -59 -54 -59 -64 -57 -8 -16 -18 -17 -19 -18 -20 -22 -22 -20 -18 -15 -17 -15 -20 -29 -37 -31 -37 2 7 27 33 34 33 33 35 35 32
108 62 22 -5 -29 -42 -47 -56 -66 -83 -90 -79 -78 -70 -14 -34 -34 -31 -29 -28 -26 -26 -24 -22 -18 -13 -9 -13 -10 -10 -23 -10 -3 15 30 45 41 55 52 47 45 40 38
82 50 28 9 -7 -24 -29 -34 -45 -57 -68 -85 -100 -65 -34 -39 -20 -10 -15 -10 -7 -7 -4 -4 1 2 8 10 15 8 -1 4 14 32 64 57 49 63 69 67 62 50 43
10 52 57 32 16 -0 -12 -16 -19 -22 -18 -13 -29 -34 -3 2 -4 -4 -2 2 3 11 14 14 21 21 24 28 32 23 10 9 29 47 84 61 65 58 68 81 77 64 57
39 46 58 45 28 17 -1 -7 3 15 25 28 35 35 33 34 19 13 14 18 23 24 30 28 30 30 32 36 38 29 17 16 36 46 83 72 75 59 62 72 79 69 67
95 41 64 34 24 28 37 32 25 26 40 40 46 31 12 20 15 25 43 52 47 45 46 49 47 41 37 38 46 39 27 41 45 59 82 89 81 66 47 91 77 72 70
168 152 90 34 45 66 83 33 33 22 24 19 34 35 5 39 59 87 78 74 68 59 49 50 48 41 31 41 52 42 54 44 52 62 88 100 87 74 73 85 106 79 75
173 125 95 58 109 135 111 48 61 39 50 42 38 44 50 95 77 69 71 70 56 48 48 45 39 25 29 42 59 56 60 64 53 53 95 101 85 75 77 101 115 102 99
120 99 87 88 176 140 114 103 71 79 54 66 72 59 101 93 76 56 78 57 54 68 44 46 65 43 54 60 55 55 53 65 63 63 91 99 84 77 77 96 114 104 99
134 73 102 115 163 144 103 88 71 85 77 62 101 82 85 75 77 50 60 79 63 63 61 65 60 54 68 55 62 70 68 69 69 78 104 105 95 90 78 78 88 91 87
229 230 133 107 97 137 139 115 91 98 84 97 110 85 65 67 62 44 56 71 70 75 67 69 66 71 71 77 70 78 82 93 94 92 101 121 115 105 98 86 77 69 66
110 113 140 118 129 143 151 127 116 90 104 100 106 82 68 50 55 55 51 69 69 71 71 72 78 84 86 84 82 79 78 89 90 86 107 132 153 127 107 89 80 80 78
113 100 89 92 84 90 91 115 116 86 104 134 97 82 70 50 47 56 69 75 73 84 95 91 84 82 87 96 99 103 108 122 115 107 144 156 154 169 146 109 87 79 76
113 95 111 122 110 113 121 118 123 118 134 107 84 74 67 55 54 76 79 83 87 93 100 99 87 90 102 98 101 102 107 124 121 111 139 143 116 123 157 148 79 80 72
119 132 121 145 121 111 124 119 111 99 84 64 65 66 66 71 73 93 94 88 89 129 122 108 106 107 127 123 124 137 124 118 126 120 127 103 100 148 144 124 105 83 60
106 129 147 136 113 116 121 113 98 87 63 62 72 84 105 112 111 119 119 111 127 130 123 115 115 130 135 153 151 148 137 125 110 94 132 117 192 190 147 125 122 120 130
131 118 143 140 125 110 112 110 93 83 64 58 72 103 124 147 160 174 170 161 154 140 138 138 154 147 162 189 209 187 139 112 92 92 178 202 186 157 162 145 126 150 144
127 151 139 134 132 126 108 111 137 171 137 147 154 163 159 150 171 176 156 148 138 144 135 135 146 164 170 196 204 203 183 137 154 161 220 215 155 119 116 108 97 144 180
146 197 232 211 178 188 165 175 177 171 161 158 198 205 197 157 156 163 158 154 150 157 148 141 146 159 180 180 201 175 169 180 190 191 174 199 156 167 152 153 186 233 200
171 190 219 233 205 205 224 201 174 178 186 185 197 191 150 124 119 135 146 156 144 140 144 149 154 151 154 161 166 160 151 170 195 201 203 188 209 198 140 175 237 219 160
182 199 210 211 216 157 158 167 139 141 169 162 169 176 158 151 131 115 127 141 135 142 149 168 168 166 165 169 149 151 156 207 196 234 208 189 188 140 155 215 238 189 162

GFSSE_con_3kmhel_063.txt.gz
Helicity
61 45 52 42 33 25 20 14 3 6 -1 -2 -4 10 4 0 -4 6 11 32 34 51 40 49 54 44 25 20 13 7 5 8 13 20 13 -7 1 17 32 32 33 12 16
75 45 56 41 25 14 8 6 4 -7 -5 -6 10 5 -1 -7 -2 4 18 18 26 41 41 41 25 16 12 2 -6 -14 -2 0 -1 -8 -11 -15 0 25 31 36 28 24 25
80 39 34 28 20 3 -1 1 -3 -9 0 7 0 4 -3 -8 -7 9 24 40 42 36 23 10 3 -4 -2 -10 -21 -21 -16 -33 -20 -16 -39 -34 -13 15 22 22 19 23 28
58 24 10 11 2 7 10 1 -13 -13 -6 -10 -10 -4 -5 -6 -10 -10 -3 3 5 4 -3 -9 -13 -15 -15 -22 -25 -9 -7 -13 -30 1 -30 -12 2 10 17 24 26 26 28
36 1 -22 -11 -9 1 -3 -12 -18 -17 -19 -17 -16 -2 -8 -11 -15 -14 -17 -12 -9 -16 -14 -13 -11 -13 -19 -24 -24 -7 -2 -11 0 5 15 12 8 13 20 26 32 32 30
27 -3 -23 -24 -30 -34 -32 -30 -33 -31 -31 -25 -23 -4 -9 -13 -14 -14 -16 -18 -18 -20 -21 -18 -17 -16 -16 -16 -16 -10 1 10 8 16 30 39 29 37 36 40 40 38 39
63 27 -3 -6 -35 -54 -64 -71 -77 -66 -57 -54 -42 -28 -30 -26 -24 -26 -24 -26 -24 -24 -21 -18 -12 -3 -3 0 -4 -3 10 7 6 34 41 52 50 60 57 56 51 49 44
83 50 24 -5 -22 -40 -56 -69 -76 -81 -83 -92 -74 -33 -46 -35 -19 -13 -8 -10 -8 -7 -3 0 4 14 19 19 13 7 14 23 10 44 52 48 60 68 71 67 62 58 54
89 83 45 15 -6 -17 -36 -48 -47 -42 -53 -82 -60 -30 -28 -23 -19 -13 -2 4 4 10 10 14 18 19 26 29 22 15 12 21 31 39 56 47 53 65 69 71 70 64 58
75 88 81 54 25 5 -20 -26 -18 -4 -3 12 24 13 -8 3 8 13 3 16 26 30 33 38 39 37 34 38 35 27 20 24 38 49 57 48 73 61 60 68 65 68 62
43 50 78 62 38 29 15 -8 5 13 19 37 26 12 12 9 18 31 31 42 46 51 51 51 48 45 40 37 34 35 32 44 36 51 63 73 72 60 49 90 79 77 64
63 36 46 40 40 43 29 13 12 16 18 27 24 12 22 18 28 47 53 68 67 60 56 53 49 42 34 34 35 26 46 42 44 53 62 77 76 67 69 75 102 90 76
98 72 39 67 58 41 55 41 27 20 25 26 33 26 40 49 59 59 54 48 55 55 52 44 30 22 27 38 41 37 45 42 48 52 59 77 77 72 67 66 107 87 86
111 68 64 90 83 89 74 47 36 37 43 49 35 47 69 57 60 64 53 34 36 39 36 38 42 35 27 29 49 47 46 52 54 60 65 82 83 77 78 81 88 90 88
117 106 95 124 132 123 91 56 41 47 63 57 50 68 84 83 67 58 40 43 37 42 54 35 33 39 42 39 43 46 49 58 63 77 91 85 96 95 89 85 79 82 78
129 113 104 145 127 114 85 64 47 72 73 60 89 105 92 85 68 49 49 44 42 56 51 64 59 50 50 59 51 59 61 74 80 75 101 107 97 103 90 74 73 74 66
162 192 184 166 147 138 116 102 93 75 89 102 110 94 95 90 62 48 48 43 49 56 58 67 61 78 73 73 69 78 81 84 93 117 111 128 129 125 139 98 69 60 60
151 144 148 156 145 140 140 137 123 98 107 116 121 99 82 82 70 56 58 54 48 60 78 88 87 84 84 87 88 80 79 88 97 106 103 118 144 132 136 119 85 61 59
119 118 133 137 137 107 109 128 114 86 91 133 125 99 81 86 68 67 65 57 68 86 99 101 97 91 88 85 90 94 96 97 100 89 81 104 104 133 135 94 83 64 73
99 124 120 118 118 94 108 120 147 136 143 117 117 87 70 69 62 73 73 67 75 103 109 114 102 101 108 106 117 119 107 99 90 79 96 108 168 175 153 158 122 123 133
98 119 123 130 125 154 167 158 138 132 115 96 85 59 63 63 56 83 83 74 123 113 106 109 120 108 110 137 123 136 143 126 114 99 120 146 210 201 176 135 136 162 157
74 100 132 136 154 148 143 146 142 99 87 81 66 82 113 144 141 133 126 127 130 106 109 118 127 128 132 140 163 176 131 131 111 86 121 195 186 169 157 162 171 166 147
87 66 100 138 143 155 145 162 178 170 145 114 89 133 162 175 170 163 143 131 128 118 113 113 131 145 140 154 171 174 168 176 155 150 172 165 166 171 174 169 192 156 145
59 108 125 160 160 148 164 194 226 178 192 135 162 187 193 191 166 143 135 140 126 133 143 139 155 154 180 160 183 164 163 201 179 170 168 171 163 183 176 181 196 135 157
181 189 214 230 218 251 219 203 218 179 185 219 229 220 181 179 167 152 149 149 151 146 143 140 147 154 167 166 163 160 163 173 176 170 165 149 189 232 254 249 220 175 167
254 222 220 228 227 243 247 238 213 225 267 213 215 210 182 168 160 149 154 146 135 133 136 147 155 154 156 165 162 154 174 186 181 190 201 166 174 245 297 266 229 193 168

GFSSE_con_3kmhel_066.txt.gz
Helicity
42 30 51 61 71 58 39 30 22 20 3 19 20 11 16 14 16 24 52 53 45 42 45 53 46 34 30 24 17 8 -3 -5 -5 -14 -7 -6 21 32 32 27 25 6 22
80 42 58 53 50 46 34 22 15 -2 -7 23 11 5 9 12 14 19 31 37 27 44 47 37 32 22 9 5 -4 -16 -26 -30 -26 -32 -20 -16 -0 12 19 13 -5 21 25
80 36 42 47 46 31 23 19 7 -4 16 6 5 3 4 16 22 30 30 30 35 32 22 17 10 1 -9 -12 -20 -41 -50 -35 -34 -28 -19 -31 -21 -8 -2 -0 1 5 14
81 53 36 46 30 27 16 13 5 8 5 -1 3 -2 -1 3 16 20 20 15 11 3 1 -2 -14 -18 -22 -22 -23 -24 -19 -9 -11 -11 -21 -11 -5 10 10 8 8 12 15
76 53 37 27 32 17 3 -2 -2 -4 -14 -7 -3 -9 -11 -15 -14 -12 -15 -16 -14 -13 -11 -15 -24 -29 -29 -25 -16 4 15 21 19 19 6 8 5 18 24 26 19 19 22
73 47 28 27 16 2 -16 -22 -19 -16 -16 -5 -6 -12 -17 -23 -29 -28 -25 -26 -24 -22 -19 -22 -20 -20 -24 -15 -2 4 5 14 28 20 20 30 21 42 43 37 31 29 30
62 33 13 6 -9 -22 -33 -38 -42 -37 -28 -7 -15 -22 -26 -30 -35 -37 -35 -34 -25 -20 -13 -8 -4 -5 -5 -3 5 9 17 26 22 24 28 34 35 55 51 43 38 34 33
58 41 3 -16 -24 -41 -65 -80 -83 -79 -74 -36 -43 -42 -39 -37 -33 -33 -28 -24 -15 -6 1 3 8 11 12 13 15 21 27 35 29 35 35 31 42 56 57 52 45 36 32
84 68 45 6 -18 -35 -62 -70 -78 -92 -95 -78 -61 -56 -53 -46 -37 -21 -14 -2 2 7 12 14 18 22 27 25 24 28 31 43 39 39 41 26 33 54 55 54 51 44 38
74 78 57 35 12 -9 -41 -49 -45 -55 -72 -43 -25 -30 -28 -31 -21 -18 -7 5 25 32 37 41 39 39 35 31 25 21 33 51 41 45 42 32 48 50 64 60 64 58 47
66 72 61 45 44 19 -5 -27 -22 -20 -8 11 5 -6 -8 -10 -0 5 8 22 25 35 37 43 50 47 42 33 23 25 36 43 41 42 36 43 51 50 45 72 79 74 59
58 63 75 63 58 36 21 -0 -2 5 16 19 13 10 3 12 19 28 27 47 46 46 40 40 37 40 41 31 28 34 45 39 42 44 49 49 49 47 51 59 74 77 71
59 43 53 55 57 46 43 22 17 13 15 15 32 31 29 35 38 43 45 35 45 40 35 30 31 31 30 36 41 44 39 38 44 45 49 57 57 55 56 52 70 72 72
92 40 34 41 61 64 57 26 14 26 26 22 20 55 52 57 56 51 51 37 34 34 32 32 32 27 28 35 32 34 40 44 46 57 56 60 60 64 61 67 73 76 77
35 48 61 40 90 93 70 56 36 21 40 32 36 50 62 79 62 56 42 34 23 31 32 31 32 36 27 28 34 36 37 44 54 61 68 61 75 70 62 60 63 71 65
12 66 90 86 87 136 107 72 31 30 40 62 57 64 71 86 83 59 47 38 23 33 36 35 40 40 43 53 46 52 50 56 61 69 78 79 79 86 88 70 64 48 40
81 123 81 58 69 115 96 73 68 32 63 97 66 72 90 87 76 70 63 44 35 36 44 50 51 61 64 64 50 56 67 66 77 72 76 84 95 95 95 102 112 79 41
183 147 81 147 131 117 131 101 102 84 94 93 103 99 112 96 88 72 63 47 43 54 63 69 74 72 64 67 73 64 76 76 62 64 88 93 89 100 90 88 91 80 67
132 103 96 176 151 117 156 140 157 114 110 117 127 114 106 99 89 89 70 50 55 65 70 79 76 76 65 68 72 89 91 92 83 71 60 93 108 111 130 126 135 136 100
121 117 140 141 134 136 138 135 136 141 119 99 142 128 91 93 91 85 72 60 64 76 76 82 80 87 81 76 83 94 114 105 113 103 95 110 136 192 180 176 162 166 193
105 135 102 97 110 147 168 137 138 143 164 142 161 127 88 82 77 80 72 63 62 80 94 91 97 91 90 106 105 99 117 110 106 106 93 99 188 208 227 194 184 146 140
87 81 112 109 129 103 140 167 167 159 146 141 114 102 80 96 92 84 81 86 85 98 91 90 96 101 101 110 111 128 115 117 147 145 111 135 177 201 201 192 164 146 144
92 79 87 110 115 147 154 195 192 187 173 151 149 144 161 152 158 148 138 129 124 116 103 99 105 113 111 131 149 173 153 109 125 150 133 125 149 176 189 186 203 197 150
75 96 89 102 144 148 202 212 194 183 154 115 121 147 182 183 173 159 149 149 135 124 122 123 139 142 158 126 141 162 194 210 176 168 156 167 172 173 212 246 246 195 160
154 161 131 125 144 160 167 186 193 185 188 130 155 251 243 214 172 159 143 144 137 126 124 134 142 148 172 166 168 157 165 188 192 210 186 154 223 247 292 298 271 218 176
220 214 195 154 163 177 181 194 184 181 236 282 285 250 228 264 195 158 138 154 148 129 110 123 140 152 147 150 164 164 172 181 179 212 228 174 176 261 308 294 258 251 177

GFSSE_con_3kmhel_069.txt.gz
Helicity
61 45 44 63 62 59 50 47 38 31 32 30 17 2 10 21 42 55 50 42 29 31 47 46 31 24 20 11 5 1 -4 -18 -21 -21 -14 -1 7 10 8 -1 16 -7 7
96 56 52 53 53 53 45 38 31 19 26 20 1 7 9 20 39 50 52 45 37 43 38 27 20 14 3 -8 -17 -29 -34 -35 -31 -25 -21 -22 -11 -9 -8 -9 -21 -16 1
98 52 50 50 49 53 42 32 28 32 24 6 -5 -2 15 20 29 33 33 36 40 30 21 12 7 1 -10 -27 -42 -49 -47 -32 -24 -29 -31 -37 -27 -2 -1 -2 -5 -2 -2
99 62 52 51 56 45 28 27 26 17 8 -1 -8 -10 12 28 33 32 34 25 13 3 -2 -5 -6 -12 -19 -25 -27 -28 -11 -14 -21 -17 -27 -26 -16 8 8 9 6 9 11
85 69 46 51 45 30 19 19 21 3 2 -7 -14 -20 -9 13 17 10 8 -7 -14 -16 -19 -19 -19 -22 -20 -13 2 7 12 15 11 -2 -11 -9 -10 11 20 18 14 13 16
90 83 48 37 27 24 9 -4 -5 -15 -13 -16 -23 -26 -30 -27 -25 -23 -27 -26 -28 -29 -26 -20 -14 -18 -14 -6 9 17 22 29 19 4 2 12 11 32 31 28 24 21 19
85 82 53 32 21 10 -8 -27 -27 -30 -17 -20 -26 -32 -38 -42 -43 -45 -43 -43 -36 -26 -14 -9 -7 -7 -3 2 14 19 27 31 19 13 12 15 19 41 38 35 29 24 22
76 84 44 25 12 -3 -21 -40 -49 -39 -20 -31 -39 -45 -47 -50 -53 -52 -49 -42 -35 -21 -13 -5 -0 2 10 14 26 37 28 30 29 25 20 18 23 41 40 39 34 30 26
72 83 52 36 10 -13 -33 -50 -68 -71 -49 -64 -67 -67 -64 -58 -49 -39 -32 -27 -20 -15 -7 4 12 17 22 28 33 38 30 39 36 27 27 18 8 39 44 37 37 36 34
102 98 86 63 29 -2 -28 -50 -69 -86 -84 -76 -66 -58 -54 -53 -45 -26 -20 -13 3 12 15 21 24 24 26 26 30 39 48 47 40 35 27 19 15 32 48 46 59 48 44
90 75 61 39 38 13 -8 -29 -40 -62 -50 -34 -42 -34 -28 -34 -20 -8 -9 10 16 28 33 34 29 30 29 30 24 36 49 40 40 33 30 14 24 30 29 18 67 58 55
68 77 71 54 49 34 22 3 -7 -14 -12 4 -5 -6 -6 -2 5 11 13 23 29 33 37 41 34 30 32 27 30 40 46 43 40 37 39 28 31 32 39 46 59 60 64
81 69 72 64 63 55 46 32 26 22 25 19 16 11 14 18 23 34 40 37 33 33 32 35 34 33 32 33 39 40 43 48 43 42 39 39 39 38 46 44 38 59 56
55 71 61 68 65 61 72 50 38 43 41 36 27 27 39 41 34 36 40 42 45 37 35 36 38 33 34 36 43 41 40 42 49 53 48 44 48 42 40 42 42 59 51
257 82 70 61 52 51 76 77 65 53 46 38 49 41 52 53 52 54 42 45 38 36 36 32 36 34 34 35 37 41 41 45 49 60 65 49 42 47 51 36 30 39 40
214 112 -50 70 43 65 67 81 73 61 51 57 61 48 48 69 76 69 55 48 42 36 32 32 34 34 35 42 34 38 38 50 49 56 70 68 51 52 60 61 75 59 46
106 -79 -8 63 54 81 94 87 81 50 45 63 76 76 68 72 84 87 72 56 44 48 36 37 38 47 49 50 40 45 59 60 66 53 66 69 73 65 58 65 80 86 40
110 37 16 22 31 98 56 89 74 32 50 52 97 107 98 85 98 95 85 70 62 62 59 62 62 59 54 53 51 45 59 73 74 73 77 88 90 96 93 83 103 94 68
105 114 65 49 43 68 77 110 86 54 63 64 97 108 97 88 86 104 90 73 76 74 64 65 67 69 62 51 56 53 49 67 75 98 92 106 101 98 114 143 174 152 123
119 159 134 141 115 107 70 109 41 54 117 118 121 124 96 93 93 95 89 77 80 75 57 67 64 67 64 53 53 52 60 62 80 89 86 100 119 129 164 191 179 163 162
117 190 190 165 147 168 191 145 105 56 172 153 119 92 125 105 109 107 94 79 80 72 53 81 80 64 67 70 66 65 74 67 84 105 102 101 148 171 183 180 165 131 134
61 89 123 131 125 150 159 193 205 204 157 149 126 115 118 115 111 115 92 74 68 75 72 79 82 77 68 82 85 75 75 82 124 104 107 115 127 140 159 172 182 180 148
91 77 63 82 102 94 152 239 247 170 154 155 146 137 135 108 111 105 81 83 93 94 90 96 105 110 104 111 118 134 115 87 105 120 135 149 141 163 171 212 209 188 171
56 89 65 69 66 89 150 160 158 170 188 150 156 167 184 176 193 192 182 159 123 101 92 85 97 107 126 109 123 146 178 203 149 128 137 163 183 182 215 239 227 206 177
35 81 95 77 78 79 118 142 153 144 147 158 189 156 169 182 155 156 115 78 83 94 95 117 103 105 124 123 140 151 160 176 178 179 156 189 240 250 274 271 250 235 215
105 117 134 121 91 90 90 148 173 147 170 196 235 184 250 330 289 185 121 157 178 156 135 121 120 122 132 136 143 145 139 152 174 193 205 173 200 243 280 285 275 244 242

GFSSE_con_3kmhel_072.txt.gz
Helicity
80 74 60 63 71 69 52 45 40 57 55 36 24 -5 3 20 35 41 35 38 27 34 47 33 23 13 9 9 0 -15 -21 -22 -13 -2 -3 -7 -9 -9 -12 -8 -8 -6 14
109 75 55 56 57 59 50 36 33 38 14 14 -2 -2 23 39 52 32 25 23 30 39 27 17 7 0 -6 -16 -21 -25 -26 -22 -13 -12 -17 -21 -19 -12 -10 -14 -9 -12 1
120 71 45 50 51 47 49 40 30 35 28 0 2 8 22 35 46 42 33 34 34 19 9 2 -6 -16 -26 -38 -37 -24 -17 -16 -17 -17 -15 -36 -31 1 7 6 4 1 0
115 82 55 44 52 53 38 33 31 23 5 -6 7 5 10 34 35 25 28 25 10 3 -3 -11 -16 -21 -25 -23 -24 -7 -5 -10 -5 -6 -27 -26 -24 11 12 12 13 12 9
120 90 53 38 49 45 28 17 24 12 -3 -13 -3 15 24 28 23 25 9 -9 -15 -15 -19 -20 -18 -13 -10 -5 1 8 8 8 2 -9 -15 -13 -14 14 24 23 20 20 19
113 97 41 43 42 35 18 21 11 2 -6 -16 -17 -1 13 17 8 -10 -20 -30 -32 -30 -28 -19 -13 -7 -1 -3 7 14 18 14 4 -8 -8 -1 -1 28 32 32 30 27 26
97 101 56 42 35 24 9 5 -7 -13 -18 -23 -32 -31 -27 -27 -28 -33 -37 -43 -35 -31 -23 -15 -12 -12 -5 0 15 18 19 16 5 0 0 -2 2 26 28 30 31 31 31
114 104 73 40 30 18 -2 -15 -23 -18 -21 -28 -38 -46 -48 -47 -50 -47 -41 -40 -28 -21 -18 -18 -13 -6 8 13 21 22 17 18 11 6 2 0 0 29 33 32 31 33 34
120 111 95 65 40 21 1 -8 -33 -20 -31 -39 -48 -53 -58 -60 -56 -50 -43 -42 -26 -9 1 13 14 13 18 26 25 22 24 21 21 10 6 0 -9 28 38 36 38 36 37
100 122 100 75 59 34 11 -16 -24 -39 -46 -53 -63 -66 -67 -72 -70 -54 -43 -30 -14 5 6 12 22 36 36 31 30 31 35 37 29 19 14 8 -4 13 30 33 64 49 45
94 98 101 59 51 29 10 -10 -22 -41 -49 -52 -53 -53 -47 -48 -37 -23 -22 -11 2 13 17 19 23 32 40 40 37 37 41 29 33 27 26 11 15 19 29 36 58 57 47
93 85 68 52 53 36 25 10 -5 -7 -25 -22 -27 -21 -17 -13 -6 0 4 9 14 21 25 27 32 30 40 37 30 43 38 34 37 32 33 23 26 22 39 42 46 53 53
91 88 73 73 72 57 45 41 30 26 23 21 8 15 16 22 23 27 30 33 34 36 36 35 39 40 34 36 40 39 37 35 36 37 35 29 30 24 36 36 28 44 56
93 102 84 75 77 69 68 60 52 50 49 48 35 31 33 32 32 35 40 43 43 45 40 40 40 43 39 38 35 30 31 35 40 46 45 40 33 29 27 41 29 36 54
103 93 57 65 70 72 71 65 71 62 63 65 59 45 48 48 44 49 43 45 46 50 40 36 43 44 38 31 32 32 29 33 38 48 61 47 47 42 34 33 30 36 46
103 85 43 -9 36 66 64 66 71 73 74 82 75 59 57 62 62 63 61 52 43 47 41 42 44 39 34 40 34 35 32 40 44 50 57 57 50 49 51 47 55 51 53
-32 53 -79 38 46 58 84 74 49 62 64 66 67 67 66 67 68 75 74 63 53 54 50 42 37 43 44 45 35 31 38 42 49 50 47 56 67 77 52 52 61 59 78
117 6 2 10 94 21 95 92 72 63 60 52 26 60 65 75 85 87 91 74 72 66 59 52 49 48 42 44 32 36 40 45 42 42 68 78 86 86 75 87 82 87 115
91 156 64 141 -53 16 71 114 65 41 64 73 61 36 56 91 102 102 98 100 91 85 69 65 54 53 47 47 36 35 40 33 37 56 53 79 72 84 88 87 129 139 123
65 138 165 127 37 0 64 138 142 52 50 46 43 24 39 105 119 118 104 92 97 97 86 71 54 53 47 42 37 33 38 33 40 57 65 75 80 99 112 140 149 157 157
33 118 120 156 109 25 20 17 132 141 85 50 38 93 82 97 127 113 89 103 91 85 77 71 74 56 48 59 51 64 55 38 50 67 65 62 87 111 132 163 173 186 187
68 132 70 60 88 90 55 140 105 23 11 7 103 134 100 119 124 139 100 90 99 95 86 76 76 75 68 68 73 81 63 52 38 59 93 92 104 134 161 170 180 175 177
64 62 97 110 94 52 62 178 192 146 111 117 118 124 128 138 152 146 125 127 105 92 94 96 91 78 79 82 88 74 68 61 72 84 108 132 128 151 177 188 186 189 190
46 54 38 54 110 131 209 155 98 91 80 49 50 95 130 150 186 188 163 172 164 145 103 104 94 94 108 103 102 110 126 151 108 110 109 126 145 166 186 209 213 205 191
72 63 58 51 47 74 93 149 128 104 138 186 196 140 99 112 161 171 193 157 133 127 114 91 75 89 85 106 95 108 116 133 137 143 124 123 197 211 213 218 233 235 228
103 101 73 67 56 71 92 91 88 77 107 153 181 192 191 202 177 136 154 182 194 193 132 90 78 57 103 90 94 104 134 121 137 139 152 132 166 196 227 235 239 234 226

GFSSE_con_3kmhel_075.txt.gz
Helicity
112 81 54 66 73 71 68 59 72 69 43 23 24 29 8 13 35 40 41 51 20 37 28 23 15 11 8 -5 -11 -16 -10 -4 2 1 -2 -13 -19 -22 -13 -5 -4 -0 9
133 83 50 60 56 52 54 49 57 54 22 2 -4 -1 5 13 33 33 20 23 35 23 17 13 7 4 -2 -13 -20 -16 -9 -7 -5 -5 -12 -17 -12 -4 -1 -0 2 -11 4
110 78 47 50 52 48 45 49 39 19 7 -13 2 10 22 27 23 15 18 26 21 13 5 2 -5 -15 -21 -18 -15 -11 -5 -7 -4 -5 -17 -11 -0 11 14 15 12 5 4
99 73 47 36 48 56 37 41 41 23 2 -4 16 16 23 41 43 29 26 21 9 1 -1 -12 -19 -21 -19 -15 -7 -5 -6 -2 -3 -11 -12 -4 9 23 25 24 25 24 18
87 68 46 34 43 53 31 37 30 13 1 6 10 18 31 39 27 20 15 2 -5 -9 -11 -15 -16 -11 -9 -3 1 -0 2 3 -1 -3 2 4 7 23 32 32 31 32 32
67 57 54 47 56 45 26 36 22 4 -2 15 31 27 22 24 28 9 -5 -13 -15 -20 -15 -11 -3 -1 -6 -5 3 9 8 5 -8 -2 -2 3 10 24 28 33 37 38 39
68 52 49 55 64 32 31 35 17 -0 -7 -3 26 50 42 31 4 -12 -18 -28 -25 -17 -11 -1 -2 -4 -1 3 8 11 10 4 -2 -3 -3 1 11 23 31 34 36 39 39
74 65 54 48 61 41 39 24 7 -2 -8 -11 -4 11 5 -16 -22 -27 -29 -29 -24 -16 -11 -4 -0 8 13 21 24 16 13 5 -3 2 2 3 4 26 33 36 38 44 45
93 86 70 60 56 59 41 18 -4 -8 -14 -17 -24 -28 -43 -38 -41 -35 -31 -33 -29 -22 -10 8 15 21 24 27 32 31 22 11 6 4 6 5 -7 30 35 40 46 47 47
79 97 81 75 48 48 41 17 9 -5 -11 -8 -14 -21 -22 -38 -41 -42 -37 -27 -9 4 13 22 29 25 27 25 26 33 38 29 16 10 8 11 -1 15 26 25 52 55 51
133 105 86 62 42 52 45 36 9 -5 -13 -11 -13 -23 -32 -49 -47 -36 -25 -7 10 15 28 29 36 40 38 38 36 35 31 23 20 15 14 12 10 19 28 48 55 58 55
114 101 86 60 53 57 55 42 42 -2 -17 -21 -26 -31 -27 -21 -15 -7 1 13 21 28 37 39 45 45 40 33 29 32 33 31 28 24 23 15 17 22 32 41 45 48 61
158 96 78 55 57 56 50 54 47 22 10 3 -1 2 10 14 17 18 26 30 36 39 37 40 45 41 37 31 38 35 31 33 31 34 31 20 20 19 22 35 21 38 39
138 101 68 62 70 68 67 59 57 45 33 37 24 24 31 34 32 34 39 42 44 47 41 41 38 37 34 34 34 31 26 29 34 38 33 25 29 30 32 33 38 25 33
82 124 110 77 65 71 73 73 68 62 65 62 48 40 45 41 39 44 45 47 46 49 45 44 38 34 27 25 26 22 21 22 24 33 36 26 20 37 33 46 35 30 31
43 108 118 75 62 58 77 70 73 72 68 72 65 55 49 49 47 48 50 49 48 51 56 48 41 32 24 25 26 28 25 25 24 27 40 35 22 27 33 46 37 39 43
106 98 235 188 112 70 62 83 66 70 81 73 68 59 52 50 45 49 53 50 55 64 59 61 52 41 30 30 27 29 22 19 19 15 23 32 47 49 42 52 42 41 61
-34 46 123 146 133 51 43 81 97 70 75 70 60 61 56 51 43 51 57 58 69 71 68 66 62 52 44 37 33 26 24 25 22 20 33 47 50 62 61 73 62 56 105
-47 -33 -69 15 127 35 62 46 58 49 61 66 76 72 48 27 38 56 63 64 82 87 78 79 75 64 56 51 38 31 29 34 30 33 31 40 56 63 66 73 73 121 146
-13 25 -83 -35 -82 -7 64 34 99 99 57 42 47 51 58 47 -17 56 67 73 92 104 106 93 79 69 63 54 49 40 41 33 32 40 31 29 35 56 74 102 145 165 199
70 32 82 44 -26 93 130 197 115 95 66 108 78 50 39 62 46 69 84 84 98 104 97 85 93 86 80 71 70 58 44 39 53 52 33 42 48 66 89 122 144 160 198
85 75 163 88 12 67 29 84 23 66 73 95 183 54 49 37 103 99 113 133 103 106 112 113 108 124 103 88 93 70 62 69 57 56 64 67 80 83 116 144 166 169 168
19 33 138 151 72 50 2 96 153 85 106 83 88 165 -8 57 72 65 110 166 142 125 117 113 114 99 106 98 83 76 61 53 56 53 75 89 95 101 125 152 168 176 176
36 65 50 82 79 94 53 17 36 64 68 -27 81 42 34 90 51 75 65 132 174 177 136 150 128 127 130 108 95 78 94 97 59 49 64 95 114 115 125 141 174 183 181
86 75 61 43 52 72 93 127 64 157 89 23 72 36 58 73 85 95 84 118 160 192 188 182 155 171 133 107 76 64 95 87 70 82 76 97 115 141 169 162 173 189 189
158 166 134 98 126 112 96 93 92 107 117 103 117 93 103 117 136 136 142 111 126 162 147 126 131 173 131 136 88 78 76 73 89 111 122 97 101 133 166 183 183 190 182

GFSSE_con_3kmhel_078.txt.gz
Helicity
91 124 92 82 78 70 55 39 40 37 31 42 70 64 14 9 29 37 35 36 28 30 21 20 13 8 0 -3 3 8 11 9 7 6 3 -7 -6 -6 3 13 -7 9 8
100 107 85 60 69 62 50 45 45 34 16 20 40 33 10 21 27 34 22 26 28 21 19 12 11 7 -7 -8 -1 2 3 4 4 -1 -5 -1 6 8 9 8 12 9 19
85 100 65 54 67 59 46 52 43 28 9 -15 -16 -6 9 21 34 23 16 24 15 17 14 11 5 -7 -11 -6 5 9 10 10 7 -19 -48 4 11 14 19 20 19 21 22
83 85 61 51 63 63 47 43 33 15 -7 -28 -19 -5 15 32 27 18 24 8 3 4 5 -2 -9 -11 -4 2 7 10 6 5 -12 -13 -7 8 16 24 29 34 35 32 34
73 65 87 55 59 54 44 42 34 21 8 -1 4 19 28 29 38 36 28 10 2 -2 0 -3 -4 -3 6 6 8 11 4 -1 -23 -15 4 7 11 20 26 26 33 40 42
65 57 90 57 55 53 48 55 37 27 24 28 20 33 39 60 36 37 26 17 16 2 0 1 7 13 14 8 12 10 5 -14 -26 1 9 3 21 20 30 34 35 37 38
53 42 47 50 57 54 61 65 45 28 37 45 32 39 47 39 39 20 9 7 0 -2 2 8 9 8 10 11 12 7 5 -18 -9 2 7 11 21 24 31 34 37 42 45
38 38 46 44 62 55 74 67 48 37 48 59 58 36 59 44 25 7 2 -8 -8 1 2 1 4 14 19 15 14 10 4 -19 -2 10 9 16 19 27 31 34 41 48 51
47 42 51 53 70 72 78 61 41 35 43 69 79 70 58 21 2 6 -4 -5 0 -5 -4 1 11 21 30 28 21 18 9 -15 0 13 13 21 11 25 29 34 41 45 50
56 45 58 67 59 51 59 59 37 36 42 58 63 57 25 4 2 2 -1 -9 -7 -2 7 18 25 24 33 38 35 29 23 6 15 18 19 33 7 16 23 24 41 43 50
231 50 62 76 59 60 45 52 44 39 43 41 36 38 8 -6 -11 -7 8 2 8 16 23 29 32 36 40 39 38 29 7 14 20 19 23 41 9 10 26 40 41 46 49
139 60 78 75 74 69 66 44 37 36 26 17 5 0 0 -2 -8 -7 5 12 24 31 36 36 38 40 15 28 29 22 22 29 23 24 35 33 12 12 22 28 23 34 34
84 186 69 77 77 68 80 78 84 42 38 35 17 8 7 4 9 11 17 24 25 26 30 30 35 24 26 27 26 21 24 27 32 34 46 26 12 12 17 25 34 37 52
5 170 150 72 76 68 81 84 77 64 43 37 28 17 18 23 23 29 35 40 40 40 43 39 37 35 29 26 24 23 23 26 30 32 44 35 21 23 32 26 34 37 42
-10 130 193 76 76 82 79 82 72 60 44 38 36 39 45 45 43 47 48 48 50 53 50 49 42 38 32 30 28 21 21 20 24 30 22 50 26 16 19 24 34 40 49
36 -43 112 133 90 79 80 70 72 60 59 53 73 64 63 65 57 52 50 50 50 54 57 53 47 44 38 33 29 29 24 24 19 22 23 28 26 16 18 15 26 43 50
-19 149 -58 224 151 79 86 82 81 85 82 73 69 57 61 65 54 48 51 52 51 56 56 63 61 57 49 44 32 33 33 25 25 20 16 17 36 41 30 30 27 38 65
15 108 82 103 173 100 85 92 86 72 75 76 80 78 68 61 52 48 50 51 53 64 68 72 71 71 62 54 48 47 39 30 24 18 17 16 24 26 55 50 47 48 69
79 135 222 182 172 119 63 76 64 73 82 80 77 64 50 49 52 54 59 56 57 66 72 80 86 82 85 80 66 55 60 32 31 30 12 17 17 28 33 78 55 69 143
-12 14 106 91 109 109 46 35 52 65 59 81 63 56 41 58 54 64 55 60 69 79 80 87 87 91 95 95 95 74 52 42 38 30 25 18 19 26 37 50 84 135 144
-27 -44 94 115 131 103 57 47 70 92 80 67 55 50 34 40 49 66 57 50 74 76 73 79 96 113 135 110 118 84 54 48 53 49 34 35 35 38 49 67 99 120 158
24 -63 -59 -48 -17 61 73 183 111 111 99 33 83 43 20 51 47 65 52 66 56 83 70 98 124 148 125 118 125 138 106 87 79 64 57 48 57 56 71 86 121 150 139
46 74 33 12 10 -29 -24 19 164 130 135 36 83 74 58 83 34 50 21 52 47 76 88 87 110 96 129 144 140 126 120 105 90 62 40 45 43 66 95 99 134 152 173
28 2 32 -8 32 26 50 -5 27 63 104 121 141 58 70 129 107 55 7 -100 156 85 73 78 98 126 135 158 171 150 115 113 95 62 -6 30 48 75 97 106 126 153 164
71 43 27 76 19 21 19 14 46 13 20 97 79 49 16 45 175 153 52 110 81 120 113 216 148 222 243 222 227 224 251 127 66 59 23 9 40 67 102 114 144 163 173
106 107 76 84 104 82 67 30 6 0 87 115 69 3 30 44 69 64 124 105 101 121 128 132 134 209 210 216 173 160 175 120 79 72 59 59 70 72 102 120 149 164 169

GFSSE_con_3kmhel_081.txt.gz
Helicity
98 143 127 98 84 56 42 39 38 43 45 62 62 41 17 30 41 45 35 40 33 31 30 26 23 14 20 31 33 30 26 22 16 16 20 21 13 11 20 49 29 27 34
82 109 121 89 80 58 40 35 35 36 36 43 52 50 19 29 38 43 31 34 26 19 22 22 18 12 15 27 23 25 22 13 6 4 4 6 15 12 15 22 32 23 28
71 99 97 83 91 60 38 41 40 27 21 28 44 43 23 26 39 34 28 28 19 23 25 24 15 10 14 26 23 24 22 3 -20 -22 -34 6 13 21 23 24 24 25 31
56 137 73 85 91 64 49 41 33 29 9 -7 11 9 24 32 39 29 24 24 15 28 30 19 13 6 7 22 22 20 13 -10 -35 -43 -11 9 14 23 26 29 33 34 36
120 75 119 87 90 65 53 42 28 19 -1 -30 -16 5 26 46 39 33 31 23 18 30 24 8 7 8 10 15 14 16 7 -18 -30 -19 6 9 11 22 27 27 33 37 37
134 83 115 87 91 61 64 52 34 23 22 -18 -7 15 26 48 35 39 37 31 37 22 19 13 13 15 12 12 13 11 -4 -24 -28 13 8 26 28 23 26 28 28 34 38
85 85 56 77 78 58 69 65 50 40 45 25 17 30 45 50 51 60 64 58 41 25 21 23 25 19 13 13 16 10 -13 -30 -28 4 12 27 21 23 27 28 32 35 40
53 57 44 65 58 61 73 83 63 56 61 61 42 46 75 75 50 46 56 50 26 24 23 23 20 17 12 13 16 14 -9 -40 -1 10 14 39 25 27 28 27 34 40 43
237 88 65 61 62 74 83 92 66 65 78 96 79 71 97 81 55 40 30 20 16 21 20 14 18 24 19 23 18 13 -5 -35 -31 19 17 36 24 29 28 33 39 39 42
364 261 86 65 55 48 63 95 80 67 105 121 118 106 90 82 44 38 26 20 21 16 11 15 25 27 32 27 26 16 3 -23 7 18 20 45 30 24 28 34 36 41 46
392 239 185 64 56 45 59 85 90 83 117 135 120 102 75 58 38 30 29 26 28 19 19 23 32 33 40 31 25 18 0 -2 21 20 36 49 25 17 28 33 34 42 49
-289 167 46 190 70 48 78 81 69 70 78 89 80 71 44 14 27 17 40 29 33 29 31 32 34 33 14 24 24 16 9 24 20 22 60 51 21 11 18 31 35 38 48
-309 -61 -56 72 153 60 114 82 89 95 86 92 46 25 19 38 54 33 22 29 21 22 24 28 32 24 18 23 32 17 23 20 20 29 67 37 17 10 9 21 33 39 49
-255 -229 -56 62 138 71 146 118 109 87 94 97 73 57 74 78 46 32 24 25 28 35 24 29 30 21 28 23 18 17 26 20 19 36 70 46 24 10 -2 3 21 26 33
-143 -282 -83 51 -8 154 148 141 123 124 104 107 96 89 74 70 62 48 42 47 45 44 43 39 39 40 32 28 28 27 27 21 19 26 28 59 44 22 13 8 11 31 32
-86 -193 -210 14 47 138 156 112 122 125 118 74 92 81 60 59 66 66 64 61 57 56 55 47 42 45 37 38 33 31 31 29 21 31 24 50 47 34 24 12 2 9 32
-31 -60 -35 -20 -89 148 148 169 97 115 114 121 80 80 82 80 73 67 61 60 53 58 45 55 52 55 53 48 39 40 36 23 36 25 29 24 52 47 45 33 23 25 34
33 11 56 84 9 201 148 163 159 121 96 99 104 96 82 75 69 69 77 63 62 55 55 64 65 67 65 58 54 44 58 43 33 29 33 41 38 31 53 47 58 54 50
16 16 74 22 83 138 86 95 112 102 105 93 92 81 69 66 59 73 70 69 62 74 62 63 77 79 83 80 71 79 92 81 47 36 32 30 36 38 29 77 70 66 66
44 49 86 159 152 103 149 107 82 111 118 99 104 99 70 66 56 60 75 83 81 79 67 68 72 86 93 90 113 116 144 87 59 60 44 49 42 51 37 39 85 105 124
88 -8 153 151 247 315 124 95 106 94 89 103 103 92 94 87 89 82 95 114 129 92 52 57 73 81 104 133 175 153 92 52 66 87 69 55 55 55 51 50 70 120 154
94 22 67 75 192 102 141 103 118 96 107 102 112 112 88 74 75 78 59 55 85 114 88 100 76 101 130 139 194 138 130 92 130 109 91 71 62 59 62 65 87 153 161
80 29 23 64 90 129 103 134 145 121 100 84 101 120 115 98 75 59 56 80 68 88 83 83 65 80 141 153 111 162 171 155 215 118 111 76 42 37 67 84 95 130 156
28 151 61 54 74 99 83 58 56 134 107 111 105 97 67 91 100 81 13 61 99 73 40 91 75 36 93 149 187 139 193 296 224 175 107 54 39 16 71 66 94 119 133
-27 -32 -57 -19 -69 -86 -97 -16 64 59 76 168 -2 141 25 40 32 37 21 47 131 114 76 42 137 143 187 191 215 271 274 267 252 169 161 75 -35 3 66 82 120 149 154
18 13 24 -14 -5 -2 7 33 -2 48 21 50 -29 36 10 80 5 25 -91 -29 145 194 152 14 174 115 134 192 228 236 240 285 214 140 106 114 113 96 93 123 129 146 168

GFSSE_con_3kmhel_084.txt.gz
Helicity
108 113 115 93 81 83 76 71 57 59 64 47 49 34 18 31 35 45 43 32 36 42 37 42 43 47 43 35 25 22 17 19 19 25 25 28 27 34 45 35 33 21 31
123 90 118 83 72 69 67 67 68 63 69 51 55 50 30 28 39 48 33 37 41 38 41 52 34 40 28 23 19 19 15 19 15 7 13 34 34 31 34 38 25 17 23
116 91 142 77 76 69 66 66 64 59 57 55 58 57 39 34 49 41 35 31 21 37 45 45 27 32 24 23 24 20 9 4 -8 -27 5 -18 13 31 27 23 21 25 28
156 86 145 66 78 72 58 65 57 49 44 40 43 45 35 37 42 40 35 34 40 54 48 36 24 22 26 28 25 15 -2 -9 -9 -38 -29 -7 11 25 26 27 29 30 34
185 70 119 74 77 68 61 60 55 49 33 35 31 29 23 41 43 38 36 39 64 61 45 32 18 14 23 26 21 7 -11 7 33 11 21 0 -3 20 27 25 24 29 35
159 120 107 78 61 67 74 61 47 51 16 12 17 10 28 48 48 45 54 52 68 50 34 24 18 11 21 15 16 1 -10 2 5 15 31 44 5 22 24 27 28 29 36
168 153 102 73 71 64 69 63 56 54 16 8 3 15 39 56 54 48 59 60 54 39 32 24 28 14 10 11 8 -7 -12 2 1 17 33 19 8 21 22 23 27 33 38
266 223 91 70 79 67 71 68 66 66 38 29 25 33 52 70 64 57 65 66 52 47 35 37 35 25 17 14 6 -11 -25 3 21 28 47 32 17 23 22 21 26 28 30
360 449 143 97 88 72 72 76 71 72 63 62 66 78 90 92 77 64 70 65 52 47 39 35 24 20 19 18 11 -6 -24 -9 11 10 48 22 16 18 20 25 29 28 30
310 502 550 219 82 73 83 74 73 79 79 83 123 141 120 119 74 72 54 67 52 50 43 33 26 24 26 23 18 3 -17 -14 6 17 42 28 29 17 14 24 25 25 29
156 116 -20 302 291 253 53 80 91 88 106 144 173 152 143 120 71 83 61 71 65 55 38 28 29 32 28 27 17 10 -8 -12 -20 8 52 44 25 13 19 26 18 23 30
56 56 -101 -102 24 201 283 93 111 115 141 151 169 135 119 121 84 70 68 65 78 52 35 27 31 27 21 20 19 8 0 -5 22 43 45 47 27 11 14 23 21 26 33
45 101 -203 -126 -174 42 125 85 146 145 138 164 126 101 77 62 96 141 95 89 83 46 39 38 34 20 5 7 40 27 25 11 32 46 47 45 25 15 11 18 25 25 37
-10 -59 -230 -275 -193 -109 -65 268 124 168 134 155 143 111 75 119 123 83 87 67 52 34 21 32 35 18 5 25 35 23 31 30 21 69 58 61 34 27 15 9 13 21 23
32 -42 -327 -440 -274 -48 64 -34 130 133 134 173 154 95 182 160 116 77 74 62 49 44 16 34 37 36 28 30 20 28 35 32 18 47 78 63 44 34 30 8 1 4 18
50 -32 -70 -85 -51 -5 19 -39 94 143 163 168 173 198 262 179 151 132 88 68 50 61 52 58 42 41 50 40 32 39 32 34 34 28 87 69 48 31 30 24 14 16 10
32 18 -34 -26 -2 -23 2 103 25 134 190 204 209 226 170 131 111 101 93 88 82 73 56 49 45 49 58 56 60 38 49 34 49 32 50 87 56 44 42 28 26 38 47
103 50 15 24 6 125 45 203 71 108 131 163 146 131 144 133 112 107 98 86 61 61 63 70 65 70 77 73 70 54 51 68 51 67 54 67 73 55 48 43 53 47 53
108 70 33 40 27 105 72 224 94 106 114 118 127 153 135 119 105 103 100 86 72 77 87 79 73 75 85 65 63 54 72 106 88 80 58 61 84 77 71 54 70 44 37
81 73 46 47 59 110 103 131 128 114 123 120 112 111 106 106 95 109 116 103 100 98 96 86 68 65 73 69 70 70 131 167 133 91 94 122 88 78 80 78 88 83 107
80 115 90 46 75 73 118 84 77 102 124 161 145 109 101 105 95 100 112 126 143 154 104 73 83 67 74 72 97 132 154 125 88 93 156 122 112 105 83 55 105 105 121
138 95 93 87 152 100 132 183 115 129 148 143 145 179 148 144 142 137 124 115 103 126 129 101 104 115 95 109 119 158 144 138 85 142 174 170 140 86 73 76 93 111 117
75 94 37 67 140 181 144 200 146 191 198 191 158 134 189 180 135 105 84 85 78 83 88 124 101 112 103 114 113 162 198 178 221 214 186 164 125 109 91 80 107 132 136
203 173 32 76 107 188 125 119 121 182 195 112 125 102 86 187 75 67 62 64 66 85 82 71 87 128 109 101 133 54 140 222 273 319 220 164 123 93 70 58 84 139 168
79 118 83 62 58 79 62 18 94 61 45 156 94 91 122 48 90 103 84 64 61 74 35 -43 42 139 188 121 157 203 302 159 304 409 277 215 126 43 64 62 94 130 150
-73 -42 -47 10 30 5 43 -61 -16 118 39 123 56 97 68 32 120 125 91 41 37 177 215 84 17 179 241 179 171 209 339 318 287 352 294 188 118 83 110 127 163 165 170

GFSSE_con_3kmhel_087.txt.gz
Helicity
64 80 88 106 109 96 95 92 91 80 75 71 73 63 41 48 53 58 52 45 51 61 51 61 64 60 46 38 30 25 26 32 33 36 39 39 43 46 46 39 32 24 28
103 84 91 113 106 87 80 83 91 94 72 77 72 61 41 40 49 56 48 43 58 65 62 71 67 43 39 33 28 33 32 30 31 32 41 40 35 38 39 41 19 15 24
89 79 105 112 133 100 86 79 85 89 83 77 75 60 47 35 50 60 46 42 62 68 59 73 51 41 34 30 25 29 29 20 17 19 17 6 13 31 27 21 24 24 26
109 76 112 130 129 124 97 76 73 73 78 65 71 58 51 51 51 53 38 34 60 72 58 54 63 41 33 26 19 22 21 7 -7 -9 -10 7 10 24 22 20 23 26 31
122 68 87 154 127 109 88 72 58 58 60 66 66 50 46 60 55 50 27 19 68 66 61 48 52 37 36 22 11 21 31 30 13 19 0 -5 -2 15 20 20 21 26 32
111 90 95 168 97 97 67 68 51 52 46 64 55 46 37 49 61 52 41 59 66 64 51 39 42 36 31 27 16 22 36 44 19 29 15 14 -2 17 19 20 22 26 32
145 84 92 135 98 82 58 64 51 49 22 44 42 38 28 50 72 61 56 72 63 57 47 30 33 35 26 20 16 16 30 36 13 26 19 22 6 21 19 17 22 28 36
262 228 143 84 87 99 62 74 63 54 20 24 18 18 34 58 92 84 58 56 64 57 44 36 26 20 22 13 8 8 23 46 23 22 10 15 15 19 17 20 23 27 31
322 344 376 391 279 154 76 60 59 70 34 34 12 35 51 87 93 72 59 60 63 63 73 57 34 32 19 13 4 -3 9 22 23 15 17 6 10 16 20 21 22 25 30
298 333 364 380 464 380 288 248 61 60 76 31 51 75 106 129 98 75 104 73 68 61 65 60 39 24 18 15 11 2 4 12 22 21 23 7 15 15 14 20 23 25 28
197 243 263 291 394 373 319 275 172 44 86 66 141 169 170 184 148 116 125 84 71 62 64 52 33 27 23 20 15 3 2 5 19 25 15 25 22 21 22 25 19 24 28
112 95 133 182 130 186 253 169 135 102 68 119 185 208 204 168 151 136 128 92 77 58 58 44 35 29 26 19 14 8 -1 4 1 20 25 38 34 24 27 25 19 20 26
129 107 132 162 190 17 -292 -121 132 104 53 115 139 222 178 176 154 145 147 118 107 59 60 51 41 30 18 20 17 15 15 10 13 27 35 38 32 21 20 20 21 21 28
132 88 67 54 6 -151 -268 -254 -19 139 36 127 154 143 200 182 162 146 157 124 101 65 54 50 38 23 13 15 21 18 22 20 38 48 34 43 30 20 24 20 14 11 10
116 106 121 123 -62 -232 -121 -57 -77 74 103 110 175 145 184 164 155 157 145 117 91 64 51 41 37 27 14 20 23 24 22 14 37 52 47 35 45 32 14 21 16 9 -1
135 140 149 110 -35 -165 -198 -116 -75 37 122 145 171 169 162 147 149 133 134 119 90 60 51 49 41 39 24 28 23 24 29 29 26 50 59 62 50 45 19 10 12 18 13
155 148 130 94 23 -49 -65 -105 -41 -60 154 190 162 162 168 182 147 134 138 117 85 59 62 63 48 57 49 36 35 32 39 30 32 31 65 69 73 35 37 19 22 28 23
151 149 142 109 24 -18 -4 -23 -29 182 161 160 163 207 212 218 184 153 141 115 100 103 84 85 74 62 48 55 58 40 35 38 43 37 69 76 91 70 44 35 44 51 42
167 146 132 131 47 18 62 66 113 69 113 108 211 225 215 179 176 174 150 130 120 113 100 95 87 85 77 74 61 46 47 31 52 93 78 91 97 95 71 49 55 57 43
114 73 94 103 77 51 47 84 195 190 51 70 161 188 161 150 150 160 158 131 119 107 102 107 103 90 86 68 57 45 48 85 116 122 128 132 147 117 94 99 88 68 46
63 37 42 53 51 56 41 49 102 198 121 71 21 93 146 128 132 146 151 154 142 120 118 106 109 87 80 84 109 93 88 110 114 133 125 174 181 142 105 88 89 82 78
134 59 81 51 74 48 105 116 137 163 98 78 88 69 82 109 116 123 139 155 158 180 171 156 145 138 101 82 97 119 112 129 130 113 165 207 188 158 134 116 102 90 96
121 131 106 76 68 143 110 174 159 254 288 233 130 141 145 165 154 141 131 133 126 136 142 146 142 114 110 113 115 118 159 120 124 174 232 233 198 166 125 123 105 92 91
91 194 138 38 103 184 152 164 168 239 295 282 147 210 94 143 227 260 134 112 120 115 99 99 96 125 128 105 133 148 187 192 148 113 293 311 237 207 142 128 117 92 98
165 198 203 145 63 244 195 197 156 220 217 215 191 149 197 114 55 122 138 67 102 94 94 53 48 70 187 237 154 206 207 225 229 254 325 388 437 302 159 98 73 154 166
164 122 169 126 104 192 246 130 90 47 97 129 70 94 99 32 72 35 92 97 138 130 130 127 103 155 182 164 222 243 219 307 323 277 283 338 304 263 163 118 171 161 159

GFSSE_con_3kmhel_090.txt.gz
Helicity
52 52 70 86 104 121 114 104 101 101 103 100 105 109 107 94 76 68 61 60 51 58 62 62 80 71 55 43 45 46 41 38 31 29 43 48 42 41 45 48 33 20 34
138 66 47 73 89 110 120 113 96 86 85 89 82 88 79 76 77 67 50 51 63 78 75 81 80 68 56 42 42 46 41 38 35 39 35 36 39 39 41 29 19 16 26
90 89 75 82 94 113 127 126 113 66 56 78 79 72 68 67 71 70 53 57 65 82 79 83 71 67 58 52 50 48 45 47 37 28 31 12 14 30 25 22 21 24 25
106 97 99 104 116 127 122 118 103 90 53 65 67 65 56 65 72 71 59 56 74 77 81 74 68 70 62 55 47 38 23 14 8 6 8 10 6 26 25 24 24 30 35
81 78 83 121 126 125 117 113 92 74 72 55 53 47 56 70 73 67 58 51 74 68 84 70 66 68 60 59 44 28 14 -10 13 10 11 10 6 17 24 28 29 34 37
87 70 71 97 137 122 96 97 74 60 47 56 47 52 52 52 79 61 46 62 77 73 69 69 65 60 54 47 45 38 42 35 25 2 3 12 2 22 23 25 29 31 36
119 80 43 68 106 118 95 90 73 60 35 43 43 39 47 40 77 67 56 67 87 62 55 64 57 54 48 42 39 40 44 19 1 9 18 12 4 23 21 21 26 33 37
193 179 136 120 85 95 81 61 79 68 55 17 39 32 40 44 60 78 65 67 76 63 43 50 54 48 39 30 31 44 50 33 15 8 16 10 18 25 25 26 27 31 33
279 337 335 315 329 378 321 270 230 136 77 21 23 20 38 49 75 92 84 88 65 61 48 38 42 40 30 20 17 27 41 34 21 7 9 4 12 21 20 21 23 26 32
270 309 348 355 348 348 359 328 273 217 218 84 23 27 47 62 96 112 106 91 62 78 73 38 30 43 23 17 14 15 25 34 15 12 10 0 8 17 19 18 19 22 27
243 270 276 300 302 308 296 316 316 305 214 192 46 58 94 131 126 149 103 74 93 88 88 65 54 39 27 17 13 17 24 39 23 7 10 0 8 15 11 14 15 20 26
170 190 231 252 247 240 219 220 257 264 238 183 105 114 173 191 182 171 129 103 114 101 79 50 45 41 37 26 20 19 21 32 19 13 9 5 16 19 19 18 14 13 17
114 115 110 133 151 156 98 69 175 157 193 201 110 111 190 266 252 228 167 145 148 120 109 76 54 49 36 30 20 16 22 22 14 14 6 15 14 17 22 18 14 13 12
83 85 107 120 124 115 144 149 164 141 115 139 38 91 183 259 317 236 197 164 148 134 108 89 55 40 31 24 24 24 16 26 22 27 -5 15 11 12 13 15 16 12 7
83 101 102 89 99 138 122 116 111 179 134 52 68 77 137 219 309 234 178 173 144 134 111 91 58 43 34 23 20 23 18 14 31 38 31 18 18 22 17 7 5 7 3
86 103 94 109 124 172 149 104 36 15 142 77 83 91 126 162 189 164 156 148 160 117 104 93 65 48 39 43 27 28 24 19 43 28 33 13 23 31 19 7 5 6 5
69 74 63 119 96 153 93 84 54 -44 96 134 38 142 192 184 121 172 158 149 152 118 112 99 80 68 58 49 32 40 42 32 37 42 46 59 40 41 35 25 16 16 22
94 74 68 172 149 119 83 88 95 53 -7 107 70 216 231 169 137 123 146 125 150 136 126 108 99 75 60 62 49 31 36 46 30 31 61 61 73 74 59 47 44 41 43
108 107 101 142 123 107 84 90 100 72 173 104 192 184 208 175 167 198 125 119 151 147 134 123 112 109 95 80 65 56 52 48 39 47 57 80 83 92 90 85 52 54 54
110 141 111 139 148 129 110 84 55 78 116 83 160 247 144 175 169 188 161 138 160 161 143 137 142 111 108 102 93 81 73 51 39 48 98 118 111 118 119 103 97 88 45
123 95 63 92 91 126 131 102 42 63 46 86 211 117 176 148 167 181 178 164 178 168 149 137 137 131 121 134 142 110 85 70 73 106 130 150 157 137 155 140 112 91 78
108 73 72 67 87 79 89 86 38 67 57 93 187 182 110 126 146 180 175 168 166 182 149 131 157 177 151 151 160 157 127 121 77 92 122 173 197 211 189 135 121 103 106
128 127 90 58 86 98 118 52 94 93 67 144 183 103 101 92 124 147 148 167 171 170 160 167 182 181 188 158 131 160 169 133 142 133 133 187 199 216 214 167 140 126 145
115 105 127 115 83 48 116 127 119 93 74 118 190 224 190 118 117 133 161 161 178 194 207 195 207 205 223 173 174 96 124 142 171 178 149 196 226 273 200 179 196 194 147
92 88 90 147 157 74 269 140 115 256 226 218 243 189 132 132 186 122 164 181 159 134 102 110 126 143 139 184 130 163 194 244 233 262 225 277 344 363 338 214 240 196 128
153 134 145 147 171 224 361 155 167 166 191 177 179 228 206 166 154 121 174 176 125 131 86 109 81 99 130 127 151 195 270 309 372 497 492 431 421 379 444 309 366 203 166

GFSSE_con_3kmhel_093.txt.gz
Helicity
73 102 106 55 60 76 87 100 133 146 143 136 139 139 127 114 90 69 60 58 49 62 70 87 95 78 74 65 54 56 57 41 39 55 70 59 35 34 38 47 37 34 55
119 107 111 82 47 64 75 94 112 129 126 119 108 100 98 84 77 67 57 58 46 56 82 85 86 75 66 67 56 43 42 36 34 38 39 37 30 33 33 28 28 31 40
83 83 103 77 57 53 67 75 94 100 103 98 93 80 88 74 64 60 57 59 50 77 107 92 72 68 66 68 61 55 43 36 34 32 36 22 12 27 29 27 28 33 34
88 82 114 113 106 100 98 107 76 68 71 76 78 79 74 75 66 57 56 62 79 88 111 85 72 70 74 71 61 53 40 29 20 23 13 9 8 25 22 21 26 34 39
82 87 87 119 120 109 106 93 84 69 64 59 63 68 64 66 68 65 58 63 80 112 117 90 79 74 72 66 49 27 19 19 21 16 19 17 3 15 21 25 24 31 37
79 82 68 93 114 116 111 104 84 68 59 49 52 57 65 49 75 67 70 81 108 119 98 97 88 77 70 58 43 30 17 27 24 13 14 13 6 22 21 21 23 30 36
75 90 72 79 101 112 108 105 99 76 59 49 51 53 46 52 57 73 71 81 86 108 102 92 87 77 68 54 48 39 33 32 19 10 12 9 3 26 25 23 26 33 35
127 127 81 81 96 116 116 111 113 105 83 45 32 40 39 47 64 86 55 85 88 77 100 89 81 69 63 50 48 39 21 27 15 17 17 8 15 26 26 26 25 29 32
170 203 238 259 282 334 346 284 234 221 194 166 30 30 34 41 59 80 76 80 101 87 64 85 73 59 54 51 46 43 33 29 22 9 14 8 10 25 23 21 22 24 26
174 213 226 263 292 317 354 320 291 276 232 191 79 43 41 61 71 68 79 93 57 74 56 77 67 50 44 44 41 38 35 31 22 13 11 4 5 18 19 15 19 18 23
176 202 246 272 294 267 266 276 257 238 244 213 167 68 62 111 105 98 131 123 61 75 70 73 51 53 43 35 35 41 41 24 20 9 8 -6 -0 8 12 14 13 16 19
125 167 192 221 246 228 222 163 177 191 197 195 190 115 97 112 135 134 151 121 62 114 126 83 81 72 52 44 38 42 45 39 20 12 6 -11 -5 8 11 12 10 12 16
78 105 123 153 178 171 154 117 129 137 158 159 166 118 85 123 163 185 192 172 107 143 166 141 118 92 55 44 42 40 46 35 25 16 9 -7 -7 3 10 10 8 10 11
91 51 67 75 87 84 99 80 59 67 86 89 95 104 76 157 191 216 227 210 189 173 159 136 119 88 64 41 37 42 43 37 26 21 11 -4 -14 -4 5 7 5 6 3
106 78 69 80 88 96 90 92 110 126 124 105 107 105 53 87 188 204 279 281 239 162 146 125 112 98 71 46 39 42 42 34 21 27 36 10 -10 -9 3 7 7 2 -0
180 129 95 83 100 122 122 113 112 116 125 134 124 151 163 143 172 183 312 354 275 143 136 122 97 105 76 67 41 37 27 38 30 32 35 16 -17 -0 14 10 6 1 -2
169 185 110 94 104 129 123 114 131 116 109 101 145 139 218 211 158 235 203 284 163 203 100 139 94 128 102 84 45 42 39 33 44 38 34 43 31 16 3 28 25 20 13
136 145 134 99 84 93 104 135 134 110 112 94 99 120 140 190 186 302 261 218 273 89 97 105 144 115 109 99 71 50 54 51 48 56 55 55 64 48 29 42 57 51 39
104 97 96 123 107 103 117 125 108 105 95 103 100 92 83 126 150 313 314 239 180 147 86 87 144 120 128 109 82 66 65 70 60 62 51 51 73 86 80 65 63 74 66
102 95 101 98 121 131 154 127 113 120 92 127 134 90 27 151 178 369 336 196 176 143 101 75 102 138 132 119 113 92 84 78 77 59 58 70 85 87 103 107 112 101 74
149 117 122 109 105 129 112 113 120 119 121 135 152 120 159 207 275 264 254 219 178 127 89 98 113 152 127 154 181 141 121 102 94 82 71 83 96 112 127 127 125 131 94
149 141 130 82 106 101 89 94 86 105 122 114 138 118 79 165 210 224 195 201 202 147 98 109 145 171 161 187 205 192 156 148 106 113 128 118 110 142 162 184 171 146 114
171 155 129 94 58 73 71 81 86 78 114 94 141 125 133 110 229 225 217 190 170 167 177 157 176 168 185 206 215 221 209 176 181 181 151 132 133 158 169 198 187 188 144
107 108 82 81 71 51 56 80 81 93 107 121 140 164 220 196 285 318 302 196 168 171 152 159 167 179 198 220 237 208 236 202 192 216 179 148 188 205 232 244 277 273 226
110 120 114 102 133 99 39 69 104 -20 -49 126 79 59 306 197 232 223 226 217 181 165 155 171 190 199 216 213 252 240 164 161 161 207 277 212 233 267 276 320 322 333 394
206 145 161 133 120 190 179 317 172 63 131 167 79 103 296 210 201 203 178 200 141 137 174 129 117 121 121 143 169 180 193 220 179 264 265 237 321 347 368 385 392 403 368

GFSSE_con_3kmhel_096.txt.gz
Helicity
62 77 120 97 77 56 75 88 95 115 134 147 147 137 125 112 81 54 46 52 55 61 93 102 99 99 84 72 69 60 47 41 47 67 74 45 29 29 35 42 45 35 68
74 72 117 110 81 67 85 94 98 97 102 109 116 116 113 99 84 64 51 44 49 59 94 92 85 91 71 60 53 50 43 44 45 50 51 40 30 28 29 29 24 25 36
45 66 96 99 77 64 71 72 95 95 92 78 72 81 86 86 71 59 50 36 42 55 96 88 85 78 69 59 58 57 49 43 42 38 34 11 5 27 24 22 25 24 25
51 65 72 84 90 85 78 69 72 74 73 73 61 58 57 66 59 51 49 39 57 86 103 84 82 82 84 64 61 61 50 39 33 26 13 6 -2 24 26 27 29 30 30
73 83 85 89 89 92 103 92 87 79 59 52 59 47 65 68 57 57 51 56 73 114 99 79 80 80 77 64 53 44 38 33 30 25 15 11 8 17 26 29 27 28 30
69 81 78 84 83 95 107 99 100 86 74 59 46 43 56 52 41 61 63 75 98 136 102 81 81 80 67 52 44 27 30 30 28 17 16 13 4 26 26 24 24 25 27
58 55 65 67 85 87 99 103 102 91 81 73 54 48 47 47 42 76 59 88 119 124 101 87 79 77 66 48 47 35 37 34 19 16 13 10 4 31 28 23 26 24 23
60 76 81 54 71 93 87 105 120 119 100 82 64 44 40 31 52 75 80 78 112 115 92 102 81 71 59 51 47 45 43 35 23 16 14 8 14 30 29 25 21 22 23
88 142 144 128 155 205 231 221 229 221 199 145 64 51 31 29 43 68 91 77 85 123 117 102 82 69 54 46 46 32 38 40 27 15 14 7 6 24 25 24 24 23 24
99 124 178 232 231 224 223 200 194 199 173 130 93 73 52 53 33 59 85 73 95 76 99 108 87 68 57 52 44 41 32 38 30 19 13 3 -1 19 20 17 21 24 27
108 116 168 193 229 222 227 195 178 172 163 125 106 106 91 103 76 78 99 88 103 102 67 90 90 74 66 60 50 45 48 31 27 20 14 -6 -4 13 13 13 15 18 21
157 113 106 142 166 191 154 181 152 148 139 124 77 99 115 141 99 97 114 80 119 81 70 72 97 87 85 79 66 50 49 33 25 20 13 -4 -7 2 10 11 9 15 15
186 139 83 89 119 126 146 136 113 94 89 88 87 43 75 122 120 114 152 126 148 94 98 105 121 129 102 83 73 69 50 42 31 19 13 -3 -8 -4 8 13 10 8 8
155 156 98 63 78 82 99 97 77 68 59 48 94 68 71 91 123 136 143 167 177 175 162 195 172 130 104 79 68 71 56 48 39 32 15 0 -8 -18 6 10 11 6 2
163 162 121 77 58 73 75 70 59 41 35 60 82 92 117 148 132 131 194 186 201 214 185 187 173 145 109 83 75 72 64 46 33 35 30 1 -4 -20 -16 5 10 8 0
193 179 151 109 87 87 71 68 65 61 70 71 86 100 154 139 164 191 180 222 236 249 226 188 175 148 108 78 79 76 62 58 45 36 37 29 0 -12 -21 -12 7 8 1
231 250 222 204 177 135 96 84 83 86 95 103 105 106 138 181 181 192 251 235 242 295 300 240 148 160 102 93 48 70 74 60 52 43 43 44 26 1 11 -23 9 19 16
198 213 207 174 179 139 108 105 87 61 77 89 91 93 103 149 208 191 188 236 285 243 379 355 332 106 100 90 66 46 63 71 62 54 57 58 57 39 19 9 13 27 32
151 184 174 151 144 135 128 119 97 93 87 70 78 67 81 127 163 191 224 261 289 329 346 411 292 178 51 59 78 59 64 71 76 72 67 66 61 63 65 46 56 39 55
111 136 122 144 149 158 140 125 106 100 94 80 75 88 57 92 137 194 238 204 343 342 309 361 277 57 81 18 49 85 80 76 88 81 78 80 75 83 95 78 78 81 74
93 118 125 126 96 102 142 106 87 96 84 76 94 65 91 118 115 156 217 183 305 338 259 320 231 111 31 79 110 94 98 90 97 83 99 91 84 89 100 113 100 134 131
112 140 162 144 110 89 113 99 104 94 77 69 55 88 128 140 109 108 188 175 294 296 271 277 282 355 67 59 151 114 123 135 116 96 127 113 96 119 121 130 145 155 163
195 152 146 121 97 83 89 110 99 71 46 52 58 105 139 154 138 92 237 357 398 371 320 282 250 124 108 141 177 174 176 152 165 189 164 158 137 141 138 151 141 172 181
217 167 122 132 133 124 97 67 61 55 50 39 79 124 127 120 152 183 159 127 213 213 171 155 227 222 176 146 189 168 190 156 137 166 191 196 171 148 142 162 172 209 229
204 172 153 164 151 162 143 88 91 92 73 13 49 100 128 91 159 244 197 163 190 187 211 193 98 141 122 165 182 232 222 218 213 200 215 223 214 160 152 210 255 269 300
165 157 158 176 173 164 214 204 204 140 99 14 99 101 70 92 326 350 297 344 290 299 123 115 90 118 144 186 191 230 235 255 221 209 200 124 146 107 189 237 256 288 380

GFSSE_con_3kmhel_099.txt.gz
Helicity
23 51 106 128 120 89 90 70 77 69 80 83 74 81 87 78 72 51 42 42 37 34 35 54 47 58 83 83 66 55 50 57 59 58 60 32 24 32 42 46 38 55 46
8 36 78 96 108 93 85 74 85 86 82 88 92 78 84 85 76 57 40 40 43 60 84 87 96 103 94 72 55 40 50 54 56 63 55 31 25 29 34 41 31 39 43
4 19 54 72 70 104 91 81 78 82 83 79 70 68 77 78 72 59 45 33 38 65 93 81 76 68 65 59 60 52 47 52 50 47 34 21 24 27 24 21 27 34 36
-7 18 23 48 71 83 94 93 96 82 70 59 45 53 46 61 45 40 40 36 37 68 87 74 69 60 63 52 62 68 54 43 38 33 21 19 23 29 27 26 29 35 38
6 17 28 55 60 75 81 84 87 80 80 63 40 37 31 58 29 32 29 39 57 86 103 88 73 76 66 63 65 66 61 45 33 19 20 19 17 26 31 30 31 35 40
22 11 31 62 67 79 81 85 90 83 74 68 56 35 47 47 42 28 35 51 86 116 95 75 71 67 59 61 53 52 52 49 29 24 20 19 17 27 28 30 33 35 37
45 21 26 49 69 67 72 78 82 84 76 80 61 54 44 28 37 36 54 78 107 108 83 75 78 70 51 40 40 43 48 46 32 26 21 16 20 29 28 29 30 35 39
97 34 26 32 58 68 80 76 80 90 89 84 81 64 46 39 30 24 70 71 93 107 86 66 72 64 54 43 36 43 59 43 34 30 23 18 19 27 30 28 28 28 32
125 104 57 56 51 68 94 122 134 124 115 95 78 63 54 37 45 43 56 79 79 89 87 79 68 61 50 50 50 58 59 51 36 31 25 20 12 27 27 24 22 25 25
126 127 141 117 106 129 136 147 120 105 89 76 58 62 69 66 49 42 61 69 84 76 83 87 83 66 48 50 51 50 51 56 41 33 24 22 3 25 23 19 23 21 23
154 139 122 117 111 128 141 133 131 112 106 77 51 54 74 83 78 70 69 71 70 70 84 80 83 75 66 59 51 47 60 37 37 33 28 15 2 20 20 17 17 18 17
246 165 119 103 93 114 121 137 131 112 102 71 61 66 78 84 101 97 89 83 89 77 83 58 78 82 85 67 57 53 42 39 36 30 26 11 -0 8 17 15 14 11 13
226 182 96 87 78 73 86 97 96 99 99 77 49 33 35 65 76 102 106 107 114 89 105 59 70 89 66 72 69 55 46 44 38 36 20 8 3 -2 14 13 11 9 7
237 197 141 104 100 88 90 75 74 79 70 65 38 51 -6 54 59 81 137 132 139 160 137 81 93 84 83 75 69 55 47 45 50 44 26 15 3 -7 -1 13 11 8 5
210 219 174 138 125 85 85 78 68 78 61 55 48 37 46 43 71 100 101 130 178 231 181 145 118 100 108 86 74 65 48 39 38 55 51 24 4 -8 -23 4 11 6 3
177 216 204 170 132 117 109 73 69 77 70 59 30 28 54 54 76 92 149 151 164 216 240 248 207 175 178 141 99 62 55 41 42 40 43 39 10 -3 -18 -19 4 11 -1
176 184 201 211 170 141 114 77 70 62 64 47 41 46 59 66 82 94 102 167 178 226 194 276 310 277 195 160 102 75 76 46 39 41 38 41 40 17 3 -13 -9 7 16
172 195 192 208 185 157 144 133 104 71 49 38 36 45 55 68 67 78 111 131 159 239 243 276 307 298 242 193 118 91 72 61 36 37 49 48 47 46 30 9 -3 8 11
160 212 189 192 191 160 139 127 119 107 93 66 68 70 47 55 69 70 104 126 148 197 215 243 291 289 338 334 205 85 54 80 42 44 35 44 46 53 55 29 20 28 26
130 216 209 169 149 124 141 141 134 113 87 86 80 82 74 67 59 86 102 95 116 177 203 246 244 316 325 298 432 375 65 104 41 47 28 52 55 62 61 45 47 42 38
98 219 172 147 137 139 174 163 126 104 106 96 82 72 69 64 60 90 118 107 123 180 230 290 265 255 360 434 448 443 226 27 14 62 38 57 64 68 70 66 80 75 74
103 168 109 97 126 130 126 93 92 101 93 81 71 73 64 51 75 104 110 126 140 212 266 323 284 315 327 337 433 427 295 110 33 47 64 73 77 102 96 93 94 82 98
152 138 154 154 201 165 93 79 85 94 96 82 71 70 49 47 82 94 111 123 147 320 343 339 280 317 406 393 439 440 380 373 92 89 93 100 103 118 106 108 110 103 105
158 178 156 164 131 116 89 60 73 104 85 51 36 30 52 55 88 110 120 134 137 209 393 414 292 366 411 512 328 363 293 238 79 36 99 138 154 139 138 144 140 133 109
155 149 147 148 143 113 135 151 87 83 112 80 22 -21 29 74 78 93 155 121 196 208 198 363 581 395 449 355 453 343 314 97 83 95 64 66 135 147 146 157 139 113 106
149 177 187 195 216 213 209 230 275 263 202 178 131 43 87 120 66 48 103 158 167 200 199 171 167 184 199 220 305 263 278 215 118 132 120 126 129 149 152 140 145 134 157

GFSSE_con_3kmhel_102.txt.gz
Helicity
0 25 60 61 55 68 63 67 49 38 45 57 64 64 64 55 50 43 34 34 30 31 35 42 35 34 54 46 58 42 22 28 43 45 55 42 45 45 40 37 17 36 30
29 9 65 53 50 57 65 74 74 65 51 58 54 56 63 66 58 41 31 30 20 23 37 36 46 66 78 63 46 57 58 54 48 46 38 38 38 36 43 61 42 38 45
55 2 31 35 50 56 64 69 73 69 65 61 63 55 52 62 57 44 28 25 20 53 66 83 81 72 73 58 44 46 59 61 49 26 -14 12 24 26 31 34 35 35 37
16 -14 3 41 36 50 66 53 62 76 83 67 47 43 42 44 49 27 30 22 11 43 68 87 71 75 48 44 48 52 53 57 52 19 7 15 22 20 24 30 36 40 44
31 -9 -1 31 29 43 51 68 62 64 71 64 43 45 28 37 23 2 15 18 18 39 63 102 55 96 55 43 41 50 55 49 31 5 23 17 16 24 22 25 28 32 45
92 20 36 21 34 46 47 56 56 61 60 58 44 38 40 20 22 -10 11 29 43 65 92 93 73 69 55 54 56 43 48 47 10 28 28 24 20 30 25 27 33 36 39
111 113 32 30 37 39 43 50 51 51 52 53 54 43 51 36 23 3 32 38 58 88 76 62 65 59 51 46 41 44 45 31 24 33 26 21 39 28 30 30 33 33 36
119 109 68 43 36 47 50 55 54 50 42 42 39 40 46 38 28 20 44 60 68 81 60 46 49 55 48 34 26 36 45 20 19 36 34 23 55 28 31 32 31 30 32
100 102 116 48 41 48 58 69 85 84 72 51 39 39 37 36 34 23 31 63 63 71 62 49 46 51 47 37 31 38 51 16 25 38 32 30 35 28 31 30 27 27 28
126 101 110 133 60 48 60 74 76 71 63 59 55 51 47 47 42 44 44 51 65 81 72 52 50 50 53 49 53 66 50 29 18 39 33 49 38 28 29 25 24 23 24
192 153 110 108 114 76 59 71 81 56 58 52 46 36 49 40 39 46 62 76 70 78 81 65 52 69 68 64 64 51 50 24 27 35 39 80 24 24 24 21 19 20 22
216 237 158 114 106 107 98 81 65 76 85 47 47 48 41 33 35 42 71 86 88 80 73 70 66 79 85 60 63 58 35 22 34 34 37 65 21 12 21 15 13 14 18
160 198 212 153 110 102 97 86 89 108 82 69 37 27 49 55 50 50 57 77 82 81 82 83 83 73 68 75 76 62 39 37 45 43 41 50 18 1 21 16 8 9 12
105 152 184 161 123 104 110 105 95 89 83 89 65 47 35 49 46 56 31 37 60 81 83 103 91 87 70 75 79 71 58 54 56 55 50 62 20 -3 -8 20 10 8 7
74 108 148 133 113 110 122 121 110 99 84 69 85 88 82 32 33 48 51 35 49 61 71 128 107 91 104 97 101 91 73 61 52 62 54 74 48 11 -13 -13 4 3 3
87 82 113 131 134 128 123 119 123 114 99 94 84 82 66 49 58 48 65 83 73 64 83 84 92 81 133 120 120 97 90 83 64 63 64 58 58 34 0 -13 5 6 0
140 115 122 124 145 174 170 132 136 130 118 93 78 77 50 54 50 36 52 73 89 84 79 97 109 110 140 187 191 126 90 81 74 64 70 65 60 50 27 -5 -3 5 9
107 152 159 150 144 174 184 157 137 114 115 110 87 74 58 35 51 61 74 81 90 110 108 132 143 183 191 251 248 261 147 100 79 76 70 72 62 67 62 34 12 6 14
91 121 170 210 172 178 183 174 131 116 122 105 92 75 56 56 60 75 90 82 93 121 145 153 142 177 229 240 257 222 280 189 111 108 95 66 58 66 62 62 46 29 32
75 84 100 201 222 187 191 164 156 156 141 113 90 78 76 81 72 85 90 75 82 112 117 162 169 170 191 202 249 279 277 305 205 205 152 110 57 52 63 53 59 59 34
94 79 86 139 234 181 184 183 185 176 144 109 93 70 89 91 83 95 104 92 103 107 101 110 127 163 176 219 235 223 293 229 137 183 197 188 109 56 48 74 83 67 74
112 108 104 136 210 149 130 159 183 164 127 110 94 96 88 79 82 96 103 97 77 115 93 125 149 183 194 263 340 265 251 230 225 247 299 353 104 109 81 72 73 78 105
113 178 173 204 206 205 189 154 144 120 129 96 89 93 76 64 62 80 90 98 87 113 142 127 134 195 213 254 360 392 371 381 278 311 306 253 228 119 64 103 107 90 84
78 131 185 146 186 158 161 143 120 102 68 58 51 66 67 43 42 55 78 80 105 142 127 127 139 244 295 401 342 291 296 305 372 397 402 305 119 47 62 108 151 128 131
46 48 73 97 119 136 129 132 118 56 31 92 160 153 131 79 81 70 62 75 122 161 156 152 185 278 340 384 370 258 282 360 472 462 366 319 179 165 124 107 159 199 175
53 63 72 88 103 91 76 102 154 213 228 236 197 163 140 76 50 120 140 80 109 130 140 170 179 188 301 409 433 488 327 442 419 445 326 339 236 68 42 84 112 109 104

GFSSE_con_3kmhel_105.txt.gz
Helicity
34 39 30 31 28 12 20 29 36 33 27 41 43 50 46 48 44 30 26 23 22 20 22 18 9 10 20 18 20 4 30 33 55 44 49 47 42 39 51 40 16 22 23
95 25 58 37 33 19 22 37 45 43 38 38 44 41 38 52 51 42 26 23 15 20 23 19 13 38 35 48 33 41 42 50 52 39 33 31 37 32 41 59 63 47 59
98 66 34 37 23 27 36 46 48 48 44 33 38 32 44 46 58 31 26 16 4 2 18 24 41 54 54 59 35 35 40 40 33 14 0 14 26 24 26 33 37 37 50
71 61 10 62 27 21 33 46 42 45 40 46 53 36 36 30 37 33 10 4 0 21 40 56 65 76 65 41 32 36 33 33 15 -2 9 26 31 28 28 26 26 32 35
70 94 24 53 24 21 24 35 42 46 47 42 48 46 40 21 20 19 5 -3 -2 17 26 61 87 82 68 38 24 33 33 26 1 -3 21 30 26 33 31 29 26 38 53
85 74 44 39 21 9 18 26 32 43 42 38 33 28 25 23 22 12 11 6 11 17 44 72 78 74 56 43 35 29 27 16 -9 5 23 28 45 42 33 42 47 40 39
114 104 155 49 46 38 34 29 29 33 38 40 39 25 20 20 11 15 26 27 43 32 60 62 62 57 59 49 43 33 26 2 -6 24 29 21 60 35 35 39 40 39 37
123 110 115 74 59 59 54 50 41 40 41 40 40 31 34 27 21 16 30 38 51 50 57 47 48 50 49 49 41 36 29 2 9 26 33 29 68 35 36 36 36 36 36
116 129 119 114 67 62 60 61 65 55 45 35 25 27 31 42 33 23 36 39 44 58 63 49 43 45 50 44 36 40 44 10 -4 27 26 39 59 31 36 32 30 30 31
111 125 117 124 114 60 52 61 58 56 53 45 47 32 33 41 40 33 39 52 45 60 70 58 51 47 50 54 51 42 49 21 9 36 31 70 69 38 37 31 29 28 30
99 92 134 105 113 118 100 75 74 64 61 60 52 42 44 43 33 23 38 43 63 64 79 72 55 56 72 78 76 72 58 27 23 44 43 106 66 35 35 29 24 26 28
79 106 95 124 114 115 117 117 71 71 79 75 65 44 72 42 35 28 59 88 76 78 86 81 67 70 89 75 85 94 66 28 27 43 54 98 76 31 33 23 17 18 23
60 81 100 98 111 111 131 116 121 116 116 115 100 84 64 79 95 69 57 82 77 79 79 80 85 85 66 74 91 96 73 56 47 67 68 95 67 33 26 30 17 12 14
69 60 96 88 88 102 115 130 121 103 112 120 130 144 76 44 66 82 72 52 78 70 56 89 84 70 60 58 71 94 85 90 95 94 86 116 74 32 14 27 22 16 9
92 76 80 113 95 76 101 120 135 128 115 105 107 117 139 170 121 62 48 19 77 58 54 91 98 72 81 53 84 105 112 95 86 111 109 120 92 60 18 15 19 19 6
107 115 102 96 129 106 89 94 131 149 148 140 121 100 76 89 87 88 79 74 71 80 53 79 98 90 62 107 85 129 124 149 112 105 115 129 95 90 44 21 17 23 13
85 108 124 116 121 154 124 121 132 130 172 155 129 107 89 88 78 75 76 72 44 66 70 98 109 112 97 98 126 111 165 126 147 136 138 126 121 88 81 38 18 17 24
63 74 90 128 124 157 161 143 157 183 176 164 162 136 89 79 86 89 73 60 41 61 72 87 134 151 127 134 158 150 194 227 173 144 115 122 141 106 90 70 57 31 24
63 69 84 94 124 147 171 162 172 177 195 164 125 112 105 96 85 90 80 70 74 92 106 129 115 128 176 189 179 177 194 239 205 167 192 184 146 143 145 101 83 69 54
81 72 87 89 84 106 152 182 207 213 184 146 134 116 93 98 76 85 99 100 99 113 121 110 113 117 135 184 207 182 180 216 261 231 202 179 130 170 152 163 146 106 62
84 138 130 97 79 86 146 189 175 182 172 146 133 124 108 94 81 103 117 124 118 115 111 98 108 110 138 176 209 166 194 210 245 305 397 279 251 224 146 144 148 108 94
80 120 170 170 111 101 140 209 177 133 145 155 151 134 113 93 92 104 127 131 119 128 113 111 117 143 151 161 206 183 178 190 185 241 286 274 307 212 198 173 172 158 119
73 92 129 180 174 185 249 150 177 212 228 209 133 110 76 60 46 75 90 119 122 128 157 144 125 130 157 169 193 240 235 280 234 248 248 330 277 244 276 190 187 186 160
54 50 71 74 129 178 234 194 222 164 156 171 135 122 118 223 184 159 144 137 111 132 140 139 122 142 180 184 197 214 212 299 292 355 216 251 255 247 244 236 240 190 186
74 53 33 46 64 73 99 136 145 179 187 172 141 134 139 136 155 177 158 113 85 88 93 100 117 148 177 169 171 224 213 269 276 318 307 296 323 183 232 281 261 203 235
79 90 54 16 26 64 55 69 86 97 65 105 146 133 125 154 186 143 136 112 113 118 72 83 109 124 179 152 172 248 331 386 295 343 355 406 402 394 474 400 488 276 157

GFSSE_con_3kmhel_108.txt.gz
Helicity
62 23 23 26 33 23 15 10 15 23 30 27 29 32 31 30 31 33 24 15 11 8 9 15 2 1 11 20 4 8 29 39 29 39 50 56 53 56 60 29 16 15 28
54 8 35 32 26 21 16 16 24 35 33 17 24 36 22 32 37 29 26 23 12 5 3 1 16 15 30 32 32 27 43 35 22 20 28 45 52 51 67 74 65 39 47
131 35 40 52 31 23 20 19 36 34 37 28 7 25 14 23 45 24 19 16 5 5 4 15 32 48 48 38 35 39 31 27 8 -0 -4 -1 24 38 45 54 45 43 44
126 102 47 50 29 27 29 23 29 27 26 14 22 19 11 22 15 25 9 -1 -8 1 2 42 51 66 64 52 29 27 23 15 -6 -21 -22 -4 24 28 37 39 38 39 40
78 90 112 57 38 35 31 36 27 24 29 29 28 38 28 21 14 12 2 -3 4 18 36 48 69 69 71 58 35 28 26 8 -13 7 34 34 35 23 29 31 38 52 50
77 63 87 26 29 33 37 39 42 40 35 38 36 31 23 13 7 19 12 -1 13 19 25 53 71 68 64 57 36 37 23 8 -9 13 27 62 72 32 32 44 42 43 42
109 112 84 51 37 31 30 33 35 41 44 42 35 29 26 26 26 26 30 13 23 25 37 58 56 59 53 46 33 30 25 12 8 27 42 49 53 50 40 38 37 39 43
80 138 140 120 56 46 37 36 41 46 45 46 44 41 37 36 34 35 39 30 34 35 48 59 53 54 52 50 43 32 25 10 15 22 48 80 61 38 36 40 40 39 40
55 90 117 125 154 60 59 58 50 49 48 45 38 37 37 37 39 43 47 39 37 37 52 57 57 51 49 45 50 47 35 16 6 23 50 80 67 58 44 36 35 38 39
50 54 90 110 117 131 99 65 64 61 51 48 46 42 42 43 43 45 51 47 46 41 55 65 65 63 61 59 56 48 41 20 16 23 32 74 87 59 53 43 37 32 33
48 39 59 88 99 110 103 89 61 70 74 72 72 64 67 77 66 55 61 48 49 57 61 64 61 64 64 65 68 67 67 52 29 44 60 92 69 51 54 46 40 35 33
35 50 47 49 68 85 103 125 97 78 87 80 84 84 98 76 82 75 96 64 66 64 68 71 70 73 81 103 101 91 107 71 50 51 104 116 87 56 49 40 33 32 34
32 30 52 68 68 61 84 123 128 119 107 105 132 133 103 106 99 85 109 114 117 88 105 91 89 103 119 103 106 141 122 93 70 58 139 137 96 60 38 38 29 27 30
60 58 58 66 76 79 67 93 114 130 133 130 122 117 134 112 112 42 43 126 139 133 115 130 123 117 106 92 59 123 134 120 100 75 160 163 120 85 58 30 33 25 21
88 89 86 67 95 108 101 81 104 110 130 126 140 114 114 101 105 66 67 125 150 90 131 126 130 117 117 81 69 54 141 136 98 128 188 187 132 111 84 47 31 34 26
90 102 107 107 87 92 156 112 99 116 114 150 160 144 95 103 118 123 105 117 142 123 102 95 116 115 130 142 83 70 74 146 171 139 160 186 169 116 105 77 41 35 33
88 87 95 94 83 100 124 161 133 114 119 135 155 188 134 126 112 99 110 119 106 95 65 70 93 102 123 123 141 111 137 162 202 181 172 217 176 156 109 103 72 45 44
115 114 100 84 80 80 84 135 164 116 141 139 169 188 170 119 129 125 112 84 71 78 70 68 82 106 113 108 127 132 145 170 121 220 196 217 219 180 138 111 117 94 63
130 118 120 106 75 76 84 89 149 158 172 162 154 193 151 126 138 123 112 86 76 66 63 85 107 120 120 112 116 123 160 206 218 225 226 203 179 239 232 138 136 134 115
113 96 97 75 145 84 92 102 108 175 198 170 167 157 150 165 186 170 117 104 104 105 101 103 120 131 141 145 131 134 147 187 237 245 237 235 214 232 252 223 169 143 122
88 75 85 96 105 145 122 123 117 142 178 161 138 135 158 171 172 163 133 132 122 98 95 109 144 133 131 162 163 125 142 187 190 212 244 237 201 210 227 258 246 230 180
59 56 59 75 75 123 125 148 139 129 139 146 149 166 178 190 199 194 185 144 118 108 107 128 155 165 184 195 184 133 129 117 167 201 244 263 228 242 298 318 284 231 266
59 59 44 37 42 85 113 94 83 99 110 158 183 166 190 261 239 202 189 156 132 114 99 118 151 167 180 179 213 205 148 151 152 187 189 247 273 255 269 286 341 307 265
66 85 69 27 17 18 64 57 80 60 98 181 197 227 218 220 181 101 112 121 102 86 83 98 118 145 151 145 172 194 189 210 209 160 173 177 260 223 244 284 324 336 296
77 98 113 65 30 54 45 62 51 59 106 107 129 126 147 145 186 158 160 137 112 87 122 108 100 107 152 146 160 167 177 196 176 187 190 267 171 238 244 290 307 283 263
84 110 113 96 81 71 75 71 47 100 89 107 114 91 123 104 112 157 187 160 113 128 97 121 124 188 116 152 162 186 189 203 185 177 256 254 357 326 278 303 282 250 242

GFSSE_con_3kmhel_111.txt.gz
Helicity
38 12 17 43 33 28 14 9 13 17 24 28 26 28 28 31 29 32 30 28 18 15 16 19 16 9 18 21 6 24 36 37 28 35 45 51 52 57 57 35 32 27 35
93 35 16 43 40 28 23 19 22 22 23 11 11 26 9 26 31 30 29 23 16 13 10 6 16 16 32 37 31 44 48 38 21 19 26 34 50 55 57 58 54 45 45
85 85 36 32 33 37 38 32 31 31 18 9 17 12 7 19 29 24 21 18 8 -1 7 19 28 54 51 51 53 44 36 21 17 13 21 15 27 38 34 36 37 46 48
77 70 72 39 27 39 35 36 42 42 30 23 12 10 12 12 19 16 11 6 2 4 -12 21 46 51 59 46 44 38 26 15 8 4 -1 11 18 29 31 31 31 34 37
86 71 99 33 32 30 35 35 32 36 31 26 22 24 20 14 20 18 4 8 18 30 52 37 44 58 62 46 36 28 23 13 18 40 27 43 16 25 30 36 45 46 39
69 103 107 74 39 39 37 39 41 33 31 34 42 41 35 29 24 16 17 19 21 31 37 39 52 51 66 54 32 25 19 7 26 48 42 48 38 29 34 40 36 41 42
68 83 101 127 57 42 47 47 45 42 36 34 31 34 30 27 28 31 37 30 27 30 35 42 45 45 52 50 37 29 18 12 23 39 45 68 43 45 43 38 36 38 40
68 86 95 98 110 66 56 45 40 41 42 43 36 37 36 38 35 38 48 41 39 37 44 59 60 51 47 47 47 37 23 13 22 34 38 69 61 52 47 44 41 41 38
46 69 92 98 95 115 83 76 55 40 41 46 44 45 42 39 35 33 47 47 46 37 52 63 68 57 50 49 51 53 38 20 23 30 58 60 62 54 54 48 41 40 41
56 54 81 90 89 91 88 89 58 67 65 57 57 55 57 53 37 41 45 49 55 50 51 62 67 62 57 54 57 62 46 27 28 31 57 49 68 56 47 43 39 40 42
30 49 74 87 106 93 77 75 74 61 64 74 75 67 73 76 68 64 58 54 59 62 62 67 68 64 62 59 60 59 66 68 46 44 60 43 78 68 61 52 38 32 35
22 32 17 41 78 103 108 99 93 64 70 86 95 86 89 86 86 72 73 63 62 60 72 73 76 78 78 86 72 60 87 84 67 45 75 58 88 71 65 61 49 38 33
36 47 56 44 34 60 94 125 102 108 97 92 99 108 106 103 105 100 102 99 97 62 90 87 104 117 124 113 95 93 91 82 80 57 62 91 101 79 72 69 55 47 37
86 84 89 84 84 67 66 88 123 117 115 120 100 98 121 106 109 113 101 98 63 72 119 122 127 120 130 120 116 116 108 108 98 78 80 118 119 103 82 69 61 51 46
78 83 102 110 96 86 89 82 87 123 124 107 122 110 131 125 118 117 123 96 93 93 91 122 121 112 109 111 114 103 120 108 115 109 106 120 131 130 111 91 77 58 54
136 141 134 155 131 116 130 127 104 84 125 127 120 117 137 150 142 127 132 105 113 114 105 114 140 124 126 118 107 98 109 126 118 112 100 143 141 152 117 102 88 80 62
72 89 99 112 130 124 112 110 138 111 95 124 106 105 132 149 134 141 136 141 167 145 116 89 74 90 109 132 121 109 104 119 152 141 167 191 178 164 150 109 93 91 83
77 85 87 85 82 97 106 110 104 129 140 118 136 104 114 135 121 132 163 148 137 139 128 108 83 74 71 94 114 103 117 123 124 155 200 228 179 238 181 152 125 105 96
73 93 102 99 87 97 101 99 111 107 114 144 131 150 90 138 154 150 152 129 113 121 116 102 97 88 70 72 80 80 89 99 123 152 168 178 196 230 245 196 158 117 107
72 89 70 70 70 71 69 83 77 90 123 110 153 119 126 113 105 140 182 167 125 118 107 101 75 84 102 99 85 82 99 117 145 168 200 220 235 257 235 227 222 190 143
74 94 99 68 64 32 65 92 115 101 127 103 119 106 89 135 78 130 186 178 218 177 130 109 96 94 104 112 97 90 93 118 150 153 177 213 209 225 249 226 244 266 216
99 97 81 64 46 43 50 81 91 104 95 129 91 76 107 172 292 255 294 276 241 167 134 114 98 73 81 93 119 107 51 50 120 161 172 184 192 213 233 284 259 240 282
87 90 80 97 69 53 38 40 68 40 13 51 46 77 123 161 216 228 220 170 131 108 106 122 105 100 89 96 142 167 174 153 85 98 97 151 173 202 209 220 236 255 242
73 83 90 87 80 61 30 -1 38 9 19 54 95 177 138 116 148 196 226 200 143 110 123 104 100 95 98 81 118 172 176 191 161 92 152 139 133 147 170 202 234 280 293
48 61 78 90 77 86 54 50 36 51 45 58 71 64 34 106 59 88 121 153 131 96 120 95 82 41 105 123 132 124 155 136 162 172 127 137 157 170 173 198 201 232 226
37 44 51 98 67 65 46 81 70 65 78 72 75 82 122 124 124 145 146 150 128 82 103 113 117 63 -56 86 153 229 157 148 123 129 150 143 175 167 200 226 212 247 270

GFSSE_con_3kmhel_114.txt.gz
Helicity
65 88 22 21 27 28 25 15 20 21 28 33 32 35 41 40 38 42 41 36 27 25 23 22 24 22 20 15 18 27 32 31 41 51 52 46 47 44 26 42 31 32 41
44 83 47 25 25 30 35 33 26 28 23 26 25 27 13 41 34 35 35 33 21 20 19 17 19 30 29 40 61 56 51 46 44 42 43 40 46 50 42 37 24 26 34
54 63 58 28 30 30 33 37 29 28 25 20 27 23 12 31 27 30 32 31 23 8 4 8 22 53 39 45 56 57 52 52 47 45 42 27 31 38 35 38 40 43 37
32 75 70 12 28 37 36 41 37 30 31 23 23 19 21 24 27 16 12 17 17 1 -12 19 49 58 45 45 39 42 35 41 40 33 27 28 21 36 34 35 39 44 45
49 51 96 71 43 46 42 41 47 45 39 30 25 20 17 15 25 24 20 18 18 23 18 33 48 63 53 50 39 25 18 32 33 19 -3 16 16 32 32 38 36 39 42
75 61 81 94 78 53 45 43 43 43 38 37 40 36 32 25 16 17 19 23 22 28 47 48 59 53 54 48 42 28 15 23 43 27 27 38 17 30 28 34 31 35 35
70 80 76 101 93 71 56 50 47 46 41 43 44 44 37 33 25 21 25 29 27 26 36 43 56 45 48 43 37 30 24 28 52 48 32 25 27 41 35 34 33 34 34
74 93 95 99 103 71 58 54 57 50 48 45 36 38 45 39 34 34 42 34 37 30 32 40 54 50 48 40 36 31 29 33 59 68 33 26 17 37 34 36 34 34 34
55 82 103 112 121 114 100 61 48 47 45 45 47 49 48 45 44 38 39 39 37 37 41 55 65 58 51 45 41 45 37 32 55 66 57 49 19 44 43 40 33 29 29
35 51 84 101 113 120 120 113 90 49 52 53 56 58 58 54 46 47 42 44 45 40 45 56 71 71 61 53 54 56 41 35 54 66 56 51 14 39 47 43 40 35 32
14 33 48 74 97 105 103 101 108 98 58 58 67 67 75 85 76 65 62 54 50 52 49 53 56 63 72 64 61 63 51 61 56 54 72 36 20 23 50 50 45 40 38
29 67 56 71 88 111 107 107 108 113 108 89 68 70 84 88 94 83 73 62 61 57 57 57 58 64 78 100 88 64 86 66 66 60 64 39 23 20 50 50 42 42 43
30 59 96 78 74 84 110 126 115 109 113 102 96 86 83 87 88 89 91 93 100 86 100 78 76 93 104 115 105 104 93 91 86 76 62 45 30 21 36 62 55 46 40
91 95 119 128 127 129 99 109 126 125 127 122 117 110 113 107 99 99 102 99 106 129 124 138 136 128 113 105 113 109 102 107 103 91 79 52 50 32 26 58 60 54 46
104 91 99 93 103 106 101 120 130 132 135 143 132 123 121 113 117 128 110 112 104 111 102 116 122 123 113 104 97 104 104 104 110 104 94 67 60 58 49 81 80 61 54
98 93 69 72 72 73 74 91 99 119 127 148 152 119 113 115 109 143 126 126 124 126 130 118 121 120 121 114 98 112 112 115 106 100 103 101 73 63 76 72 108 87 63
59 53 70 75 76 71 62 61 65 93 100 124 153 172 117 94 98 110 143 128 129 129 148 151 128 120 111 104 94 97 113 117 122 99 102 107 121 91 100 91 94 93 93
34 47 69 81 81 74 79 78 80 85 94 106 108 148 191 116 77 97 148 132 133 146 153 192 168 141 123 110 96 92 93 100 91 95 117 135 143 149 120 85 93 125 104
59 68 83 89 90 82 63 62 80 103 92 99 121 109 143 172 119 113 128 134 132 155 175 178 162 148 130 105 86 80 84 87 82 86 101 128 154 167 196 182 107 145 141
52 64 106 94 90 88 52 54 55 78 110 108 112 133 123 164 132 104 149 128 130 137 141 156 154 156 121 103 101 93 89 93 92 99 101 132 155 174 224 249 204 200 160
44 82 104 87 87 71 78 54 30 37 128 162 144 158 160 147 150 100 82 118 171 182 217 263 204 171 142 100 75 66 68 79 97 121 139 147 167 185 201 236 257 261 246
49 76 106 98 97 101 115 76 32 34 54 116 118 146 106 107 97 136 166 187 205 262 260 236 184 131 88 53 70 48 2 -21 16 21 59 97 140 192 200 211 219 233 260
46 70 100 85 93 119 97 55 35 36 14 55 87 91 109 95 117 121 90 178 150 64 147 151 165 132 109 58 87 83 52 8 -38 24 72 101 106 161 189 190 197 194 206
40 53 64 69 72 83 61 54 39 40 37 60 82 87 84 111 93 90 55 32 38 63 23 55 131 109 81 78 65 80 90 91 74 24 84 103 110 148 171 180 182 188 198
26 28 49 63 85 89 59 59 56 66 51 57 68 92 129 107 106 72 86 34 35 55 103 124 119 93 81 62 49 11 5 84 104 112 62 95 110 122 196 197 198 189 184
31 16 25 52 56 53 46 44 42 29 30 35 62 84 100 92 115 116 49 20 70 85 95 115 128 121 116 108 106 81 41 21 84 122 140 124 74 111 172 211 225 226 212

GFSSE_con_3kmhel_117.txt.gz
Helicity
86 108 50 12 14 21 31 25 30 31 43 53 53 45 44 44 44 45 49 45 35 30 26 23 24 25 18 17 31 38 35 37 51 49 44 46 49 39 44 36 39 41 48
58 68 70 46 27 30 36 31 24 33 31 32 46 35 26 39 41 40 43 40 31 21 25 28 23 25 28 35 49 58 44 43 49 54 50 47 51 54 50 52 49 36 38
58 56 41 28 34 35 42 38 33 35 34 28 42 37 28 36 32 29 29 30 24 16 -5 -2 33 41 41 52 56 66 50 42 43 45 43 34 35 46 49 45 47 41 40
28 50 66 8 30 39 43 49 35 37 35 32 33 32 30 35 35 28 25 21 15 9 -16 -0 41 57 40 52 51 50 56 46 40 39 30 25 20 33 39 40 39 40 38
55 50 101 50 40 47 48 50 53 41 37 37 35 32 28 30 27 27 22 20 14 10 4 18 31 51 44 37 38 41 40 47 36 20 8 12 11 23 36 34 41 39 42
102 90 85 112 61 50 54 49 56 53 49 39 30 27 27 28 29 27 31 27 21 14 24 39 46 53 44 36 28 25 26 39 46 18 16 15 17 13 31 33 38 32 36
96 102 93 118 131 105 57 39 45 54 52 47 40 47 44 33 28 27 35 37 33 25 27 36 47 46 41 39 26 23 22 40 51 30 31 28 23 13 31 24 24 28 28
74 80 92 117 139 126 118 92 59 49 54 54 53 48 44 44 38 37 36 35 37 31 28 33 49 54 47 40 35 30 33 42 60 42 33 28 9 8 27 26 26 26 23
58 72 81 89 107 120 111 115 101 81 49 42 42 48 50 49 49 46 43 40 31 27 27 33 40 50 54 38 38 44 43 49 70 56 40 39 7 -8 22 28 28 27 26
37 55 85 104 103 110 114 124 132 131 106 77 65 58 56 56 55 56 51 50 49 44 40 40 46 53 55 51 47 51 46 55 71 66 56 45 13 -7 10 21 20 23 24
29 43 73 105 131 123 111 107 117 125 146 127 102 90 84 82 77 76 68 60 58 52 54 50 50 56 64 67 59 60 54 72 72 75 74 47 25 8 -4 22 18 17 19
49 63 61 76 88 115 139 139 128 115 108 110 112 106 94 82 72 69 69 57 56 52 50 51 53 58 84 118 102 67 88 83 80 79 83 46 38 20 -6 27 28 16 16
33 64 86 72 76 83 102 107 123 137 133 114 107 113 111 104 95 87 84 85 88 77 93 91 94 104 129 140 123 113 99 90 93 84 76 50 42 33 11 12 44 26 17
62 61 83 87 72 80 74 83 99 108 133 148 146 125 118 116 118 108 107 95 92 106 115 121 137 132 138 146 141 126 109 109 103 98 88 54 40 35 27 14 48 47 31
91 90 96 87 79 85 79 77 81 98 109 125 155 168 155 126 111 109 103 108 109 100 102 111 121 128 124 138 133 127 123 112 109 113 109 71 49 41 31 18 29 40 39
83 80 67 69 68 67 71 78 72 79 86 94 110 144 174 174 154 122 101 103 109 107 102 109 122 143 128 138 129 125 109 118 121 115 105 95 57 43 38 34 24 43 44
59 53 66 67 73 70 73 69 70 78 87 87 91 96 121 157 169 163 140 108 90 112 111 102 103 133 123 141 120 119 114 107 107 104 109 105 102 65 44 24 47 47 67
43 50 54 67 65 76 84 78 78 85 85 88 95 102 114 143 165 163 151 130 92 103 138 145 132 130 116 123 128 135 126 116 98 104 110 119 105 100 76 56 65 82 66
47 40 38 74 92 94 73 61 88 104 94 114 119 117 112 112 135 161 163 145 135 113 122 156 150 134 127 129 130 131 131 127 113 104 91 90 88 103 120 100 78 108 149
31 27 46 83 102 87 82 82 90 101 112 155 128 130 145 128 143 139 124 129 71 139 108 130 143 159 157 164 165 140 117 111 112 115 106 101 100 100 118 131 137 148 149
46 58 58 79 71 58 90 94 108 62 62 103 138 169 149 122 93 71 94 135 120 40 152 143 153 173 215 210 163 131 98 85 105 122 125 127 122 117 119 142 182 201 195
38 39 57 62 66 69 93 101 47 43 37 76 74 71 112 128 97 84 100 91 164 118 102 182 303 242 239 237 206 130 86 89 77 84 93 78 53 52 75 100 142 176 205
55 40 49 62 62 92 99 100 52 68 62 76 77 72 83 116 122 124 119 118 107 101 95 91 -0 24 122 149 273 183 162 137 88 -0 10 33 47 87 104 105 132 172 195
41 40 51 81 106 101 102 105 83 64 79 53 65 57 55 85 121 131 114 113 117 102 121 85 24 -54 -10 9 -17 105 117 84 65 -40 -98 -21 16 47 80 127 168 164 164
41 61 79 79 94 81 68 78 88 59 60 67 61 63 46 82 56 66 106 131 113 99 58 89 84 80 102 130 99 53 85 97 111 62 -58 -19 16 74 120 87 129 167 179
52 63 62 72 60 37 37 58 57 54 58 75 80 70 67 46 55 71 58 41 58 72 85 74 129 132 137 118 102 102 105 98 96 63 35 33 -6 1 68 68 82 125 145